GFSMA_sfc_temp_000.txt.gz
Temp
58 57 57 58 57 57 56 56 56 57 56 57 57 57 57 57 57 57 56 62 64 66 69 72 74 74 74 73 71 70 70 70 70 69 69 68 67 67 68 68 68 69 69
58 58 58 57 56 55 55 55 55 54 54 55 55 56 56 56 56 56 56 56 60 62 64 66 68 69 71 72 71 70 70 69 69 69 69 68 67 67 67 67 67 68 69
58 56 56 55 54 54 54 54 53 53 52 54 53 54 54 55 55 55 55 55 55 58 60 62 64 64 65 67 69 69 70 69 68 69 68 67 67 66 66 66 67 67 69
57 55 54 53 53 52 52 51 51 51 50 49 49 51 51 52 53 53 53 53 53 55 56 60 61 62 63 64 65 67 69 69 69 69 67 67 67 66 66 66 66 66 67
56 54 53 52 52 50 49 50 49 49 48 48 51 51 49 50 49 54 52 52 51 52 52 56 57 58 60 62 63 64 66 67 69 70 69 68 67 66 66 65 65 66 66
57 56 52 51 50 49 48 48 48 47 47 46 52 51 48 49 48 48 49 52 51 50 51 52 51 52 56 59 60 62 65 66 67 69 70 69 68 67 66 65 65 65 65
53 51 50 49 49 48 46 47 46 45 46 44 44 46 46 47 47 48 48 48 49 49 49 51 51 51 52 55 57 60 62 64 65 66 68 69 68 66 65 64 65 64 65
51 52 49 47 47 47 45 44 44 44 44 43 41 40 39 43 45 47 46 47 45 46 48 50 49 49 50 49 51 56 57 59 62 64 65 65 66 66 65 65 65 65 64
49 49 48 47 46 45 44 42 42 42 40 41 41 40 36 34 37 43 44 44 43 43 44 45 47 49 49 48 49 51 53 54 57 61 63 64 65 66 65 65 64 65 64
49 49 48 46 45 44 44 43 43 41 41 37 40 43 40 38 34 34 40 43 42 44 41 41 43 45 47 46 48 49 51 52 53 57 61 63 64 65 65 64 64 64 64
48 47 47 46 45 43 42 42 40 39 39 37 37 36 36 37 37 34 32 36 43 41 42 41 41 42 44 44 44 46 50 50 51 54 57 59 61 64 63 63 64 64 64
45 46 46 43 42 41 41 40 39 38 37 37 36 36 35 33 33 33 31 32 34 38 40 40 40 41 42 42 47 48 49 49 50 52 54 56 57 58 59 60 61 61 62
44 43 42 41 41 41 41 40 39 38 36 35 35 35 35 34 35 33 32 30 31 33 35 38 39 42 43 41 42 46 48 48 49 51 52 53 54 55 56 57 58 58 59
41 41 41 41 41 44 41 43 41 37 36 35 34 33 33 33 33 33 32 30 27 29 31 33 38 40 39 41 43 46 45 46 47 48 49 50 52 52 53 54 55 56 56
43 40 40 42 42 40 41 40 37 39 36 35 34 33 32 33 32 31 32 31 28 24 28 33 32 38 40 42 44 43 41 45 47 46 47 47 48 49 51 51 52 53 55
42 43 44 41 42 41 42 40 37 36 35 33 34 32 32 32 31 31 30 30 29 27 24 32 35 37 40 43 46 43 42 44 45 46 46 46 46 47 48 49 50 51 52
41 41 42 42 39 39 38 36 35 34 34 33 32 32 32 31 30 30 30 30 29 29 25 30 34 37 37 39 42 43 43 41 40 44 45 44 44 44 44 46 47 49 51
39 40 39 39 38 37 36 34 34 33 32 32 32 31 31 35 30 29 28 28 28 29 27 26 31 33 35 37 38 39 42 44 40 44 42 43 43 43 43 43 44 46 47
38 38 38 37 36 36 35 34 33 33 31 31 31 30 30 29 28 27 28 28 28 31 30 29 28 32 33 35 36 38 38 38 42 43 42 41 42 42 42 43 44 45 46
37 36 36 36 36 36 35 33 32 31 31 31 31 30 29 29 28 28 28 28 29 27 28 29 29 29 31 34 32 32 33 35 35 40 40 39 40 42 42 42 43 44 45
39 36 35 34 34 35 34 32 32 31 30 29 30 30 31 32 34 33 31 28 28 27 27 27 28 29 29 28 29 31 30 31 33 34 34 35 37 37 39 41 42 44 44
34 33 33 33 33 35 36 37 35 30 30 29 29 29 29 31 31 32 31 31 31 27 26 25 26 26 28 28 28 29 28 27 28 33 32 32 35 36 37 39 42 42 42
33 33 32 32 29 30 35 35 32 28 27 26 28 26 27 30 28 28 28 30 30 30 30 28 26 27 28 29 30 28 27 27 27 31 32 30 32 33 36 39 40 42 42
32 30 29 29 29 32 34 32 31 26 26 26 26 25 25 25 26 28 27 27 28 29 30 30 29 29 29 30 30 30 29 28 28 29 31 26 30 30 34 36 38 42 42
31 30 31 29 28 27 33 32 30 24 24 24 26 26 26 25 28 30 27 25 26 28 32 32 33 32 32 32 31 28 25 25 24 28 29 29 29 28 28 32 34 38 40
31 31 29 27 30 25 30 31 29 21 17 22 24 26 26 27 29 30 26 24 22 26 27 28 28 29 29 29 31 30 28 25 26 24 29 28 28 28 26 28 29 31 32

GFSMA_sfc_temp_003.txt.gz
Temp
72 73 71 72 71 72 71 71 71 70 70 70 69 69 69 69 70 73 74 62 62 65 67 69 69 69 70 70 70 71 71 71 70 70 69 69 68 67 67 67 67 68 68
69 70 69 69 70 69 69 70 69 69 68 68 68 67 67 68 68 69 72 70 60 62 64 65 67 67 68 68 68 68 69 70 70 70 69 68 67 67 67 67 67 67 68
67 67 69 67 67 68 68 68 67 67 67 67 66 67 68 67 67 66 67 68 68 60 60 62 63 64 65 66 66 67 67 68 69 69 69 68 67 67 66 66 66 67 67
67 66 66 65 66 67 67 67 66 66 65 64 64 66 66 66 65 65 65 66 66 67 63 59 60 60 62 63 64 65 66 67 67 68 68 68 67 67 66 66 66 66 67
63 64 65 64 64 65 63 64 63 62 62 62 64 65 65 65 65 67 64 63 63 64 65 61 58 58 59 60 62 63 65 66 67 68 69 69 67 67 66 66 66 66 66
63 64 63 62 64 64 62 63 60 61 60 58 61 62 63 64 65 64 63 63 63 61 62 61 62 63 58 58 59 60 63 64 65 66 67 68 69 67 66 66 66 66 66
64 63 64 63 63 62 60 60 62 58 60 58 58 60 61 61 61 62 62 61 60 60 60 60 61 61 62 58 58 58 60 62 62 64 65 65 66 66 66 65 65 65 65
63 63 62 63 62 62 59 58 58 58 58 55 53 54 53 57 60 59 59 58 57 58 58 58 58 58 59 60 58 56 57 57 59 60 62 64 64 65 65 65 65 65 65
64 64 62 62 61 60 59 57 56 55 54 54 52 52 48 47 49 56 55 56 55 55 55 55 55 55 56 57 57 57 54 52 55 57 59 61 63 65 65 65 65 65 65
62 63 61 60 59 59 56 55 56 54 53 50 53 53 51 49 44 43 52 53 53 52 52 52 53 53 54 56 54 52 51 50 52 54 57 59 61 64 65 65 65 65 65
59 59 59 57 57 56 55 54 53 53 53 51 50 49 48 48 48 43 40 45 50 51 52 50 51 52 53 53 54 53 50 49 50 52 55 57 59 61 64 64 64 64 65
59 58 57 55 55 54 54 53 51 51 51 51 51 49 47 44 43 42 40 42 42 47 50 50 49 51 52 52 52 49 49 48 49 51 53 55 57 58 60 63 63 63 63
57 57 55 54 54 53 51 53 51 50 50 50 49 48 48 47 46 45 42 41 40 44 46 49 49 50 51 51 51 49 50 47 47 49 51 52 54 55 57 58 59 60 60
53 54 53 52 52 52 52 50 51 51 50 49 47 46 46 47 45 44 41 39 36 40 43 43 48 48 50 51 50 48 52 47 46 48 49 50 50 51 54 55 56 57 57
52 51 51 52 51 51 51 51 50 49 48 47 46 46 45 46 45 44 43 42 37 31 35 41 41 47 48 49 50 50 51 47 44 45 47 48 48 49 50 51 52 53 54
51 51 51 50 50 51 51 49 49 48 46 47 46 45 44 44 44 44 43 42 40 36 31 40 41 44 45 47 49 50 51 47 45 43 44 47 47 47 48 47 50 51 52
50 50 50 50 49 48 49 48 47 46 45 45 44 43 43 44 43 43 42 42 40 39 34 38 41 43 43 43 46 49 50 49 49 43 43 44 44 45 45 46 46 47 50
48 48 48 48 48 48 47 47 46 46 45 43 43 42 42 43 41 42 41 39 39 39 36 33 38 37 40 43 43 44 48 50 48 45 42 42 43 43 44 44 45 45 46
47 47 47 45 46 46 47 45 44 43 43 43 42 41 40 40 39 39 38 37 36 36 34 32 33 38 39 42 42 44 45 46 47 45 44 42 42 43 43 44 44 44 45
45 46 44 45 45 45 45 44 43 43 42 41 41 40 39 38 37 36 35 34 34 32 32 31 31 33 36 40 38 39 40 43 44 46 44 42 42 43 43 43 43 44 44
45 44 44 44 43 43 43 43 42 41 40 39 39 38 38 35 34 34 34 33 32 30 30 30 30 32 33 34 32 35 38 41 43 44 44 46 46 47 47 45 44 44 44
45 44 43 42 41 41 36 36 37 39 37 36 35 35 35 33 34 31 31 31 31 29 29 29 30 30 33 34 35 32 31 35 36 43 42 43 44 44 47 49 42 42 43
44 43 41 41 40 40 35 33 32 37 35 34 33 33 33 34 32 33 32 32 32 31 31 31 29 31 32 34 34 32 32 32 34 40 39 38 43 42 45 46 42 42 42
43 43 41 40 39 37 33 33 32 35 34 33 32 32 31 32 32 31 31 31 32 33 34 34 33 34 35 36 34 34 34 34 37 38 40 33 42 38 43 45 40 40 42
42 41 40 38 37 37 33 32 33 33 31 31 32 32 31 31 30 31 31 29 31 32 34 33 32 32 33 33 33 33 30 30 29 35 40 36 38 36 39 40 43 40 39
41 40 36 36 32 34 30 31 32 31 28 29 31 31 29 29 29 30 29 28 25 29 30 31 33 34 34 35 32 34 34 28 30 31 39 34 37 37 34 41 41 42 43

GFSMA_sfc_temp_006.txt.gz
Temp
68 75 78 81 80 82 81 79 80 79 78 78 77 76 75 75 75 79 80 62 63 66 68 68 68 68 68 68 68 68 69 70 71 71 70 69 68 68 68 67 67 68 68
63 68 76 79 80 81 81 80 78 77 77 76 76 74 74 75 75 74 78 75 61 62 64 65 65 66 66 66 66 66 67 68 68 69 70 69 68 67 67 67 67 67 68
65 69 74 77 78 78 76 76 75 75 75 76 74 75 74 74 74 73 74 76 73 59 60 61 62 63 63 64 64 65 65 66 67 68 68 68 68 67 67 66 66 66 67
68 71 74 70 70 72 73 73 73 73 73 72 71 73 74 74 73 72 73 72 74 75 63 60 60 60 61 61 62 63 64 65 65 66 67 68 68 67 67 66 66 66 66
68 70 71 71 72 73 71 71 71 68 69 69 70 71 72 72 72 74 72 70 70 70 71 63 61 60 60 61 61 61 63 63 64 65 65 66 66 67 67 66 66 66 66
71 74 73 70 72 72 71 70 67 69 67 66 67 69 70 70 71 71 69 70 70 67 68 66 67 68 60 61 61 61 61 62 63 63 63 64 65 65 66 67 66 66 66
71 70 73 71 70 69 67 66 67 66 66 66 63 65 67 68 68 68 68 67 66 65 65 65 65 65 65 60 61 61 60 60 60 60 61 62 63 64 64 65 66 65 66
71 71 69 69 69 68 67 65 63 63 65 64 57 58 56 61 67 66 65 65 63 64 63 63 61 61 61 63 61 57 59 58 57 58 59 59 61 62 64 65 65 65 65
70 70 68 68 67 67 65 64 62 60 59 61 59 55 51 50 55 61 62 62 61 60 60 60 59 58 59 60 59 59 55 53 54 55 56 58 59 61 62 64 65 65 65
68 69 68 66 65 65 64 63 63 59 58 56 59 61 57 54 49 47 57 58 59 58 57 57 58 57 57 59 56 54 52 49 51 53 55 56 58 60 61 63 64 65 64
68 68 67 65 64 65 63 61 59 58 59 56 56 55 54 54 53 49 45 50 55 57 57 57 56 56 56 57 58 56 50 49 50 51 53 55 57 59 60 61 63 64 64
66 66 66 64 63 63 60 60 59 56 55 55 55 54 52 49 49 48 46 47 48 52 56 56 55 55 55 55 56 52 50 48 49 49 50 53 55 57 58 59 61 64 64
62 62 62 61 62 61 60 58 56 54 54 54 52 52 53 52 52 50 48 46 45 50 51 54 55 56 56 55 55 51 50 48 47 47 48 52 54 55 56 57 57 59 63
60 60 60 61 60 58 56 53 55 55 54 54 52 52 52 52 53 51 48 45 41 44 47 47 53 53 54 54 51 48 53 49 46 45 45 50 52 52 53 54 55 55 56
59 59 58 58 56 55 53 56 56 54 54 53 52 52 52 52 52 51 50 48 42 36 39 46 46 52 52 52 51 51 51 50 46 44 44 45 49 49 50 51 53 53 53
58 58 57 56 54 54 56 56 55 55 53 52 53 51 50 51 51 51 51 49 47 42 38 45 47 48 50 51 50 50 51 48 47 44 43 44 46 47 47 49 50 51 51
56 56 56 55 54 54 55 53 53 53 51 51 52 50 49 49 49 49 49 48 46 45 39 43 46 47 45 45 47 48 50 52 52 44 43 43 43 44 45 46 47 47 47
55 54 54 54 54 54 53 52 52 52 51 50 49 49 48 49 47 47 47 45 45 44 39 36 40 41 42 44 45 45 47 52 49 46 44 43 43 43 43 44 45 45 46
53 53 54 52 52 52 52 52 52 51 50 49 48 47 46 46 44 45 44 43 41 39 39 37 36 39 40 42 41 44 44 48 49 47 43 44 44 43 43 43 44 45 45
52 53 53 52 51 52 52 51 50 49 49 48 47 46 45 44 42 41 40 39 38 35 36 36 35 36 39 41 41 39 39 44 46 48 48 44 42 44 44 43 44 44 45
52 53 51 51 51 50 50 48 47 47 47 45 45 45 44 39 35 35 36 36 35 34 33 32 33 34 34 36 37 39 37 40 39 42 47 47 47 49 52 46 44 42 43
52 52 51 49 49 50 36 35 38 45 45 43 42 42 42 38 38 33 33 33 33 32 30 30 30 31 32 34 36 36 34 36 35 41 44 44 48 48 50 51 41 39 38
52 51 51 49 48 47 35 34 34 43 43 42 40 40 39 40 37 38 35 34 34 33 33 32 30 32 33 36 37 36 34 34 36 39 38 40 45 45 50 50 42 41 39
50 50 50 49 47 44 34 33 33 42 42 41 39 39 38 38 38 33 34 35 37 38 37 37 36 35 36 36 35 37 36 37 39 40 42 35 43 41 46 47 42 41 40
50 50 49 47 45 44 33 32 33 39 38 37 38 39 36 36 33 30 32 32 35 36 36 34 34 34 34 33 34 35 32 32 30 38 43 39 40 39 41 43 45 41 39
49 49 46 45 37 41 31 32 33 38 34 35 37 37 33 32 29 30 30 30 28 32 32 33 34 35 36 36 34 36 35 30 32 31 41 38 39 39 35 44 44 45 45

GFSMA_sfc_temp_009.txt.gz
Temp
74 75 70 70 75 81 81 80 81 80 79 79 78 77 75 76 76 78 78 63 64 66 68 69 69 68 68 67 67 67 67 68 68 69 70 69 69 68 68 67 67 67 67
75 75 76 76 79 79 80 79 77 76 75 75 74 75 74 75 75 75 76 74 62 64 64 65 65 65 66 65 65 65 65 66 66 67 68 68 68 68 67 67 67 67 67
74 69 71 72 73 75 75 76 75 75 75 75 73 74 74 75 75 74 74 75 71 60 62 62 62 62 63 64 63 64 64 64 65 65 66 66 67 67 67 67 66 66 67
69 69 72 72 72 71 71 70 70 70 71 72 72 73 73 74 73 73 74 75 74 74 65 61 62 62 62 62 63 63 63 63 64 64 65 65 65 66 65 67 66 66 66
74 75 76 74 73 74 74 72 71 70 69 69 70 71 71 72 72 74 71 72 72 71 69 67 63 63 61 63 63 63 63 62 62 63 63 63 64 64 64 65 65 66 66
74 74 76 72 72 73 72 71 67 69 68 68 69 67 68 70 71 70 70 71 71 69 69 67 66 66 61 62 62 62 63 62 62 61 61 62 62 62 62 63 64 65 66
74 72 73 73 72 71 69 68 67 65 65 67 65 63 64 66 68 69 69 68 66 67 66 66 65 64 63 60 61 61 60 61 60 59 58 59 60 60 61 62 63 64 65
74 73 70 70 70 69 67 66 65 63 64 65 60 59 54 58 64 65 65 65 64 65 64 64 61 61 61 61 60 59 59 57 57 56 56 57 58 59 60 61 62 63 64
72 71 70 69 67 67 66 65 64 61 59 61 62 57 51 49 54 60 60 62 61 62 61 61 60 60 59 58 58 58 56 52 53 55 55 56 56 58 59 60 61 62 63
71 71 70 68 67 66 64 64 66 61 59 56 59 61 58 55 49 47 56 58 59 59 59 59 59 58 58 58 57 55 51 51 51 53 54 54 55 57 58 59 60 61 62
69 69 68 66 65 65 64 63 62 60 59 57 56 55 54 54 54 49 45 50 55 57 58 58 57 57 58 57 57 55 52 50 50 51 52 53 54 56 57 58 60 61 62
66 66 65 63 63 63 62 63 61 58 55 54 56 54 52 50 49 48 46 46 48 52 56 56 56 56 57 57 57 53 51 49 49 51 50 51 52 55 56 58 58 60 61
63 63 62 61 62 63 62 59 54 53 52 52 54 53 54 52 52 50 48 46 46 50 51 54 55 56 56 56 55 51 51 48 48 49 49 49 50 53 54 55 56 57 58
62 61 61 61 62 61 57 57 54 53 52 53 53 52 52 52 52 51 48 46 42 45 48 47 54 54 55 55 52 50 52 49 48 47 47 47 48 49 51 51 52 54 56
61 61 60 60 59 58 56 54 55 54 55 54 53 53 52 52 52 52 51 49 44 37 40 47 48 52 53 53 52 51 50 49 48 47 45 45 46 47 49 49 49 51 53
59 59 58 59 58 58 56 56 55 55 53 53 53 51 51 51 51 51 51 49 48 44 39 47 48 50 51 50 50 49 49 47 47 47 44 44 45 45 46 47 47 49 49
58 58 57 57 57 56 57 55 54 53 53 52 52 50 49 50 49 49 49 49 47 47 42 45 48 48 46 45 46 47 48 48 50 46 44 44 44 44 44 44 45 46 47
57 57 56 56 56 56 55 54 53 53 52 50 50 49 48 50 47 48 48 46 46 46 43 38 42 42 41 43 44 44 46 49 49 49 42 40 44 44 43 43 44 44 45
56 56 56 55 55 53 53 53 53 52 50 49 49 47 47 46 45 46 45 43 43 44 41 37 36 39 41 43 42 43 44 45 48 48 41 40 44 44 44 44 44 44 44
55 55 56 55 53 53 54 53 52 51 49 48 47 47 46 45 43 40 40 39 40 38 38 36 36 37 38 40 40 38 38 42 42 45 41 42 45 46 45 44 42 42 42
55 55 54 53 52 52 52 48 49 48 47 47 47 47 46 42 38 37 37 36 36 34 34 33 32 33 34 34 35 38 36 38 41 42 38 39 44 48 49 45 45 40 39
55 55 54 52 50 51 35 36 37 45 46 46 44 44 44 42 40 37 36 35 35 33 32 32 31 30 32 35 37 35 35 34 32 40 36 35 45 45 49 48 40 39 37
54 54 53 53 50 49 36 35 35 42 45 44 43 42 42 44 40 40 37 36 36 36 35 34 31 32 31 35 33 32 33 34 33 38 34 35 42 42 48 49 41 41 39
54 53 52 52 50 43 35 34 34 40 44 43 42 41 40 40 37 33 33 34 36 38 39 38 36 35 36 36 35 35 35 35 37 40 40 32 41 40 44 46 43 41 40
53 53 52 51 49 43 35 34 33 41 41 40 41 41 40 38 32 31 31 31 33 35 39 37 36 35 34 34 35 34 31 31 30 35 40 36 38 39 41 41 44 42 40
52 52 51 49 38 44 34 33 34 39 37 37 39 40 35 33 30 30 29 29 27 32 32 33 34 35 36 37 36 35 34 29 30 30 38 32 36 39 35 43 43 44 42

GFSMA_sfc_temp_012.txt.gz
Temp
67 67 66 67 68 70 70 69 67 67 66 67 66 67 66 66 66 65 62 64 65 68 69 69 68 68 67 66 65 66 66 66 66 67 67 67 67 67 67 67 67 67 67
67 66 67 65 67 67 68 67 65 64 64 65 66 66 66 66 66 66 65 61 63 65 66 66 66 65 65 65 64 64 64 64 65 65 65 65 65 66 65 66 66 66 67
63 63 63 63 63 66 66 64 63 62 61 64 63 64 64 64 64 64 64 64 60 62 62 64 64 64 64 64 64 64 64 64 63 64 64 64 64 64 64 65 65 66 66
66 65 65 63 63 63 63 62 61 60 60 60 59 60 60 62 63 65 63 62 62 64 60 62 63 63 63 64 64 64 64 64 63 63 63 63 62 63 63 63 64 64 65
68 65 64 63 63 63 62 62 59 58 57 58 61 60 57 58 59 65 62 62 61 62 63 62 62 62 62 63 63 63 64 63 63 63 62 61 61 61 61 62 62 63 64
67 64 64 63 63 62 61 59 58 58 57 55 62 61 55 55 57 57 57 62 59 59 58 60 56 57 60 61 61 62 62 62 62 62 61 60 59 59 60 60 61 62 63
67 65 63 62 62 60 58 59 57 55 54 55 52 53 53 54 53 53 54 54 55 59 59 56 53 52 54 59 59 60 61 61 60 59 58 58 57 58 58 59 60 61 62
65 65 61 60 60 58 57 56 54 52 53 53 48 48 44 48 51 54 52 53 50 53 55 56 54 53 51 50 52 58 59 57 57 57 57 57 56 57 57 58 59 60 61
66 64 61 59 58 57 55 54 53 52 49 50 51 46 42 39 44 48 49 49 49 48 49 51 53 53 51 49 51 52 55 53 54 55 55 55 55 56 56 57 58 59 60
61 62 60 57 55 55 54 53 57 51 50 46 48 53 46 44 40 39 45 46 47 50 47 47 48 50 50 48 53 53 52 51 51 53 54 55 55 55 55 57 58 59 60
60 60 58 55 53 53 53 53 52 51 49 46 44 44 44 43 43 39 37 39 44 46 48 46 45 46 49 49 47 49 51 49 50 52 53 54 53 54 54 56 58 59 59
56 57 57 54 53 53 53 52 50 48 46 45 46 47 44 41 39 38 36 37 39 43 45 46 44 45 46 46 53 52 50 49 49 51 52 52 52 53 53 54 57 57 58
53 53 53 53 52 53 52 51 48 47 46 43 44 44 44 43 43 41 39 38 37 41 40 43 44 45 49 44 45 51 51 48 48 49 50 50 50 51 52 53 54 55 55
52 53 52 53 53 53 51 50 47 46 46 44 43 43 43 44 43 42 39 36 34 37 38 37 42 42 43 44 46 49 44 47 47 47 48 48 49 49 49 50 51 52 53
56 52 52 52 52 52 51 48 46 46 45 45 43 46 43 42 42 42 41 40 34 30 33 38 39 43 43 42 44 43 42 46 46 46 46 47 48 47 48 48 49 49 50
53 52 52 51 51 51 50 49 48 48 46 44 46 44 41 42 43 42 40 40 39 36 32 39 40 40 41 45 45 42 42 46 45 45 45 46 45 46 46 46 47 47 48
52 52 52 51 50 50 50 48 47 47 45 44 45 42 41 43 39 39 39 39 38 38 33 37 40 38 38 37 40 41 42 41 42 45 46 44 44 43 44 44 45 45 46
52 51 51 51 51 50 48 47 46 46 44 41 42 42 41 46 39 39 37 36 36 36 34 31 34 35 34 37 37 37 41 44 42 45 45 43 44 42 42 43 43 43 44
51 50 51 50 50 49 48 47 46 46 44 43 43 40 41 40 36 35 33 33 34 37 33 30 30 34 34 35 35 37 37 38 43 45 45 43 41 41 43 43 43 43 42
50 49 49 50 49 49 49 48 47 43 42 43 41 41 40 38 34 32 33 30 32 29 30 29 30 30 31 33 33 31 31 35 35 41 42 41 39 39 41 43 42 41 41
50 50 49 49 48 48 49 42 42 41 39 39 40 41 40 39 39 35 33 29 28 27 27 27 27 28 28 28 28 31 30 31 33 35 33 35 36 36 39 42 42 40 39
50 49 48 48 47 50 37 37 39 36 39 39 37 37 37 40 37 36 37 37 33 27 26 26 26 26 27 28 30 28 27 27 25 33 33 31 37 35 37 40 40 39 39
49 48 48 47 46 38 37 37 35 35 36 36 35 35 36 41 35 32 33 34 33 35 35 30 28 28 27 27 29 26 26 26 26 31 31 30 35 34 38 42 40 39 38
48 47 47 47 46 39 36 36 35 32 34 35 34 34 33 32 28 29 28 27 29 30 32 35 28 28 29 30 29 30 28 28 29 31 32 26 33 32 36 37 41 40 39
47 46 48 46 43 35 36 35 34 32 33 33 35 35 34 32 31 32 27 26 26 28 35 34 34 34 35 35 34 30 25 25 23 27 30 29 28 31 28 29 31 41 39
47 47 45 44 38 33 35 35 34 29 30 30 32 33 34 31 32 31 25 24 22 25 26 27 28 31 32 33 36 32 29 25 24 23 29 26 29 30 24 26 27 28 28

GFSMA_sfc_temp_015.txt.gz
Temp
63 63 62 62 63 63 62 61 63 62 61 62 62 62 62 62 61 60 57 64 66 68 69 69 68 67 66 65 65 65 65 65 65 65 65 65 64 65 65 65 65 65 66
61 60 60 61 60 60 60 60 59 58 59 59 60 60 61 59 59 59 59 57 63 65 66 66 66 66 66 65 64 64 64 64 64 64 64 63 63 63 63 63 64 64 65
59 60 59 58 58 59 59 59 57 57 56 59 58 59 58 58 58 58 59 59 58 62 63 65 65 65 65 65 64 64 64 64 64 64 63 63 62 62 62 62 62 63 64
61 59 58 57 58 58 58 56 56 55 54 54 53 54 54 56 56 58 59 58 55 58 60 62 64 63 63 63 63 63 64 63 63 63 63 62 61 60 60 60 61 62 63
62 58 58 58 59 57 56 56 54 53 52 52 55 53 51 51 53 57 55 56 54 55 55 60 60 60 61 62 62 62 63 62 63 63 62 61 60 59 59 59 60 61 62
62 58 58 57 57 56 54 54 53 53 51 51 58 54 49 50 50 49 50 55 53 53 52 53 53 55 59 60 60 61 61 62 61 61 60 59 59 58 58 58 59 60 61
60 58 57 57 55 54 52 53 51 50 50 48 47 46 48 48 49 47 48 48 50 51 52 51 54 52 52 57 58 59 60 60 59 58 58 58 57 57 57 57 58 58 59
60 60 55 54 53 53 52 51 49 48 47 47 44 42 39 42 45 47 46 48 44 47 50 52 51 50 46 46 51 58 58 57 58 58 57 56 56 56 56 57 57 58 59
58 56 53 51 50 50 49 48 48 48 45 46 45 42 36 34 37 43 45 44 43 43 44 45 48 49 48 46 49 50 55 53 54 54 55 55 55 56 56 56 56 57 58
55 55 53 50 49 48 48 47 52 46 45 41 43 47 42 40 34 33 39 41 43 45 42 42 44 46 46 44 49 51 51 50 51 53 54 55 55 55 55 56 56 56 58
53 53 52 50 49 48 47 46 44 44 43 41 41 40 40 39 38 35 31 34 39 41 42 41 41 42 45 44 43 47 51 49 50 52 53 53 54 54 54 55 55 55 57
50 51 53 49 49 47 46 45 44 44 42 42 43 41 40 37 36 34 32 32 33 37 40 41 40 40 41 42 49 51 49 48 49 50 51 51 52 52 53 53 53 54 55
48 48 49 47 47 47 47 46 44 43 42 40 40 40 40 39 40 38 35 32 31 35 36 38 39 41 44 40 41 48 48 46 47 48 48 49 49 50 51 52 52 53 54
47 48 47 48 48 49 46 45 43 42 42 40 40 40 40 40 40 38 36 32 28 30 32 34 38 39 40 39 42 46 40 45 45 46 46 47 48 49 49 50 50 51 51
52 48 47 47 47 47 46 45 43 42 42 41 40 39 42 38 37 38 37 36 31 27 30 33 32 38 37 38 40 39 38 43 45 44 44 45 46 47 48 48 48 49 49
49 47 47 46 46 46 45 45 42 43 43 43 41 41 41 40 40 38 36 36 34 29 24 32 33 34 36 41 42 39 38 44 43 43 43 44 45 46 46 46 47 47 47
51 48 47 47 47 46 45 43 42 43 42 39 40 40 39 41 36 35 34 33 31 30 26 30 33 33 32 32 36 36 38 38 38 43 43 44 44 43 44 45 45 45 45
48 47 47 46 47 46 45 44 43 42 41 40 40 39 39 44 36 33 31 30 29 29 27 25 28 30 29 32 32 32 37 41 38 42 43 42 43 43 41 42 42 43 44
47 49 47 46 46 46 45 44 43 42 41 41 40 38 37 36 31 29 29 28 27 32 27 24 26 28 29 29 31 32 33 34 39 41 41 42 41 41 40 40 41 42 42
48 48 47 47 46 47 47 44 42 40 40 40 39 38 37 34 32 30 31 28 29 26 26 25 26 27 28 30 29 27 27 30 31 37 38 39 39 40 39 39 40 42 41
48 48 46 46 46 46 46 41 40 38 38 37 37 38 37 37 40 34 32 27 26 24 24 24 25 26 26 26 25 28 26 27 29 30 31 32 34 34 36 36 38 41 40
47 47 45 45 45 47 39 40 38 35 36 36 34 34 34 37 36 37 36 35 32 25 23 22 25 25 26 24 27 24 24 24 22 28 27 28 33 32 36 35 36 37 39
46 45 45 45 44 40 38 38 37 34 34 33 33 32 33 36 31 30 31 31 30 32 32 26 24 23 23 25 26 25 24 23 23 27 27 26 29 29 37 40 39 37 39
45 44 44 44 40 39 37 37 36 32 32 32 32 31 30 28 28 29 27 26 26 27 28 30 25 25 26 28 26 28 27 26 26 28 27 23 27 28 34 36 38 41 40
43 42 43 42 38 35 36 36 34 31 31 31 33 32 31 29 31 32 27 25 24 26 32 33 32 32 33 33 33 30 26 25 22 25 27 24 25 23 29 30 30 39 40
43 43 42 40 37 32 36 36 34 26 28 27 29 30 33 29 32 32 25 23 21 24 24 26 26 27 30 29 33 29 28 24 24 24 27 25 27 26 23 25 26 26 26

GFSMA_sfc_temp_018.txt.gz
Temp
60 60 59 59 59 60 60 58 58 58 58 59 59 59 58 57 57 56 54 62 64 68 69 69 68 67 66 65 65 65 65 65 65 64 64 63 63 62 62 62 62 63 64
58 58 58 59 58 57 57 56 56 56 55 56 57 56 56 56 56 55 54 53 61 65 67 67 67 66 66 65 64 64 64 64 64 63 63 63 62 61 61 61 61 61 62
58 58 57 57 56 56 56 55 55 54 54 56 54 55 55 54 54 54 54 57 53 61 63 65 65 65 65 64 64 64 64 63 63 63 63 62 61 61 60 59 60 60 61
59 57 56 56 55 55 54 53 53 53 52 51 50 51 51 53 53 53 53 52 52 54 57 61 62 63 62 62 63 63 63 62 62 62 62 61 61 60 59 59 59 59 60
59 56 55 54 55 54 53 53 52 51 49 50 53 50 49 48 49 53 51 51 50 50 52 59 59 60 61 61 61 61 62 62 62 61 61 60 59 58 58 58 58 59 59
58 56 55 54 54 53 52 51 50 50 49 48 55 51 47 46 46 45 47 51 49 48 49 50 48 53 59 59 60 60 61 61 60 59 59 59 58 58 57 57 57 58 59
57 55 53 53 52 52 50 50 48 48 47 46 45 44 44 44 44 44 45 44 46 47 47 47 46 45 47 56 58 59 60 60 58 58 58 58 57 57 57 57 57 57 58
56 55 52 51 50 50 49 48 47 46 44 44 42 40 37 41 43 44 43 44 41 44 45 47 46 46 45 44 47 55 57 58 57 57 57 56 56 56 57 57 57 57 57
55 52 51 49 48 47 46 45 45 45 43 42 42 41 35 33 35 40 41 40 41 41 41 42 45 45 44 43 45 47 52 53 54 55 55 55 55 56 56 56 55 56 57
52 52 50 48 47 46 45 44 46 42 42 40 40 45 40 40 34 31 37 38 40 42 40 39 41 42 43 42 47 50 52 51 51 53 53 54 55 55 55 55 55 55 56
50 51 49 48 46 45 44 43 43 42 42 40 39 39 38 36 35 32 29 33 36 38 39 39 38 39 42 42 40 44 50 49 50 50 52 52 53 53 53 53 54 54 55
47 48 49 47 45 44 44 43 42 42 40 40 39 39 38 36 35 33 30 30 31 35 38 38 37 38 39 39 46 47 48 47 47 48 49 50 50 51 52 52 53 53 54
45 45 46 45 46 45 45 43 42 41 40 39 39 39 38 37 37 36 33 32 30 32 34 36 38 38 42 37 39 46 46 45 45 46 47 48 48 49 49 50 51 52 53
46 47 48 48 46 47 46 43 42 41 40 39 39 38 37 37 37 37 35 31 28 30 30 32 35 35 35 36 40 45 38 43 44 44 45 45 46 47 47 48 49 50 51
49 49 47 48 45 45 44 43 41 41 40 39 38 38 37 37 36 36 37 35 30 23 27 29 30 34 34 35 37 37 36 41 43 43 43 44 45 46 46 47 47 48 49
49 48 48 46 45 45 44 43 41 41 40 38 38 38 37 39 39 36 35 35 32 28 23 28 29 31 33 37 38 36 35 41 40 41 42 43 43 44 44 45 45 46 47
49 49 48 46 47 45 45 43 43 42 40 39 39 38 38 39 36 35 33 32 30 28 25 26 28 29 29 29 32 32 35 34 35 40 41 42 42 42 42 43 43 43 44
48 48 46 47 46 45 44 43 42 42 40 39 38 39 39 43 35 32 30 29 28 28 26 23 25 27 27 28 29 29 34 38 34 39 40 40 41 41 41 41 41 41 42
47 47 47 45 45 44 44 44 42 41 40 39 39 38 38 36 32 30 30 28 27 31 26 23 25 26 26 28 29 30 30 30 35 38 38 39 39 39 40 40 40 40 41
44 45 46 46 46 45 45 44 41 38 38 39 39 37 36 34 32 30 29 28 28 25 25 24 25 26 26 29 27 25 27 29 29 34 35 36 37 38 39 39 38 38 40
45 46 45 46 46 45 45 41 40 38 37 36 36 37 35 36 39 33 30 26 26 24 23 23 23 24 25 25 24 26 25 26 27 29 28 28 30 30 32 37 37 36 38
47 45 45 44 43 46 42 40 38 35 36 35 34 33 33 37 36 36 35 34 30 24 22 21 22 22 22 23 24 23 23 23 22 27 25 26 29 28 30 32 38 37 35
45 45 44 43 41 41 40 40 38 34 36 34 32 32 33 35 32 30 32 31 30 31 31 24 21 21 21 24 24 23 23 23 23 27 25 24 26 26 30 36 39 39 39
43 42 42 42 40 41 38 38 37 34 33 33 31 30 30 29 28 29 27 26 26 26 27 28 24 24 25 26 27 28 27 27 26 27 26 22 25 24 29 32 37 38 39
41 39 41 41 40 36 37 37 34 31 32 31 32 32 31 28 31 34 28 26 25 26 31 32 32 32 32 32 32 29 24 23 21 25 28 26 23 23 24 25 30 37 37
41 41 39 39 38 34 36 36 35 28 29 28 29 30 34 30 32 32 25 23 21 25 24 26 26 27 28 28 31 27 26 22 23 22 26 26 25 23 21 25 26 26 28

GFSMA_sfc_temp_021.txt.gz
Temp
58 58 57 57 57 57 57 56 56 56 56 56 56 56 55 54 53 52 51 60 63 67 70 68 67 66 66 65 65 65 65 65 64 64 64 63 62 62 61 61 61 61 61
57 56 56 56 56 55 55 54 54 54 53 54 54 54 53 52 52 52 51 51 60 63 66 67 66 66 66 65 64 64 64 63 63 63 63 62 61 61 60 60 60 60 61
57 56 55 54 54 54 54 53 53 53 52 54 52 52 51 51 51 51 50 51 52 58 61 63 65 65 64 64 63 63 63 63 63 63 63 61 60 60 59 59 59 59 60
57 55 54 53 53 53 53 52 51 51 50 50 48 47 48 49 50 49 49 49 48 51 56 60 62 62 62 62 63 63 63 62 62 62 62 61 60 59 59 58 58 58 59
57 54 53 53 53 52 51 53 49 49 47 47 50 46 45 45 46 50 48 48 48 47 47 54 57 58 60 61 61 62 62 62 62 61 60 60 60 59 58 58 58 58 58
56 54 53 52 52 51 50 49 48 47 46 45 52 47 43 43 44 43 44 48 46 46 46 47 45 47 56 58 59 60 61 61 61 59 59 59 58 58 57 57 57 57 58
55 53 51 51 50 49 48 48 46 46 44 43 43 43 41 42 42 42 42 42 44 45 45 44 44 43 45 53 54 57 59 60 60 60 59 58 57 57 57 57 57 57 57
53 53 50 48 48 48 47 46 45 44 42 41 41 38 37 40 41 41 40 42 40 41 43 44 44 44 42 41 46 55 56 57 57 57 57 56 56 56 56 57 56 56 56
52 50 49 47 47 46 44 43 44 44 41 40 40 40 34 32 34 38 39 39 39 40 40 41 43 43 42 40 43 45 53 54 55 56 56 56 56 56 56 56 55 56 56
50 49 48 47 45 45 44 44 45 41 41 39 40 43 39 37 33 31 36 37 38 41 38 38 39 40 41 40 44 47 49 50 51 53 54 54 54 54 54 54 54 54 55
48 48 47 46 45 45 45 45 43 42 42 40 38 37 36 35 34 31 29 33 35 37 38 38 37 37 40 39 37 43 48 48 48 49 50 51 52 52 53 53 53 53 54
45 47 47 45 45 45 47 46 42 41 40 39 38 38 37 35 34 31 29 29 30 34 38 38 37 38 37 36 44 47 47 45 46 47 48 49 50 50 51 51 52 52 52
44 45 45 46 48 48 47 45 42 41 39 38 38 37 37 36 36 34 31 30 30 32 34 36 37 35 39 34 36 44 45 44 44 45 46 47 47 48 48 49 50 51 52
44 45 46 48 48 48 43 42 43 39 40 38 38 37 37 36 36 35 34 31 27 29 32 33 34 34 33 33 38 43 36 41 42 43 43 44 45 46 46 47 48 49 50
47 45 48 47 48 47 43 42 42 40 39 38 37 37 36 36 35 35 34 34 30 23 27 29 29 32 32 33 34 35 33 39 41 41 41 42 43 44 45 45 46 47 48
49 47 47 47 47 46 46 44 40 40 40 38 37 36 36 36 36 35 34 33 32 28 22 27 28 29 30 35 35 33 31 39 38 39 40 41 42 42 43 43 44 45 45
48 48 47 47 47 46 44 42 41 41 39 38 38 37 37 37 35 33 31 30 29 28 24 27 27 28 27 27 30 29 32 31 32 38 39 40 40 40 41 41 42 42 42
48 48 47 47 47 46 45 43 41 41 38 37 37 36 37 40 35 33 30 29 28 27 26 24 25 25 26 27 28 27 32 35 32 36 38 39 39 39 40 40 40 41 40
45 46 46 46 46 45 43 42 41 39 37 37 38 37 36 35 32 30 29 28 27 30 26 23 24 25 25 26 27 28 29 29 33 37 37 37 37 37 38 38 39 39 40
45 45 46 46 45 43 43 42 41 39 37 37 37 36 35 34 32 30 29 28 28 25 25 23 23 24 24 27 26 24 26 29 29 33 34 34 35 36 36 36 38 39 39
46 46 45 45 43 43 44 40 39 37 36 36 35 36 35 35 38 33 30 27 25 23 23 22 22 22 23 22 22 24 23 25 26 28 27 28 29 30 30 33 35 37 38
45 45 45 43 41 45 43 41 39 36 36 35 33 34 35 37 37 37 37 34 29 24 22 20 20 20 21 21 21 21 21 22 21 27 25 26 29 27 29 29 34 37 39
43 43 42 42 42 41 40 41 39 35 34 33 34 34 32 34 33 31 34 34 32 32 31 23 19 20 20 22 23 22 23 23 23 27 25 25 26 25 30 33 36 37 38
41 40 41 41 39 39 39 39 37 33 33 33 32 31 30 30 29 29 28 27 26 27 27 28 24 23 24 25 25 27 26 26 26 27 27 22 25 25 29 30 35 37 38
40 40 39 39 38 37 38 38 35 31 31 31 32 31 30 29 32 34 28 26 26 26 32 32 33 32 32 32 31 25 22 22 20 23 26 25 23 24 26 27 29 36 36
40 39 37 36 36 35 37 37 34 28 29 29 29 30 35 31 33 33 26 24 21 25 25 26 26 27 29 27 30 26 24 21 22 20 25 23 25 27 22 23 26 26 26

GFSMA_sfc_temp_024.txt.gz
Temp
57 57 56 56 56 56 55 54 54 54 54 55 54 53 52 52 51 51 50 61 63 67 69 68 67 67 66 65 65 65 65 64 64 64 64 62 62 62 61 61 61 61 61
55 55 55 55 54 54 53 53 53 52 52 53 52 52 51 50 50 50 50 52 60 63 66 67 66 66 66 65 64 64 63 63 63 64 63 62 61 60 60 60 60 60 60
55 55 54 53 53 53 53 52 52 51 51 52 50 49 49 49 49 49 49 50 51 59 62 64 64 64 64 64 63 64 63 63 63 63 63 61 61 60 59 59 59 59 59
56 54 53 52 52 52 52 51 51 49 48 48 46 46 47 48 48 48 48 48 48 50 53 59 60 61 62 62 63 63 63 63 62 62 62 61 61 60 60 59 58 58 59
56 53 52 51 52 51 50 51 49 49 47 46 47 44 44 44 46 49 47 46 47 47 47 55 56 57 59 60 60 61 62 62 62 62 60 60 60 59 59 58 58 58 58
55 53 51 51 51 49 49 48 47 45 45 45 50 45 42 42 43 43 44 47 45 45 46 46 46 48 55 56 57 58 60 61 61 61 61 60 59 58 58 58 58 58 58
53 51 50 49 49 48 47 47 45 45 43 42 43 41 42 42 41 41 42 43 44 44 45 45 45 44 45 52 54 56 58 58 59 59 59 59 58 57 57 57 57 57 57
52 51 48 47 47 46 45 45 45 42 41 41 41 39 37 40 41 42 41 42 41 43 44 45 44 44 44 44 48 53 55 56 57 57 57 57 57 57 57 57 57 56 56
50 49 47 46 45 45 44 43 43 44 41 42 40 40 36 35 35 39 40 40 40 41 41 42 43 43 43 43 44 45 50 51 54 55 55 56 56 56 56 56 56 56 56
48 48 47 46 45 44 43 45 45 43 42 40 40 42 39 38 36 34 37 38 38 41 40 40 41 42 42 42 44 46 48 49 49 52 53 54 54 54 54 54 55 55 55
47 47 46 46 44 44 45 45 45 42 42 39 39 38 37 36 36 33 32 34 37 39 39 39 39 40 40 40 39 43 47 46 47 48 49 50 51 52 52 53 53 53 53
44 45 46 44 44 45 46 46 45 42 41 40 40 41 38 37 35 32 30 31 32 35 38 39 38 38 38 38 43 45 45 45 45 46 47 48 49 50 50 51 51 51 52
43 43 44 45 45 47 45 46 44 41 40 39 39 39 38 37 37 35 33 32 31 34 35 37 38 37 40 36 38 43 44 42 43 44 44 45 46 47 47 48 49 50 50
45 44 47 49 47 48 47 45 43 41 40 39 38 37 37 37 37 36 34 32 30 31 32 35 36 35 35 35 38 41 36 39 40 41 42 43 43 44 45 46 47 48 49
48 48 48 48 47 47 46 44 43 42 40 38 37 37 36 37 36 36 35 34 31 27 29 32 32 34 34 34 35 36 34 37 40 40 40 41 41 42 44 44 45 46 46
48 48 47 47 46 45 45 44 42 40 38 37 38 36 35 36 36 35 34 34 33 31 27 31 31 32 33 35 35 35 34 38 37 38 39 39 40 41 41 42 42 44 45
49 48 47 46 46 45 45 43 41 39 38 38 37 36 36 36 35 34 33 33 31 30 28 30 30 31 30 31 32 32 33 33 33 37 38 38 39 39 39 40 40 42 42
48 48 47 46 46 45 44 42 40 40 38 37 36 35 36 39 35 34 32 31 30 29 28 26 28 28 28 30 30 29 32 35 34 36 37 38 38 37 38 38 38 40 40
47 47 46 46 46 45 44 41 40 39 37 37 36 35 36 35 33 31 31 30 29 31 28 26 26 28 28 29 29 30 30 31 33 36 36 36 36 37 37 37 38 38 39
46 46 46 46 46 45 44 43 41 38 37 37 36 36 35 34 34 32 31 29 29 27 26 25 25 26 26 29 28 26 26 29 29 32 33 34 35 35 36 36 36 37 38
46 46 45 45 44 42 44 41 39 38 36 35 35 35 34 36 38 34 31 29 27 26 25 24 24 24 24 24 24 26 24 26 27 30 30 31 32 32 33 34 35 35 36
44 43 43 42 41 44 42 41 40 36 36 34 34 33 34 38 37 38 38 35 30 26 24 22 23 22 23 23 24 23 23 23 23 31 28 28 32 31 32 33 34 36 37
43 42 42 41 40 40 40 40 39 35 34 35 33 34 33 35 34 32 35 35 33 33 31 26 22 23 22 24 25 23 24 24 24 29 28 26 31 29 33 35 35 36 37
42 41 40 40 39 40 39 39 38 34 33 33 33 33 32 32 31 30 29 28 28 29 29 29 26 26 26 27 26 27 26 25 27 28 30 23 29 28 32 33 34 36 38
40 40 40 39 39 37 38 38 36 31 31 31 33 32 31 30 33 35 29 27 27 28 32 33 33 31 32 33 32 27 23 22 20 24 29 26 28 27 30 31 32 35 36
39 39 38 38 36 33 36 37 36 28 29 30 30 31 35 31 33 34 29 26 23 27 27 27 28 29 31 29 31 29 26 20 21 21 28 24 26 27 25 30 30 33 32

GFSMA_sfc_temp_027.txt.gz
Temp
67 68 67 68 68 68 69 68 68 68 66 66 66 65 65 65 66 69 69 62 64 68 69 68 68 67 66 65 65 65 64 64 64 64 64 62 62 61 61 61 61 61 61
66 67 67 68 67 69 68 68 68 67 66 66 64 64 63 64 65 65 68 66 61 64 66 67 67 67 65 65 64 64 64 63 63 64 63 62 61 61 60 60 60 60 60
66 66 67 66 66 66 65 65 66 66 65 64 62 62 63 62 63 63 65 66 65 59 62 63 64 64 64 64 64 64 64 63 63 63 63 62 61 61 60 60 59 59 59
66 66 67 65 66 66 67 67 66 64 63 63 61 62 62 62 61 61 62 63 64 65 61 59 60 61 62 62 62 63 63 63 62 62 62 61 61 60 59 59 59 59 59
66 67 67 64 65 65 65 65 63 64 62 61 61 60 60 61 60 62 60 60 60 62 64 56 56 57 58 59 59 60 61 61 61 62 62 61 61 60 59 59 59 59 59
66 66 64 63 65 64 63 63 62 61 62 62 61 58 58 59 60 60 59 61 60 59 61 60 62 60 55 56 57 58 59 60 60 60 60 60 60 59 59 58 58 58 58
65 64 64 62 63 64 62 61 60 59 58 59 58 57 56 56 56 58 59 60 58 59 58 60 62 62 61 53 55 56 57 58 58 58 58 58 58 58 58 58 58 58 58
64 63 62 62 62 61 59 59 59 58 58 57 58 57 53 54 55 56 56 56 55 58 58 57 57 57 58 59 55 52 53 55 56 56 57 56 57 57 57 57 57 57 57
63 62 60 61 60 60 59 58 58 57 55 54 55 58 52 52 53 54 53 55 54 56 57 57 55 55 56 56 54 53 50 51 52 54 54 55 55 56 56 56 56 56 56
60 61 60 59 58 58 57 57 58 57 56 54 54 55 55 55 51 49 53 54 54 54 54 56 56 55 54 55 50 48 48 48 48 50 51 52 53 53 54 55 55 55 54
59 59 59 58 57 58 57 55 53 55 55 50 55 54 53 53 51 49 46 50 54 55 55 54 54 54 53 52 53 50 46 46 46 47 48 49 50 51 52 53 53 54 54
57 57 58 57 57 57 53 49 51 51 51 55 56 54 53 52 51 49 47 47 47 51 53 53 53 53 52 52 48 44 45 45 44 45 46 47 48 49 49 50 51 51 52
54 54 56 55 56 55 55 54 52 52 54 54 53 53 54 53 53 51 48 47 45 50 49 52 53 52 51 50 49 44 45 42 42 42 43 44 45 46 46 47 48 49 50
54 55 55 56 54 51 55 55 53 55 53 53 52 52 53 52 51 51 49 46 44 46 47 45 51 50 50 49 46 42 46 42 40 40 41 42 43 43 44 45 46 47 48
54 52 55 55 50 52 51 53 54 53 52 52 52 51 51 52 51 51 50 49 45 39 43 48 45 49 49 48 46 45 45 42 40 40 40 40 41 42 42 43 44 45 45
54 54 54 49 52 52 53 51 51 53 51 52 52 50 50 51 50 50 50 48 47 44 39 48 47 47 47 46 45 43 43 40 40 38 38 39 39 40 41 42 42 42 43
50 51 48 53 51 50 53 52 52 51 50 51 50 50 49 49 49 49 49 48 47 46 41 45 46 46 43 43 43 44 43 42 43 40 38 38 38 39 39 39 40 40 40
51 50 51 50 53 51 52 52 50 51 49 49 50 49 49 49 48 49 48 46 46 46 43 40 44 42 41 42 41 40 41 42 42 40 38 37 37 37 38 38 38 39 39
49 51 53 53 52 52 52 50 48 49 48 49 50 49 49 48 47 48 47 46 46 44 43 40 40 42 40 41 40 40 40 40 41 38 38 37 37 37 37 37 38 38 38
49 52 52 53 51 51 49 46 47 49 48 49 48 47 48 47 47 47 46 45 44 42 42 40 39 39 39 40 38 36 36 39 38 40 39 38 37 38 37 37 37 37 38
48 48 46 48 47 45 45 44 46 48 48 48 47 47 47 46 44 45 46 45 43 41 40 39 37 37 37 37 35 36 34 36 37 40 38 40 40 41 42 40 40 38 37
46 50 46 45 46 46 40 40 42 48 47 46 46 47 47 41 41 38 38 38 42 41 38 38 37 35 36 36 36 34 33 31 30 40 36 36 41 39 41 42 39 37 37
46 45 45 45 44 45 40 40 39 46 46 46 46 47 46 45 42 45 39 37 35 34 36 39 35 36 34 36 35 33 33 33 32 36 35 33 39 38 42 42 39 37 36
43 43 43 46 45 43 39 39 38 45 46 46 46 46 46 46 44 43 42 41 41 40 38 37 38 38 38 38 36 34 33 33 35 37 38 29 37 36 40 41 39 38 36
42 44 46 43 41 40 39 38 38 43 43 44 45 44 44 45 41 37 39 38 38 39 37 35 34 34 33 32 34 35 31 31 28 33 37 33 35 34 37 38 42 38 37
45 43 39 39 39 43 40 37 38 42 40 41 43 42 37 42 37 35 38 36 34 38 38 37 37 36 35 36 33 35 35 29 29 28 37 30 32 32 29 39 39 40 40

GFSMA_sfc_temp_030.txt.gz
Temp
76 78 76 78 78 78 77 76 76 76 74 74 74 73 73 73 73 76 76 62 64 68 69 68 67 67 66 65 65 65 65 64 64 64 64 63 62 61 61 61 60 60 61
76 76 76 77 76 79 78 78 77 76 76 75 72 72 71 72 72 72 76 70 61 64 66 67 67 66 66 65 65 64 64 64 64 64 64 63 62 62 61 61 60 60 60
74 76 78 76 76 77 75 75 74 74 75 75 70 71 73 72 72 71 74 74 69 60 61 63 63 63 64 64 64 63 64 63 63 63 63 63 61 61 61 60 59 59 60
76 76 76 76 76 75 76 75 75 74 74 75 72 74 74 73 70 70 72 73 74 74 61 59 60 61 61 61 62 62 62 62 62 62 62 62 62 61 60 60 59 59 59
76 76 77 74 74 74 74 74 73 74 71 73 73 71 70 70 68 71 68 68 68 71 72 56 57 57 58 59 60 60 61 61 61 61 61 61 61 61 60 60 59 59 59
75 75 75 72 74 74 72 73 70 72 73 72 71 68 68 68 69 68 67 69 68 67 67 65 67 64 56 57 58 58 59 59 59 59 59 59 59 59 59 59 59 59 59
74 74 74 72 73 73 72 70 70 66 68 69 67 65 65 64 63 66 67 67 65 65 65 66 65 66 65 56 55 55 56 57 57 58 57 58 58 58 58 58 58 59 59
75 73 72 72 72 71 68 68 67 67 69 67 65 65 62 63 63 63 65 63 62 64 64 62 61 61 62 63 58 53 53 54 55 55 55 55 56 56 56 57 58 58 58
74 73 71 72 70 70 68 67 67 65 64 65 63 59 60 59 63 64 60 62 60 61 63 62 61 60 60 61 58 58 50 50 51 52 53 53 54 54 54 55 56 56 57
72 73 72 70 68 69 68 67 67 65 64 59 61 64 63 62 58 57 60 60 60 59 60 60 61 60 59 60 56 51 47 47 47 49 50 51 52 52 53 53 54 55 55
67 71 70 68 67 68 66 65 62 61 63 63 61 63 61 61 59 56 54 59 61 61 61 61 60 59 60 59 58 54 46 46 46 47 48 49 50 50 51 51 52 53 53
61 65 67 66 66 66 63 61 56 57 62 61 64 62 61 58 58 56 54 55 56 58 61 59 59 59 59 58 55 44 47 46 45 45 45 46 47 48 48 49 50 50 51
59 62 63 61 58 58 59 58 54 54 59 61 60 61 61 60 60 58 55 54 53 57 57 58 58 59 59 57 56 47 47 46 44 43 43 44 45 45 46 47 47 48 49
55 60 54 57 60 56 57 52 53 56 60 60 59 59 60 60 59 58 56 53 49 53 56 54 59 58 57 57 52 45 51 46 45 43 42 42 43 43 44 44 45 46 47
61 56 53 55 57 55 53 51 56 59 57 58 58 58 58 59 59 58 57 56 50 45 48 54 54 57 56 55 53 52 50 47 44 42 41 41 41 42 42 43 43 44 45
61 59 55 55 50 50 50 54 59 58 58 57 59 58 57 58 58 58 58 56 54 50 45 53 54 55 54 54 52 50 49 46 44 43 42 41 40 40 40 41 41 42 42
61 57 52 48 49 51 56 55 56 58 53 54 57 56 56 57 56 57 57 56 54 53 48 52 55 55 52 50 50 51 50 49 49 44 42 41 39 39 39 39 39 40 41
54 50 49 50 53 58 57 54 56 54 51 50 54 55 55 57 55 56 56 53 53 54 51 47 51 51 51 50 49 47 48 50 49 46 42 40 39 38 38 38 39 39 39
49 50 51 51 53 53 55 53 52 48 47 51 56 55 55 55 54 55 54 53 54 54 52 48 47 50 50 50 48 47 47 47 49 45 43 41 40 40 39 39 39 38 39
52 52 51 53 51 55 56 50 48 48 51 54 53 54 55 55 54 54 54 53 53 51 50 48 47 47 48 49 47 44 44 46 45 47 45 43 40 40 40 40 40 40 39
54 50 50 49 53 51 51 48 48 47 52 53 54 55 55 53 48 49 54 52 52 49 49 47 46 46 46 45 43 45 42 43 44 46 45 45 45 45 46 44 43 41 40
50 47 50 46 48 49 40 40 41 47 51 52 52 53 55 49 47 42 42 42 46 49 46 45 45 43 43 44 45 42 41 38 36 47 42 41 45 44 45 47 42 40 40
47 46 47 48 47 48 41 40 39 45 46 49 51 52 52 55 49 52 42 38 38 37 38 46 44 44 43 44 43 41 40 39 38 42 41 38 44 42 46 48 41 40 40
46 47 47 48 48 49 40 39 38 41 47 50 51 52 51 52 53 51 50 48 46 47 43 43 44 45 46 45 43 42 40 39 41 43 44 36 42 40 44 45 42 41 38
50 48 48 49 46 47 40 39 40 48 48 49 51 51 51 51 46 41 47 46 47 46 42 39 39 37 35 35 36 39 36 35 33 39 43 39 39 38 40 41 44 41 39
49 47 44 42 39 41 41 40 41 46 45 46 48 49 42 44 41 38 45 45 42 45 46 44 41 38 36 39 34 37 39 34 34 34 41 36 38 37 33 40 41 42 41

GFSMA_sfc_temp_033.txt.gz
Temp
77 79 80 80 79 79 78 77 76 77 76 76 76 75 74 74 75 78 71 63 65 69 69 68 68 67 66 66 65 65 65 64 64 64 64 64 63 62 62 61 61 60 61
77 78 76 78 79 80 80 79 78 77 78 76 74 74 73 75 74 74 76 67 62 64 67 67 67 67 66 65 65 64 64 64 64 64 64 63 63 62 62 61 60 60 60
77 77 79 78 79 80 79 77 77 77 77 77 73 73 74 73 73 73 75 73 67 60 62 63 64 64 64 64 64 63 63 63 63 63 63 63 63 62 62 61 60 60 60
78 77 79 78 79 77 77 77 76 75 75 75 74 74 74 73 71 71 73 73 74 70 61 60 61 61 61 61 61 62 62 61 61 61 61 61 61 61 61 61 60 60 60
79 78 79 78 77 77 76 76 75 75 72 73 73 73 72 72 71 74 70 69 69 70 70 59 59 59 59 59 59 60 61 60 60 60 60 60 60 60 60 59 59 60 60
78 77 79 76 75 76 75 75 73 73 73 73 74 71 70 70 70 69 68 70 69 67 67 67 65 62 58 58 58 58 58 59 59 58 58 58 58 58 58 58 58 59 59
78 76 78 74 74 75 74 73 72 69 69 70 68 69 69 67 66 68 68 68 68 67 66 65 65 66 62 57 57 56 56 57 57 57 57 56 56 56 56 57 57 58 59
78 76 76 74 73 75 72 70 70 69 70 69 67 66 62 63 65 65 67 66 64 65 65 64 63 62 62 63 59 56 54 54 54 54 55 54 54 54 55 55 56 56 57
77 77 75 74 73 74 70 69 68 68 67 67 67 63 60 60 64 66 63 64 63 63 63 64 63 62 61 61 59 58 51 50 50 52 52 53 53 53 53 54 54 55 56
74 77 76 74 73 73 71 69 70 68 66 65 67 66 65 63 58 58 64 62 62 61 61 62 62 62 62 61 59 52 49 47 47 49 50 51 51 51 52 52 52 53 54
74 75 75 72 71 70 70 68 67 65 64 59 59 57 63 63 61 57 54 60 62 63 63 62 62 61 61 61 60 50 47 47 47 48 48 49 49 50 50 50 51 51 52
71 71 72 68 66 63 66 67 65 60 56 59 56 60 62 60 60 59 56 57 58 62 64 63 60 60 61 60 59 49 48 47 47 47 47 47 47 48 48 49 49 50 51
63 61 61 60 58 58 53 53 54 53 53 54 58 61 64 62 62 61 58 56 54 59 60 61 61 60 61 60 58 49 50 47 47 47 47 46 46 46 46 47 47 48 49
55 56 55 59 58 54 55 55 52 50 52 54 58 61 61 60 62 60 57 54 50 53 56 56 62 61 60 60 54 49 53 49 47 46 44 44 44 44 44 44 45 46 47
60 59 62 60 56 54 51 49 49 52 50 57 59 58 58 59 61 61 59 57 52 45 48 55 55 60 60 59 55 55 53 50 47 45 44 44 44 43 43 43 43 43 44
61 62 60 57 57 54 49 50 49 50 54 54 58 55 56 59 59 59 59 58 56 51 46 54 56 57 58 58 56 54 52 49 47 45 44 44 43 43 42 41 41 42 42
62 63 59 58 54 50 48 49 51 55 56 57 54 53 55 58 58 58 58 57 55 54 49 53 56 57 55 54 55 54 53 51 51 47 45 43 42 41 41 40 40 40 41
63 61 61 56 51 49 50 52 51 54 56 52 49 51 54 58 56 56 55 54 54 54 51 48 53 53 53 54 53 51 51 52 50 49 46 43 43 42 41 40 40 40 40
57 56 53 50 49 49 51 51 54 56 51 49 49 52 55 56 54 55 55 54 54 54 54 50 49 53 53 53 51 51 50 49 51 49 45 43 42 42 41 41 41 40 40
52 50 50 49 48 51 53 53 51 50 48 48 49 53 55 55 54 54 54 53 53 52 51 50 49 50 51 52 51 47 46 49 47 50 48 45 44 44 43 42 41 41 41
55 53 49 49 49 51 52 51 49 47 47 47 50 54 54 53 48 48 53 52 52 50 49 49 48 48 48 48 46 48 45 45 46 47 46 46 46 46 47 45 46 43 42
56 53 51 53 49 50 41 41 46 49 46 46 47 50 53 49 50 43 44 43 47 49 47 47 47 46 47 47 48 45 44 41 37 47 43 42 46 44 46 47 43 41 40
54 50 48 47 47 48 40 40 39 45 43 43 43 45 49 53 50 55 49 41 41 40 40 46 46 46 46 47 46 43 42 41 40 43 42 39 45 43 46 48 43 41 41
51 51 51 52 53 52 41 40 38 41 40 42 46 50 51 52 53 51 52 51 52 51 48 46 46 48 49 48 47 45 43 41 41 43 44 37 43 41 44 45 42 42 41
53 52 53 52 50 49 40 39 39 42 47 48 50 51 51 51 47 44 47 46 48 49 47 42 42 41 37 37 38 43 38 36 34 38 44 40 40 39 41 41 43 37 39
50 51 47 46 42 45 43 39 41 45 44 45 47 49 43 45 41 40 44 44 42 47 46 46 44 40 38 39 34 39 39 34 34 34 42 38 38 38 34 40 41 41 42

GFSMA_sfc_temp_036.txt.gz
Temp
67 68 68 69 68 68 68 67 66 66 66 67 66 66 66 65 65 64 59 64 65 68 69 69 68 67 66 66 65 65 65 64 64 64 64 63 63 63 62 62 61 61 61
69 69 69 69 69 69 69 67 66 66 65 65 65 65 65 64 65 63 61 58 63 65 67 67 67 67 66 65 64 64 64 64 63 63 63 63 63 63 62 62 61 61 61
69 69 68 68 68 69 69 66 67 65 64 66 64 64 64 64 63 64 61 60 58 61 63 64 64 64 64 64 63 63 63 62 62 62 62 62 61 61 61 61 61 61 61
71 69 68 68 69 67 67 65 64 63 63 63 61 61 62 63 63 63 63 61 60 59 60 61 62 62 62 62 62 62 62 61 61 61 61 60 60 60 60 60 60 60 60
72 69 70 68 68 67 65 66 64 63 61 61 62 60 60 60 61 66 61 61 59 58 56 59 60 60 60 61 60 60 60 60 60 59 59 59 59 58 58 58 58 59 59
71 69 70 68 67 65 64 64 63 62 61 60 69 64 59 59 59 58 59 62 59 59 58 55 52 54 59 59 59 59 59 59 59 58 58 58 57 57 57 57 57 57 58
71 69 68 66 65 64 64 63 61 60 58 59 57 57 57 58 57 57 57 57 58 58 57 56 54 52 53 58 58 58 58 57 57 57 56 56 55 55 55 55 56 56 57
71 69 67 66 65 64 63 61 60 57 58 58 54 54 50 52 54 56 55 57 54 56 57 57 55 55 52 50 51 57 57 56 55 54 54 54 54 54 54 54 54 55 55
72 70 67 66 64 63 61 60 59 58 55 55 57 52 48 48 51 53 53 53 52 52 53 55 55 55 54 51 53 53 54 52 52 52 52 53 53 53 53 53 53 53 54
69 69 68 66 65 64 62 59 61 58 56 53 55 59 56 55 49 46 50 51 53 54 51 51 52 54 54 51 54 51 50 49 49 49 50 51 51 51 51 52 52 52 52
68 66 67 65 64 63 61 61 60 58 57 53 51 50 52 53 52 48 45 50 50 51 51 51 50 50 54 52 48 48 48 47 48 48 50 50 50 50 50 50 51 51 51
67 65 66 63 58 56 54 53 54 56 54 53 51 51 50 50 50 47 46 46 47 50 52 50 49 49 50 49 55 49 48 47 47 48 49 49 49 49 49 49 49 49 50
63 60 58 56 55 54 53 52 53 52 51 50 50 50 51 54 55 52 49 45 44 48 49 50 49 49 53 48 47 48 48 47 47 48 48 48 48 48 47 47 47 48 48
60 57 56 55 54 53 53 53 51 49 49 48 48 49 52 54 53 52 50 45 40 43 45 47 50 48 48 48 45 50 46 48 47 47 46 46 47 47 46 46 46 46 46
58 56 55 54 54 53 52 50 49 48 48 48 48 50 52 52 52 52 50 49 44 36 38 44 44 50 49 47 47 45 45 50 48 46 45 46 47 46 46 45 45 45 45
57 56 55 55 53 52 51 50 48 49 48 48 50 51 51 51 50 50 50 48 46 41 36 44 45 47 49 53 48 45 45 50 48 46 45 45 45 45 45 45 44 44 43
57 57 56 54 53 52 51 49 48 48 48 49 49 48 49 50 51 50 48 47 46 45 41 41 45 46 45 44 46 45 45 43 42 47 46 45 44 43 43 43 43 43 42
58 57 57 55 54 51 50 48 48 50 48 47 47 47 47 51 49 51 49 46 44 45 41 37 41 42 43 44 43 42 46 49 43 48 46 45 44 43 42 42 42 42 41
55 55 54 53 50 48 48 48 49 47 47 47 46 46 47 47 48 48 46 45 44 49 43 40 40 41 41 41 41 42 41 40 46 49 46 45 44 44 43 42 42 42 42
50 49 49 49 48 48 49 49 48 47 46 46 46 47 47 48 46 46 47 47 47 43 45 43 43 42 39 41 39 37 35 37 37 47 46 44 44 44 44 43 43 43 43
50 49 48 47 47 48 49 48 47 45 45 45 45 48 48 48 45 45 47 44 43 42 42 40 39 40 41 37 35 36 34 34 35 37 35 36 35 35 37 42 44 44 43
52 49 47 46 46 49 42 44 45 46 46 45 42 45 46 45 45 43 43 43 44 42 41 40 41 39 40 38 36 34 34 31 29 35 33 32 35 34 36 36 43 42 41
49 47 47 46 45 44 41 41 40 42 41 40 41 42 43 46 44 46 44 42 39 39 40 41 40 40 39 41 36 34 33 33 30 32 32 29 32 34 36 44 42 42 41
46 45 46 46 46 47 40 40 38 39 39 41 41 41 41 42 44 43 42 40 42 43 44 43 39 40 41 42 39 38 35 33 32 32 33 28 31 30 33 35 42 42 40
48 48 49 48 48 43 40 39 39 39 41 41 44 43 41 40 38 38 36 34 36 39 45 43 42 42 41 41 38 36 32 26 22 28 32 30 31 29 30 29 32 41 39
48 48 45 43 41 43 40 38 39 35 33 31 35 38 37 37 37 37 33 32 31 33 35 36 37 40 37 35 37 38 35 28 25 23 31 29 29 27 22 30 30 31 30

GFSMA_sfc_temp_042.txt.gz
Temp
61 60 61 61 60 60 60 60 60 62 62 62 61 60 58 57 57 57 56 65 67 69 69 69 68 67 67 66 65 65 64 64 64 63 63 62 62 61 61 61 61 61 61
61 61 60 60 60 60 60 61 61 60 60 60 60 60 58 57 57 56 56 58 64 66 68 69 68 68 67 65 64 64 63 63 62 62 62 61 61 60 60 60 60 60 60
61 61 60 59 60 61 61 61 60 59 58 60 59 59 58 57 56 56 56 55 58 63 65 67 67 67 66 65 64 63 62 62 62 61 60 60 59 59 59 58 58 59 59
63 61 62 61 61 61 61 60 59 57 57 57 56 55 56 57 56 55 55 54 55 57 61 64 65 65 65 64 64 63 62 61 61 60 59 59 58 58 57 57 57 57 58
64 62 62 61 61 60 59 60 57 57 55 54 55 54 53 54 55 58 55 54 53 53 53 61 62 62 63 63 63 63 62 61 60 59 59 58 57 57 56 56 56 56 57
64 62 62 62 61 60 58 58 57 56 55 55 61 57 51 52 52 51 53 55 52 52 52 53 53 54 60 62 62 62 62 61 60 59 58 57 56 56 55 55 55 55 56
64 61 61 60 60 62 61 59 56 55 52 52 51 50 50 50 50 50 50 51 51 52 50 50 49 48 52 60 61 62 62 61 60 58 57 55 55 55 55 55 55 55 55
63 62 61 60 61 59 58 56 56 52 52 51 50 47 46 48 48 50 49 50 50 54 52 51 49 49 48 49 51 61 61 61 60 58 56 55 54 54 54 54 54 54 54
63 63 61 60 60 60 58 56 55 55 52 49 51 50 43 44 46 47 49 49 51 48 49 50 50 50 50 47 52 56 58 58 59 58 56 54 54 54 53 53 53 53 53
63 63 61 60 59 59 56 56 55 53 54 52 53 56 53 51 47 45 47 51 51 50 47 46 48 49 50 46 50 51 54 54 56 57 56 55 54 53 53 53 53 53 53
63 62 61 59 59 58 56 55 53 53 53 52 51 50 51 51 51 47 44 49 49 49 49 47 47 47 49 46 45 47 52 52 53 55 55 55 54 53 53 53 52 52 51
61 60 61 60 59 58 56 55 54 52 51 51 51 51 51 49 48 47 45 46 46 49 46 45 44 45 45 46 49 50 51 50 51 53 53 53 54 53 53 53 52 51 51
57 59 61 59 58 57 56 55 53 53 50 50 50 51 51 50 49 50 48 47 44 46 44 45 45 46 49 44 45 50 51 48 49 51 52 52 52 52 52 52 51 51 50
62 60 60 60 59 55 54 55 53 52 50 50 50 50 50 50 50 50 48 46 41 41 41 46 46 43 43 43 43 49 47 47 47 48 49 50 51 51 51 50 50 50 50
62 60 58 56 55 54 54 52 51 50 50 50 50 50 49 49 49 49 49 47 43 38 39 42 44 47 44 43 43 44 42 48 46 46 47 48 49 50 50 50 50 49 49
57 56 55 54 53 52 51 51 50 50 50 50 50 48 48 48 48 48 47 45 45 42 37 38 41 42 44 47 44 42 42 46 46 46 45 46 47 48 48 49 49 49 48
57 55 54 53 52 51 51 50 50 49 49 48 48 48 47 48 46 46 46 46 45 43 40 38 38 41 39 40 42 41 41 41 43 46 45 45 45 45 46 46 47 47 47
57 56 54 54 53 51 51 49 48 49 48 47 46 46 46 49 46 46 45 44 44 44 42 40 37 36 37 39 39 37 43 45 43 45 46 45 45 44 44 44 44 44 44
58 55 55 53 51 51 49 48 49 48 48 47 46 46 46 45 44 44 43 43 43 43 39 34 39 36 36 37 39 41 40 42 46 47 45 44 45 45 45 44 44 43 43
54 54 53 52 50 49 49 49 48 47 46 46 46 46 46 46 44 43 43 41 42 39 39 39 39 38 37 40 37 40 41 42 41 45 46 45 45 45 44 44 43 43 43
52 52 51 50 48 48 48 47 47 45 45 44 45 46 46 46 43 42 42 41 39 39 39 38 37 36 39 38 36 37 37 39 39 36 39 38 39 40 42 43 43 43 42
49 48 47 46 46 47 41 42 45 45 45 44 43 43 43 43 43 39 38 38 36 32 30 29 30 31 32 32 34 33 35 35 33 39 33 35 36 36 37 36 40 40 41
46 45 44 45 44 44 41 41 41 44 42 41 39 40 41 42 39 38 35 35 34 36 35 30 28 29 30 32 35 34 34 34 33 37 30 34 29 34 35 39 39 39 41
43 40 39 40 41 41 39 39 38 38 36 38 39 38 37 36 35 33 31 29 30 31 31 33 29 30 30 32 32 32 31 32 35 37 33 32 37 34 36 37 39 41 41
40 39 40 39 39 38 39 38 37 35 35 34 36 37 35 31 35 35 30 28 28 29 34 35 35 35 35 35 35 32 28 28 26 31 33 32 34 33 29 31 31 38 40
40 41 39 38 37 36 37 38 38 35 32 31 31 31 33 31 33 33 28 26 25 26 27 28 29 30 32 32 34 32 30 28 29 28 31 29 32 28 26 27 27 28 29

GFSMA_sfc_temp_045.txt.gz
Temp
59 58 58 59 59 58 58 58 58 59 58 58 58 59 57 56 57 57 57 65 67 69 69 69 69 68 67 65 65 65 64 64 63 63 62 61 61 61 61 60 60 60 60
60 59 57 58 57 58 58 58 58 57 57 58 57 57 57 57 57 57 57 58 64 66 68 69 68 68 67 65 65 64 63 63 62 62 61 60 60 59 59 59 59 59 59
59 59 57 57 59 58 58 57 56 56 56 58 57 56 57 56 56 56 56 56 60 63 65 67 68 67 67 66 64 63 63 62 62 61 60 59 59 58 58 58 58 58 58
62 59 59 58 58 58 58 58 56 54 54 55 54 54 53 55 54 54 54 54 55 57 62 64 65 66 66 65 64 63 62 61 61 60 59 58 58 57 57 57 57 57 57
63 60 60 59 59 58 58 59 55 55 53 52 54 52 52 52 52 56 53 53 53 54 54 62 63 63 64 65 64 64 63 62 61 60 59 58 57 56 56 56 56 56 56
62 60 59 59 60 59 57 57 56 54 53 52 58 54 50 50 50 50 51 54 52 52 52 53 54 55 61 63 63 64 63 62 61 60 59 57 56 56 55 55 56 56 55
61 59 58 58 58 59 59 58 54 54 51 52 51 49 49 49 49 49 49 49 50 51 50 51 49 49 53 61 62 63 64 63 62 61 59 58 56 55 55 55 55 55 55
61 60 59 58 58 58 56 55 55 52 52 50 49 47 46 48 47 51 49 49 48 49 50 50 50 49 48 49 52 62 63 63 62 61 59 58 56 55 55 54 54 54 54
60 60 59 59 58 57 56 55 53 54 50 49 50 52 43 45 49 51 50 50 50 49 52 53 51 49 47 47 52 56 59 59 61 61 60 58 56 55 55 54 54 54 54
60 61 60 59 58 57 55 56 55 53 53 49 52 53 54 51 48 48 47 50 51 52 50 49 50 48 48 47 50 51 53 55 58 60 60 58 57 56 55 55 54 54 54
59 60 60 59 58 57 56 55 53 53 51 50 50 50 50 50 50 48 44 49 49 50 50 50 51 50 48 47 45 49 52 52 54 58 59 59 58 57 56 55 54 54 54
57 58 59 59 58 56 56 56 56 53 53 51 50 50 49 49 47 47 43 43 47 50 51 50 48 48 45 45 50 51 51 51 52 55 57 58 57 57 56 56 55 54 54
56 58 58 57 57 58 57 56 54 54 53 52 51 53 52 52 51 50 48 43 45 47 44 47 44 43 47 46 48 51 52 49 50 52 54 55 56 56 56 55 55 54 53
59 58 58 59 60 58 55 55 54 54 53 52 50 52 52 51 51 50 49 46 42 42 43 44 44 43 46 47 47 49 49 49 49 50 51 52 53 53 53 54 53 53 52
60 58 58 59 59 58 57 55 54 52 52 52 52 52 52 50 50 49 49 47 43 38 40 45 44 47 47 43 43 42 42 47 48 47 48 49 51 51 52 52 52 52 51
57 56 56 56 56 55 55 54 53 52 52 50 50 50 50 49 47 48 46 46 44 42 37 43 44 41 43 46 44 41 41 47 47 46 46 47 48 49 50 50 50 50 50
56 57 56 55 54 54 51 51 50 49 51 49 49 50 48 48 46 46 45 45 44 43 39 42 43 43 41 39 41 40 40 39 40 45 45 45 46 46 47 48 48 48 49
58 57 56 54 52 51 51 51 49 49 49 48 48 47 46 47 45 45 45 44 43 43 41 39 41 40 40 39 38 37 41 43 39 44 44 45 45 45 45 45 45 45 45
59 59 58 56 54 53 51 50 50 49 48 48 47 46 46 46 44 43 43 43 43 44 40 37 38 36 35 35 36 37 37 37 42 46 44 44 44 45 45 45 44 44 44
59 59 56 55 53 51 51 49 48 47 47 47 46 47 46 45 44 43 43 41 41 38 38 37 38 37 36 36 37 38 39 40 40 44 45 45 45 45 44 45 44 44 44
58 55 53 52 50 49 49 48 47 46 45 45 45 46 45 45 42 41 42 38 37 34 33 32 31 33 30 30 30 32 34 35 37 36 38 39 38 40 41 43 44 44 44
51 52 50 48 47 48 44 42 45 45 45 44 43 43 43 41 39 38 38 37 34 30 27 26 27 26 26 27 29 30 30 30 29 38 35 36 37 38 38 39 42 42 43
47 47 46 47 46 44 41 41 41 44 43 42 41 41 41 40 38 36 35 34 33 34 34 28 24 24 24 26 27 27 27 27 27 31 31 29 35 34 37 39 41 41 42
45 44 44 44 44 43 40 39 39 40 40 40 39 38 36 35 35 34 32 30 29 30 30 31 27 26 27 29 28 29 29 30 31 32 31 27 32 32 37 36 39 40 40
42 42 43 42 42 40 38 38 38 38 36 35 36 35 34 33 34 35 30 28 28 29 33 34 34 33 34 34 33 30 29 27 26 28 31 28 31 31 33 31 31 40 40
39 39 36 36 37 36 38 38 36 33 31 30 32 32 33 32 32 32 27 26 25 26 26 26 26 28 29 29 32 29 27 22 23 22 28 27 29 31 29 24 28 32 32

GFSMA_sfc_temp_048.txt.gz
Temp
61 59 58 57 57 58 58 57 58 57 55 56 57 57 57 57 58 58 59 65 67 69 69 69 68 67 66 66 65 65 64 64 64 63 62 61 61 60 60 60 59 59 59
60 59 56 58 57 58 57 58 59 56 55 57 56 57 57 56 57 57 58 61 64 66 68 69 68 68 67 66 65 65 64 63 63 62 61 60 60 59 59 58 58 58 58
60 58 56 57 57 56 58 57 56 55 54 57 56 56 56 56 56 57 57 58 60 63 65 67 68 68 67 66 65 64 63 62 62 61 60 60 59 58 58 57 57 57 57
60 58 58 57 56 56 57 57 56 54 54 54 54 54 54 55 55 55 56 57 58 60 62 65 66 67 67 66 65 64 63 62 62 61 60 59 58 57 57 57 57 57 57
61 60 59 58 58 57 57 58 55 55 54 53 53 52 52 52 53 56 55 55 56 57 57 62 63 64 65 66 65 64 64 62 62 61 60 59 58 57 56 56 56 56 56
62 60 60 58 58 57 56 57 55 54 54 53 57 53 49 50 51 52 53 55 54 54 55 56 58 58 62 64 65 65 65 64 62 61 60 59 58 57 56 56 56 56 56
61 59 59 58 58 57 56 55 54 53 51 51 51 50 50 50 50 50 50 51 53 53 53 53 54 54 57 62 64 65 65 65 64 62 61 59 58 57 56 55 55 55 55
61 60 57 57 56 55 55 53 54 51 52 51 50 48 47 49 48 49 48 50 50 52 52 53 53 53 53 55 55 63 64 65 64 63 62 60 59 57 56 56 55 55 55
60 59 59 57 57 56 54 53 53 53 50 49 50 51 46 47 49 50 48 49 48 48 53 53 53 53 52 52 55 57 59 60 63 64 62 61 59 58 57 56 56 55 55
58 59 58 57 57 55 55 54 54 52 51 49 49 52 52 52 48 47 47 48 49 51 51 51 52 52 52 50 52 53 53 55 58 62 62 62 60 59 58 57 56 56 55
58 58 58 57 56 55 55 54 52 51 50 49 51 50 51 51 51 50 48 47 48 49 51 49 51 51 52 51 50 51 52 52 54 58 61 62 61 60 59 58 57 57 56
54 56 57 57 57 56 55 55 54 52 53 52 53 52 51 50 49 47 47 47 48 49 50 49 49 50 50 49 51 51 51 51 52 55 58 60 60 60 59 59 58 57 57
54 54 55 55 55 55 55 55 54 54 53 53 53 52 53 53 52 51 49 46 46 48 48 49 48 48 48 46 47 51 52 49 50 52 55 56 58 58 59 58 58 58 58
54 55 55 56 56 56 55 54 54 55 54 53 53 52 53 54 52 51 50 47 42 43 44 47 48 47 46 47 48 49 49 49 49 49 51 53 54 55 56 56 57 57 57
55 56 56 55 55 56 56 55 55 54 54 54 52 53 53 53 52 51 49 49 47 40 41 44 46 48 49 47 47 45 45 47 47 47 48 49 51 53 53 54 54 54 55
56 56 56 56 57 57 57 56 57 57 56 54 53 51 51 51 50 49 48 46 45 44 40 45 44 46 47 47 47 46 44 46 46 46 46 46 48 49 51 51 52 52 53
57 57 57 57 57 57 57 56 55 52 52 53 52 51 50 50 48 47 45 45 44 43 40 43 44 45 44 45 45 44 44 42 43 44 45 45 45 45 46 48 48 49 50
58 58 58 57 58 57 54 53 52 51 51 50 50 50 48 49 46 46 45 44 44 44 42 39 41 41 42 44 41 39 43 44 42 43 44 44 44 44 44 44 45 45 46
59 59 59 57 57 53 51 51 51 51 50 50 49 48 47 46 44 44 44 43 43 44 41 38 38 39 38 38 38 39 39 40 42 45 44 43 44 44 44 44 44 44 45
58 59 59 58 58 53 51 50 50 49 48 48 47 48 47 46 44 44 43 42 41 39 39 37 38 39 36 37 36 35 35 37 37 42 43 42 43 44 44 44 44 44 44
58 60 58 56 53 52 50 49 49 48 47 45 46 46 46 45 43 43 42 39 39 37 36 34 33 32 31 31 30 32 30 32 33 36 37 39 39 40 40 41 43 43 43
59 58 56 52 50 50 44 44 46 47 46 45 43 43 43 41 39 38 38 37 37 34 32 31 29 28 28 28 29 28 28 28 28 34 32 32 36 35 37 38 40 40 41
53 52 50 49 48 48 42 42 43 45 44 43 42 41 40 39 37 36 35 35 35 35 34 30 27 27 27 28 28 26 27 27 27 32 32 29 34 32 36 39 39 40 40
50 47 47 46 45 44 40 40 39 42 40 40 41 39 36 35 35 34 33 33 31 31 31 32 29 29 29 30 29 30 30 30 31 33 33 27 33 32 35 37 38 39 40
46 45 44 44 42 40 38 38 39 38 36 34 35 35 34 33 34 35 32 30 29 30 33 33 33 32 32 32 31 29 27 24 22 27 31 27 29 30 32 32 36 38 37
40 40 37 38 38 37 37 37 37 35 32 31 31 32 33 33 33 33 29 29 28 28 28 28 28 28 29 29 30 29 27 21 21 20 29 24 26 26 25 33 32 32 33

GFSMA_sfc_temp_051.txt.gz
Temp
69 71 70 71 71 70 71 70 70 70 69 69 70 69 69 70 70 73 73 66 67 69 70 70 69 68 67 66 66 65 65 65 64 63 62 61 61 60 60 60 60 60 60
67 70 69 70 69 71 71 70 70 70 70 70 68 69 69 70 70 70 72 71 65 67 68 69 69 68 67 66 66 65 64 64 63 62 62 61 60 59 59 59 59 59 59
67 68 69 69 70 70 69 69 67 68 68 69 68 68 68 68 68 68 70 71 70 64 66 68 68 68 67 66 65 65 64 63 63 62 61 60 59 59 58 58 58 58 58
68 67 68 69 70 69 69 69 68 67 68 68 66 67 67 68 67 67 69 71 72 73 66 65 67 67 67 66 66 65 64 63 63 62 61 60 59 58 58 57 57 57 57
68 69 70 69 67 68 67 67 66 67 65 66 66 67 67 68 66 68 68 69 69 70 70 64 64 64 66 66 66 65 64 63 63 62 61 60 59 58 57 57 57 57 57
68 68 68 67 68 68 67 68 66 67 67 66 68 64 63 66 67 67 68 66 66 67 68 69 70 69 62 65 66 66 66 64 63 62 61 61 59 58 57 57 57 57 56
69 68 69 67 67 67 68 66 66 65 64 64 64 64 64 63 63 65 65 66 64 66 67 68 69 71 64 63 64 66 66 66 65 64 62 61 60 59 58 57 57 57 56
68 67 67 67 66 66 65 64 65 65 66 64 65 64 61 62 62 63 63 63 63 65 67 66 67 62 66 66 63 64 65 66 66 65 63 62 61 59 58 58 57 57 57
70 69 68 67 64 66 66 65 65 65 65 63 64 66 59 60 64 65 63 61 59 64 66 66 65 64 64 61 61 61 59 61 64 65 64 63 62 61 59 59 58 57 57
66 68 69 67 65 66 65 66 66 66 66 64 63 64 64 65 61 57 59 62 63 61 62 62 64 64 63 64 59 57 55 55 58 62 64 64 63 62 61 59 59 58 58
66 67 67 67 67 66 66 65 63 62 63 65 62 62 61 59 57 51 55 54 55 63 64 61 58 64 63 62 63 58 53 52 54 58 61 63 63 63 62 61 60 59 58
64 65 66 66 67 66 65 65 64 63 62 62 63 63 62 54 51 50 49 57 53 63 56 56 59 59 62 60 55 53 52 50 52 55 57 59 61 62 62 62 61 60 59
62 63 64 64 65 66 66 65 64 63 62 61 62 61 61 59 55 54 55 54 55 53 54 57 56 55 55 56 54 52 53 49 50 52 54 56 57 59 60 61 61 61 60
64 64 64 65 66 65 66 65 64 64 63 62 61 60 55 55 54 55 56 51 45 51 47 55 53 49 51 53 52 50 55 49 48 49 50 51 53 55 56 57 58 59 59
64 64 64 64 64 65 65 64 63 62 61 61 59 57 54 55 55 57 56 54 54 45 44 47 48 52 51 53 56 56 50 49 48 47 47 48 50 51 52 53 54 55 56
63 64 65 65 65 64 64 63 62 62 61 57 58 55 54 56 57 54 53 53 52 51 46 50 49 49 52 55 53 53 53 48 47 46 45 46 47 48 49 50 50 51 52
62 63 64 64 64 64 64 62 63 62 56 57 57 55 55 55 52 52 51 49 48 48 46 45 49 48 50 53 51 52 53 55 56 46 45 45 45 45 46 46 46 47 48
61 62 63 64 64 64 64 61 59 56 55 54 54 52 53 51 51 50 49 46 46 48 45 43 48 46 45 47 48 51 53 54 54 49 45 44 44 44 44 44 44 44 45
63 64 63 62 63 61 62 60 60 55 53 55 56 53 52 50 48 47 46 46 45 45 44 42 42 43 44 45 50 51 50 50 52 47 45 44 44 44 44 44 44 44 44
64 65 64 64 63 62 61 58 57 58 57 56 55 51 50 49 48 45 44 44 43 41 41 41 41 41 43 48 47 46 45 47 46 48 46 43 43 43 43 43 43 43 43
64 65 64 64 64 62 57 56 55 53 53 51 50 48 48 47 44 45 45 43 42 40 40 38 38 37 42 41 43 44 41 43 43 44 44 45 46 46 46 44 44 43 42
64 63 63 62 60 57 48 46 50 52 52 47 45 44 44 42 40 39 39 39 43 39 36 35 38 40 42 40 42 39 38 37 37 46 41 41 45 44 45 46 42 39 39
64 62 61 59 56 55 44 44 43 48 47 46 43 41 41 40 39 38 35 35 35 35 37 39 39 39 37 40 38 36 37 37 37 41 39 38 44 41 45 46 41 40 39
59 56 53 51 49 47 41 41 41 44 43 43 43 41 39 37 37 35 34 34 34 35 35 38 39 39 40 39 37 37 36 36 38 41 41 34 41 38 42 43 39 39 38
47 46 46 45 44 41 39 38 40 39 37 36 37 37 36 35 35 36 34 33 33 33 35 33 33 32 32 32 33 35 34 32 30 35 38 34 37 36 37 37 42 39 37
41 40 38 39 38 38 37 38 38 36 33 32 33 33 33 32 32 33 33 34 32 34 34 35 36 34 33 34 30 34 34 28 29 30 37 31 33 33 29 38 38 38 40

GFSMA_sfc_temp_054.txt.gz
Temp
75 78 79 80 80 81 79 78 79 78 77 77 77 76 77 77 78 80 77 66 67 69 70 70 69 68 67 67 66 66 65 65 64 63 63 62 61 61 61 60 60 60 60
74 76 77 79 80 80 80 80 79 78 78 78 76 76 76 77 77 78 79 74 65 67 69 69 69 69 68 67 66 65 65 65 64 63 62 61 61 60 60 60 59 59 59
71 72 77 78 79 80 79 79 78 79 79 78 76 76 76 76 77 76 78 78 72 64 66 68 68 68 68 67 66 65 65 64 63 63 62 61 60 60 59 59 59 58 58
71 73 77 78 79 78 78 78 77 76 77 77 76 76 76 76 75 75 77 78 77 76 66 66 67 67 67 67 66 66 65 64 63 63 62 61 60 59 59 58 58 58 58
73 75 76 76 76 78 77 77 76 76 75 76 76 75 75 76 74 76 75 75 75 77 78 65 64 65 66 67 67 66 65 64 64 63 62 61 60 59 59 58 58 58 57
73 75 76 75 77 77 76 75 74 75 75 76 76 74 74 75 76 75 74 76 76 75 76 75 72 70 63 65 66 67 67 65 65 63 63 61 61 60 59 58 58 58 58
73 75 76 74 76 76 76 73 74 71 73 74 72 71 72 72 72 74 75 75 74 74 74 74 75 76 71 63 65 67 67 67 65 65 63 62 61 60 60 59 59 58 58
74 74 75 74 75 76 74 72 72 71 74 72 71 72 67 70 72 72 74 73 71 72 73 72 74 74 76 74 69 65 66 67 67 66 64 63 62 61 60 60 59 58 58
76 76 74 75 74 75 73 71 71 71 71 71 72 72 67 65 73 74 70 73 71 71 71 74 73 74 73 74 70 66 61 61 65 67 66 64 63 62 61 60 60 59 59
73 75 74 73 73 74 73 73 73 72 72 70 71 73 73 74 69 66 72 71 64 67 69 73 74 72 72 72 68 63 57 57 59 63 65 65 65 63 63 62 61 60 60
73 74 74 73 73 74 72 72 71 70 73 70 71 72 70 71 70 67 65 68 65 61 64 70 72 72 69 72 72 66 55 53 55 59 61 63 64 65 64 63 62 61 61
68 70 73 72 71 72 72 71 72 70 70 71 70 72 70 69 68 67 65 66 62 56 55 61 64 68 67 71 66 57 53 51 52 55 58 59 61 62 63 63 63 63 61
62 64 68 70 70 70 72 73 71 71 70 69 69 69 71 71 70 69 65 58 59 56 54 57 65 62 68 64 64 55 54 50 50 51 53 55 57 58 59 60 61 62 62
71 67 70 71 71 72 72 72 72 72 71 70 69 70 71 71 68 63 55 52 47 50 51 57 62 58 54 56 55 52 57 49 49 49 50 51 52 53 54 55 56 57 58
74 72 71 70 71 71 71 71 71 70 71 70 70 70 69 68 66 61 59 54 51 49 49 51 52 53 53 54 51 53 57 52 49 48 48 49 50 51 51 52 52 53 54
72 71 70 69 71 71 71 70 70 71 71 71 70 68 66 65 60 58 55 55 54 51 49 52 54 54 51 54 49 54 56 52 49 47 46 46 47 48 49 49 50 50 51
71 71 71 71 70 71 71 71 70 71 69 69 67 65 63 63 59 56 55 53 51 51 49 46 50 50 48 49 50 51 56 59 59 47 46 45 45 45 46 46 47 47 48
70 71 71 71 71 73 73 71 69 69 69 67 66 62 59 55 54 54 53 52 51 50 49 45 47 45 47 47 49 50 53 58 61 51 47 45 45 44 44 44 44 44 45
70 70 70 70 69 71 70 68 65 69 68 67 65 59 57 57 54 54 51 49 48 47 48 44 44 44 48 45 48 50 53 58 59 51 46 44 44 44 44 44 43 43 43
69 69 70 70 70 70 69 69 68 67 67 66 65 61 62 59 55 50 48 47 46 44 43 42 44 42 44 45 47 46 48 55 54 57 51 46 44 45 44 43 43 43 43
69 70 70 70 70 70 70 69 69 67 65 61 58 59 61 55 47 48 47 45 44 42 41 41 41 43 42 42 41 48 48 51 52 52 51 52 52 52 51 46 45 44 43
69 69 69 69 69 69 53 48 56 61 60 57 51 50 50 46 43 41 42 42 44 43 43 43 43 39 40 43 45 45 47 45 44 54 48 48 50 49 51 52 45 42 41
69 69 69 69 68 69 45 45 45 60 54 52 48 45 43 42 41 39 37 36 36 36 40 44 41 41 42 45 45 45 44 44 44 48 47 43 49 47 51 52 43 41 40
68 67 66 65 63 64 45 44 42 49 46 45 44 43 40 39 39 37 37 36 37 37 37 39 40 42 42 44 44 44 42 42 43 45 47 39 47 45 48 48 43 42 40
63 57 55 53 51 46 42 40 42 42 39 38 39 39 38 35 35 37 35 34 33 33 33 34 33 33 33 32 34 40 38 37 35 41 46 41 43 42 43 43 46 41 39
43 41 39 40 39 39 38 39 40 37 34 32 32 33 34 34 34 35 35 34 31 32 33 33 34 33 34 36 31 36 39 34 35 34 43 36 39 39 35 42 42 42 43

GFSMA_sfc_temp_057.txt.gz
Temp
70 74 73 74 77 79 77 77 79 79 78 79 79 78 79 80 79 78 74 66 67 69 70 70 69 68 67 66 66 66 65 65 64 64 63 62 62 61 61 61 61 61 61
70 73 74 78 80 81 80 80 80 79 79 79 77 78 78 79 80 78 76 71 66 67 69 70 69 68 68 67 66 66 65 65 64 63 62 62 61 61 60 60 60 60 59
73 77 78 79 81 82 80 80 79 80 79 79 77 77 78 78 79 79 77 75 70 64 66 68 69 68 68 67 66 66 65 65 64 63 62 62 61 60 60 60 59 59 59
74 76 78 79 80 80 80 80 78 78 78 78 76 77 78 78 77 77 79 78 75 74 66 66 67 68 68 68 67 66 65 65 64 63 62 62 61 60 60 59 59 59 59
75 74 75 76 77 79 79 79 77 77 76 77 77 77 77 77 76 78 77 77 77 76 73 65 64 65 66 67 67 67 66 65 64 64 63 62 61 61 60 60 59 59 59
72 72 73 73 74 77 77 77 75 77 77 77 79 76 76 77 77 76 76 77 76 75 76 72 69 68 63 66 66 67 67 66 65 65 64 63 62 61 60 60 60 59 59
73 71 71 71 71 75 75 76 75 74 75 77 75 73 74 75 75 76 76 76 75 76 75 75 71 71 68 64 65 67 68 68 66 65 64 63 62 61 61 60 60 59 59
73 72 72 71 70 74 75 74 73 72 74 75 72 71 66 70 72 73 75 75 74 75 74 74 74 74 72 70 67 65 67 68 68 66 65 64 63 62 61 61 60 60 59
73 72 71 72 71 75 74 73 73 72 71 73 73 72 67 66 71 74 71 73 72 72 73 75 73 74 75 73 67 65 62 62 66 67 66 65 64 63 62 61 61 60 60
71 70 75 75 75 75 75 73 75 73 73 71 71 72 73 72 65 59 71 71 73 72 71 70 68 74 74 73 70 64 59 58 60 64 66 66 65 64 63 63 62 61 61
65 69 75 75 74 75 74 74 72 71 73 71 72 71 70 71 71 67 63 66 69 73 72 62 65 64 73 73 73 68 55 55 56 61 63 64 65 65 65 64 63 62 62
69 68 75 73 73 72 72 72 71 71 71 72 69 71 69 67 67 66 64 67 64 66 69 66 60 57 59 61 65 60 56 53 54 56 59 61 62 63 64 64 64 64 64
65 68 71 71 72 71 70 68 68 69 70 69 69 69 70 70 72 72 67 66 66 65 58 56 57 56 58 57 58 55 53 50 51 53 54 55 57 58 60 61 61 62 62
66 67 71 73 73 73 72 71 71 70 68 68 69 70 70 70 73 72 68 65 60 59 59 61 59 56 56 55 56 52 57 50 50 50 51 52 53 54 54 55 56 57 58
71 70 70 71 72 72 72 71 71 70 71 70 70 70 70 72 73 72 70 68 62 53 52 58 56 56 53 54 52 52 51 51 49 48 48 50 51 52 52 52 53 53 54
72 71 70 70 70 71 71 71 70 71 70 70 71 70 70 71 71 70 67 64 61 57 53 61 58 51 50 50 49 50 54 50 48 47 47 47 48 49 49 50 50 51 51
73 73 73 72 72 72 72 71 70 70 70 70 70 70 69 70 68 65 62 59 57 55 51 53 50 50 47 46 48 49 53 53 53 48 47 46 46 46 46 46 47 47 48
74 74 74 74 73 73 73 72 70 71 70 69 69 68 68 68 66 63 61 57 56 55 52 50 47 44 45 46 49 48 52 55 55 54 48 46 46 45 44 44 44 44 44
73 73 74 73 73 72 72 72 71 71 70 70 69 68 68 66 62 61 57 54 55 52 51 46 43 43 46 46 46 47 49 50 55 52 46 45 44 45 45 44 44 44 44
73 73 73 73 72 73 73 73 73 72 71 69 69 66 64 66 61 59 57 55 53 49 46 45 43 41 45 44 45 45 44 49 50 58 54 49 48 46 45 44 43 43 43
73 73 72 72 72 72 72 71 71 70 67 65 66 69 68 64 54 56 57 55 50 46 45 43 41 40 40 40 41 44 43 45 48 52 53 54 54 53 52 45 45 44 43
72 72 71 71 70 72 57 51 60 69 66 63 62 65 65 51 48 44 44 44 48 45 42 41 41 39 41 42 43 42 42 40 42 53 51 50 52 50 51 51 47 43 42
72 71 70 70 70 71 50 46 46 67 66 65 64 62 51 47 45 44 38 36 36 36 40 42 40 39 39 42 42 41 41 41 42 48 49 44 49 46 50 52 44 43 42
70 70 70 70 69 69 47 45 44 61 62 57 55 51 45 41 41 40 38 36 35 34 34 37 36 37 37 40 41 43 42 43 44 45 46 38 46 43 47 48 44 43 42
70 69 69 68 63 58 43 43 44 44 41 39 40 41 39 37 37 39 35 33 31 31 33 34 34 34 34 34 34 38 38 37 36 40 45 42 43 41 43 43 45 43 40
63 50 42 42 39 41 41 42 43 39 35 33 34 35 35 34 34 35 34 32 29 28 30 31 32 33 34 34 33 35 37 34 34 34 41 37 39 39 34 41 42 42 41

GFSMA_sfc_temp_060.txt.gz
Temp
64 66 68 68 69 69 67 66 67 70 68 69 70 70 71 72 69 67 64 66 67 69 70 69 69 68 67 66 66 66 66 65 65 64 63 63 62 62 62 61 61 61 61
63 66 67 68 69 70 70 69 70 68 68 68 68 70 71 73 70 67 65 63 65 67 69 70 69 68 68 67 66 66 65 65 64 64 63 62 62 61 61 61 60 60 60
66 68 68 69 70 71 71 70 70 68 67 70 68 68 69 70 71 68 67 65 63 64 66 68 68 68 68 67 66 66 66 65 64 64 63 62 62 61 61 60 60 60 59
69 68 69 70 72 73 72 69 67 66 66 66 65 65 66 68 69 70 68 67 65 67 64 65 67 68 68 68 67 67 66 65 64 64 63 62 62 61 61 60 60 60 59
69 66 64 64 70 69 68 69 66 66 64 65 66 64 65 65 66 71 70 69 66 66 65 64 64 64 66 67 68 67 67 66 65 64 64 62 62 61 61 60 60 60 59
68 66 68 67 67 68 67 66 66 66 65 64 73 68 64 64 64 63 65 69 68 68 66 66 63 63 63 65 67 68 68 67 66 65 64 64 62 62 61 61 60 60 60
67 67 66 66 67 66 66 66 66 65 64 65 62 61 61 63 62 63 63 63 65 66 65 67 64 64 63 63 65 67 68 68 67 66 65 64 63 62 62 61 61 61 60
67 68 66 66 66 65 66 65 66 63 64 64 60 59 54 57 61 63 62 63 62 64 67 66 65 64 65 63 62 65 67 68 68 67 66 65 64 63 62 62 61 61 61
69 68 66 65 65 65 64 64 65 64 61 61 63 60 54 52 58 60 61 61 61 61 63 64 65 66 65 64 63 63 62 63 66 68 67 65 65 64 63 62 62 61 61
67 69 68 66 64 64 65 65 67 64 63 60 61 65 61 60 56 53 59 61 61 62 60 61 62 64 67 65 64 61 58 58 61 65 66 66 65 65 64 63 63 62 62
66 67 67 65 65 66 66 65 64 64 63 60 61 59 59 59 60 55 52 56 59 61 61 60 59 59 62 64 65 62 58 56 57 61 64 65 66 66 65 64 64 63 63
64 64 67 66 66 65 65 64 64 63 64 62 61 61 60 58 57 56 53 54 54 58 61 59 57 57 58 59 61 59 54 54 56 58 61 62 64 64 65 65 65 64 64
64 62 63 64 66 66 65 65 63 62 63 62 62 61 61 60 61 61 55 55 54 55 55 55 55 55 57 54 55 56 55 51 52 54 57 59 60 60 61 62 63 63 63
65 66 64 64 65 67 67 65 63 63 63 62 62 63 61 61 62 62 61 55 51 53 52 53 54 55 55 55 56 53 54 50 50 51 52 53 54 55 55 56 57 58 59
66 64 65 65 66 66 66 65 64 63 62 63 64 62 63 64 62 63 62 58 56 51 52 53 53 55 56 56 54 53 52 50 49 49 48 50 52 52 53 53 53 54 55
64 65 64 65 66 66 66 65 64 64 63 64 63 62 63 64 64 62 63 60 58 57 53 54 54 53 54 52 52 51 50 50 48 48 47 48 49 50 50 50 51 51 52
65 65 65 65 65 65 66 65 64 64 64 63 63 63 63 63 62 61 60 60 59 57 54 56 51 50 46 48 49 49 50 49 49 47 46 46 46 47 47 47 48 48 49
66 66 66 67 66 66 66 65 64 66 64 62 63 62 62 64 61 62 61 59 57 56 55 53 52 45 46 47 48 46 49 52 51 48 47 47 46 45 45 44 45 45 45
67 68 68 67 67 66 66 66 66 65 64 64 64 63 63 62 61 61 61 60 58 56 55 53 52 43 44 45 45 46 46 49 53 52 48 45 45 45 44 44 44 44 44
67 68 68 68 68 69 69 68 68 66 65 66 65 65 65 64 62 62 59 59 57 54 53 52 49 41 43 43 44 43 42 45 46 53 50 48 46 45 45 44 44 44 44
68 68 68 68 68 68 69 67 67 65 64 64 64 65 65 62 55 57 59 58 55 53 52 49 46 39 40 39 40 42 40 41 43 46 46 47 46 45 42 44 45 44 44
68 68 67 67 66 68 58 51 59 65 65 64 63 63 62 52 52 48 47 49 53 53 50 46 46 42 42 39 40 39 38 36 35 46 43 42 46 43 44 43 46 44 44
67 66 66 66 65 66 51 49 48 64 63 62 61 60 58 53 49 47 37 37 36 36 38 45 41 37 36 38 38 36 36 35 35 41 40 37 41 37 42 48 44 43 43
66 65 65 65 64 65 49 48 46 58 61 61 57 56 59 47 44 41 37 34 34 34 35 37 35 33 33 35 36 37 37 37 37 39 40 31 37 34 38 39 43 43 42
65 64 65 63 63 62 41 44 45 50 43 38 38 39 39 38 38 40 36 33 31 30 33 33 33 33 33 34 35 35 32 31 30 34 38 35 33 32 32 32 36 42 41
64 57 43 41 39 41 39 40 44 40 35 33 33 33 34 34 35 36 33 32 28 28 28 29 31 33 34 34 35 34 32 29 29 28 33 30 30 30 24 31 31 32 31

GFSMA_sfc_temp_063.txt.gz
Temp
64 64 65 64 64 62 60 61 61 63 64 65 66 69 67 64 64 64 62 66 67 69 70 69 69 68 67 66 66 66 66 65 65 64 64 63 63 62 62 62 62 62 62
64 64 65 65 63 63 62 64 64 63 64 64 65 69 67 65 64 63 62 63 65 67 69 69 69 68 68 67 66 66 65 65 65 64 64 63 62 62 62 61 61 61 61
65 65 66 66 66 65 64 63 63 65 62 65 65 66 68 65 64 63 63 61 63 64 65 68 68 68 68 67 66 66 65 65 64 64 63 63 62 61 61 60 60 60 60
65 65 65 66 67 67 66 65 65 64 62 62 61 62 65 65 64 63 63 63 62 64 63 65 67 67 68 67 67 67 66 65 65 64 64 63 62 62 61 60 60 60 60
66 65 64 64 67 66 66 67 64 64 61 60 62 60 61 62 63 65 63 62 61 62 62 63 64 64 66 67 67 67 67 66 65 65 64 63 62 62 61 61 60 60 60
65 64 65 63 65 64 64 65 65 62 63 63 69 64 59 60 62 62 63 64 62 63 63 63 63 63 63 65 67 68 68 67 67 66 65 64 63 62 62 61 61 61 60
65 64 66 64 63 63 66 67 64 63 60 61 59 56 57 58 59 60 60 63 63 63 62 62 62 62 62 63 65 67 69 69 68 67 66 65 64 63 62 62 61 61 61
66 64 64 63 64 63 62 63 63 61 61 61 59 56 52 55 56 58 57 59 60 64 64 63 62 62 62 62 62 65 67 68 69 68 66 65 64 64 63 62 62 62 61
66 66 65 64 63 64 62 62 62 63 60 60 61 56 50 50 51 54 56 56 57 57 60 64 63 63 62 61 62 62 62 63 67 68 67 66 65 64 64 63 63 62 62
64 65 65 65 63 62 61 61 64 62 60 59 57 61 57 55 51 50 55 55 57 59 57 57 62 63 63 62 61 60 58 58 61 65 67 67 66 65 64 64 63 63 62
63 64 63 63 60 60 60 61 61 65 61 58 57 56 54 54 55 52 50 53 56 57 58 60 60 61 63 63 62 61 56 56 58 61 64 66 66 65 65 64 64 64 63
63 62 64 63 62 61 60 60 61 63 62 60 58 57 57 56 54 53 51 51 52 54 59 59 58 59 58 59 61 59 56 55 55 58 61 63 65 65 65 65 64 64 64
60 61 62 59 60 62 61 61 61 61 61 60 59 59 58 58 58 57 54 53 52 54 53 54 60 59 58 55 57 55 56 53 54 56 58 60 61 63 64 64 64 65 65
62 64 63 63 60 62 62 62 61 62 62 60 60 58 60 60 59 59 56 53 49 50 51 54 53 55 55 53 55 53 56 50 49 50 52 53 55 57 58 59 59 60 61
64 61 63 62 63 63 62 63 62 60 60 60 58 59 59 61 60 62 60 58 56 50 50 51 51 53 56 55 54 52 53 51 49 49 49 50 52 53 53 54 55 56 56
63 64 62 61 62 63 63 62 62 63 60 60 61 59 60 61 60 60 62 60 57 57 53 53 53 53 54 53 53 53 53 51 48 48 47 48 49 51 51 52 52 53 53
62 62 62 62 62 62 63 63 64 64 61 62 62 61 60 62 60 60 58 60 58 58 55 58 53 52 50 51 50 50 51 51 51 47 46 47 47 48 48 48 49 50 50
62 62 63 62 63 63 63 63 62 64 61 60 61 60 60 61 59 60 59 58 59 59 57 56 58 49 49 47 48 47 49 51 50 49 47 47 47 46 45 46 46 46 47
62 62 62 62 63 63 63 63 63 63 63 62 62 60 61 60 59 59 59 59 58 58 58 56 57 48 49 45 45 46 47 48 51 50 46 46 45 45 45 44 44 45 44
62 62 63 63 63 63 64 64 64 63 62 63 62 62 61 61 60 60 58 57 58 57 56 55 55 47 44 44 47 45 43 46 46 52 50 47 45 44 44 44 44 44 44
63 64 63 63 63 63 65 63 63 63 62 62 62 62 62 60 55 58 61 59 57 56 57 56 53 44 43 39 42 44 44 43 44 45 44 45 44 44 44 44 45 44 44
62 63 63 64 63 65 56 50 58 63 63 62 61 61 61 52 52 48 48 50 56 56 56 54 53 50 47 45 43 41 39 37 36 42 40 39 42 41 44 43 44 43 43
63 62 63 64 64 64 51 48 48 64 62 61 60 60 60 59 52 56 39 39 38 39 38 53 54 48 39 39 40 37 36 35 34 37 37 35 39 38 42 47 44 44 43
63 63 63 63 63 64 50 48 45 57 62 63 62 60 60 57 51 45 38 34 33 33 34 36 34 32 33 35 36 36 34 34 34 35 37 30 37 36 39 39 41 42 42
64 63 63 63 63 63 46 46 46 55 57 40 38 40 42 42 39 40 35 31 30 30 33 34 33 32 33 33 33 33 30 30 29 30 32 32 33 32 33 34 37 38 38
63 62 48 42 39 44 38 41 44 47 36 33 33 34 35 36 36 36 33 31 28 28 29 29 30 31 32 32 31 30 30 28 28 27 32 29 29 29 24 28 30 30 30

GFSMA_sfc_temp_066.txt.gz
Temp
64 64 65 64 62 61 59 58 59 62 64 63 65 64 63 62 62 63 63 65 67 69 70 70 69 68 67 67 66 66 65 65 65 64 64 63 63 63 62 62 62 62 62
64 63 64 63 63 62 61 58 58 60 61 62 64 64 63 62 62 61 62 63 65 67 69 69 69 68 68 67 66 66 66 65 65 64 63 63 62 62 62 61 61 61 61
64 63 63 62 63 63 59 57 58 60 61 63 65 64 62 62 61 61 60 60 62 64 65 68 68 68 67 67 66 66 66 65 65 64 63 63 62 62 61 61 61 61 61
65 63 65 64 63 63 62 59 58 58 59 60 60 63 62 61 61 61 61 61 59 62 63 65 66 67 67 67 67 66 66 65 65 64 64 63 62 62 61 61 61 61 60
66 64 63 63 65 64 61 61 58 59 59 58 61 60 62 59 59 63 60 59 59 59 59 63 63 64 66 67 67 67 67 66 65 65 64 63 63 62 62 61 61 61 60
66 65 64 63 64 64 62 62 59 60 63 61 66 62 58 59 59 59 60 61 59 59 59 60 61 62 62 65 67 67 68 68 67 66 65 64 63 63 62 62 61 61 61
65 64 65 64 64 61 63 63 61 62 60 60 58 56 55 56 58 59 59 58 59 59 58 59 59 60 61 63 65 67 68 69 68 67 66 65 64 63 63 62 62 61 61
65 64 64 63 63 61 59 62 62 58 60 61 58 56 52 55 56 57 56 58 58 60 60 61 60 60 60 61 62 65 67 68 69 68 67 66 65 64 63 63 62 62 62
65 66 65 63 63 62 61 60 61 62 60 58 61 57 51 52 52 54 54 55 57 58 60 61 61 61 61 61 61 61 61 63 66 68 68 66 65 65 64 63 63 62 62
62 65 64 63 62 62 60 61 62 60 60 61 57 61 59 55 50 49 52 54 56 57 59 61 61 61 61 60 60 59 58 57 60 64 67 67 66 65 65 64 63 63 63
61 64 64 62 61 61 60 60 60 59 61 58 58 56 55 53 53 50 49 51 52 56 58 58 60 60 61 61 60 59 56 55 56 61 64 66 67 66 65 65 64 64 63
61 61 65 63 61 60 61 60 61 61 61 61 58 56 55 54 52 51 50 50 51 54 58 58 56 58 61 61 61 59 56 54 54 57 60 62 64 66 66 65 65 64 64
60 60 62 61 61 62 61 60 59 59 59 59 58 57 57 57 57 55 53 51 50 51 52 53 56 58 57 56 59 57 57 53 53 55 57 59 60 62 63 63 63 63 63
62 63 62 63 63 63 61 61 59 59 59 58 57 57 59 58 58 57 56 53 49 49 50 53 53 56 56 56 57 54 58 51 51 51 53 54 55 56 57 58 59 60 61
61 62 63 61 61 60 61 60 59 59 59 61 59 58 59 60 59 59 58 55 54 48 49 52 51 54 56 57 56 56 55 54 50 49 50 51 53 54 55 56 56 58 59
58 59 61 61 61 61 60 59 58 59 59 60 60 59 60 61 59 58 59 56 55 58 54 54 54 54 54 54 55 54 54 52 49 49 49 50 50 52 53 53 54 54 55
59 58 59 61 62 61 59 59 59 60 59 60 60 58 59 60 59 58 58 59 58 57 55 58 55 54 53 54 53 53 54 53 53 48 47 47 47 48 49 49 50 51 51
59 60 59 59 60 61 61 60 60 62 60 60 60 59 59 60 58 59 58 57 57 58 56 54 58 52 50 52 56 53 53 52 52 49 46 46 46 46 46 46 47 47 47
60 59 61 60 60 60 61 61 61 61 61 61 61 60 60 60 58 59 58 57 57 57 57 56 57 57 52 45 46 46 48 50 51 50 46 45 45 46 45 45 45 45 45
61 61 60 60 60 61 62 62 62 61 61 61 62 61 61 60 59 59 58 57 58 57 56 55 56 57 53 47 46 47 47 47 49 51 49 47 45 45 45 44 44 44 44
63 63 62 61 61 61 62 61 62 61 61 61 61 62 62 60 55 57 59 59 58 56 56 55 56 56 50 41 44 50 48 50 46 48 46 45 44 44 43 43 43 43 42
61 61 62 61 60 61 54 49 55 60 61 60 59 60 61 52 52 47 47 49 56 56 55 56 56 55 56 50 51 50 46 38 39 42 42 40 42 40 41 42 42 41 42
60 60 61 61 61 61 50 48 47 59 60 59 59 59 59 59 52 57 46 43 37 37 38 50 56 57 55 54 51 39 37 36 34 35 36 32 35 34 38 42 42 42 42
59 59 59 60 60 61 50 47 45 56 59 60 59 59 59 59 58 56 45 36 33 33 34 36 37 33 34 35 38 38 35 33 32 32 34 31 32 32 33 35 39 40 39
58 60 60 59 59 60 50 46 46 56 57 58 60 52 51 56 52 45 39 33 31 31 34 34 34 34 34 35 36 36 33 33 29 28 30 31 28 29 31 31 34 36 36
47 56 60 60 56 59 46 43 46 57 56 53 37 36 37 42 39 40 39 33 29 29 30 30 30 31 31 31 32 31 31 29 28 26 27 28 27 28 26 29 30 30 30

GFSMA_sfc_temp_069.txt.gz
Temp
64 64 64 63 60 59 62 61 60 62 63 63 63 62 61 59 59 60 60 66 67 69 70 70 69 68 68 67 66 66 66 65 65 65 64 64 63 63 63 63 63 63 63
65 64 65 63 60 60 59 61 61 61 62 63 62 62 61 60 59 58 59 62 65 67 69 69 69 68 68 67 66 66 66 65 65 65 64 63 63 62 62 62 62 62 62
65 64 63 61 61 59 57 57 57 57 60 63 62 61 60 59 58 58 58 58 61 64 66 68 68 68 68 67 66 66 66 65 65 64 64 63 63 62 62 62 61 61 61
65 64 63 63 63 61 60 59 57 57 59 61 60 59 59 59 58 57 57 58 58 60 63 65 66 67 67 67 67 66 66 65 65 65 64 63 63 62 62 61 61 61 61
64 64 63 62 62 63 61 60 56 60 58 58 60 59 57 57 57 61 58 57 57 57 57 63 63 64 66 66 67 67 67 66 65 65 64 64 63 63 62 62 61 61 61
64 62 63 61 63 61 60 59 60 57 57 59 63 59 58 56 57 56 58 59 57 57 57 58 59 60 62 65 66 67 68 67 66 66 65 65 64 63 63 62 62 62 61
64 63 63 62 62 59 61 60 56 57 55 57 57 55 55 57 56 56 56 56 56 57 56 57 56 57 60 63 65 67 68 69 68 67 66 66 65 64 63 63 62 62 62
64 63 62 62 62 61 59 60 57 55 56 58 56 56 51 55 56 55 54 55 57 59 59 58 57 57 57 59 60 65 67 68 69 69 67 66 65 64 64 63 63 62 62
62 63 63 63 62 62 60 60 58 59 56 55 59 56 50 50 52 54 55 55 56 56 59 59 58 59 59 59 60 61 61 62 66 68 68 67 66 65 65 64 63 63 63
61 61 62 63 62 62 61 60 61 61 61 59 55 59 59 55 51 50 53 56 56 55 57 56 59 59 60 59 59 58 57 57 60 64 66 67 67 66 65 65 64 63 63
59 61 62 60 62 61 61 60 58 58 63 60 56 55 55 55 54 51 49 50 50 56 58 57 58 59 60 59 59 58 55 55 56 60 63 65 66 67 66 65 65 64 64
58 58 61 60 61 61 60 59 58 58 59 62 58 56 56 55 53 52 49 49 50 53 57 57 56 58 58 58 60 58 55 54 55 57 60 62 64 65 66 66 65 64 64
57 57 59 59 59 59 59 59 57 57 57 58 59 58 57 58 58 59 53 51 50 51 51 54 57 59 59 57 58 56 56 52 53 55 57 58 60 62 63 64 65 65 64
60 60 59 59 60 59 58 59 58 57 57 57 57 58 59 57 57 57 55 52 48 48 49 53 52 56 55 56 57 55 58 52 52 52 53 55 56 57 58 60 61 62 63
62 59 60 59 59 59 59 59 58 58 58 59 58 58 59 60 58 57 56 55 56 51 49 52 52 54 56 56 56 56 57 56 52 51 51 52 54 55 55 56 58 59 60
57 60 60 60 60 60 60 59 59 60 59 60 59 56 56 59 58 57 58 57 57 57 53 52 52 54 54 54 56 56 56 54 51 49 49 50 51 52 53 54 55 56 56
55 56 60 61 60 60 61 60 60 60 58 60 59 57 59 61 59 59 57 57 56 56 54 58 54 53 51 54 54 53 54 53 54 49 48 48 48 48 49 50 51 52 53
56 57 56 58 61 62 62 60 60 60 58 57 58 57 58 60 58 59 57 57 57 58 56 55 58 55 50 55 55 52 53 54 54 53 48 48 48 47 47 47 48 48 49
58 57 58 57 59 59 61 61 61 61 60 59 59 58 58 58 57 58 58 58 58 57 57 55 56 58 56 48 49 48 50 51 52 52 47 46 46 47 46 46 46 46 46
60 59 58 59 59 59 60 60 59 59 59 60 60 60 60 59 59 59 58 58 58 57 56 55 55 55 56 52 46 51 52 49 51 52 49 47 46 46 45 45 44 45 45
59 60 60 60 60 59 60 59 60 60 59 59 60 60 61 59 55 57 60 59 57 56 55 55 55 55 56 50 48 54 50 54 54 51 50 48 47 45 45 44 44 44 43
60 60 59 59 59 61 53 48 53 59 60 59 58 59 60 52 52 48 47 50 57 56 54 55 56 55 56 56 55 52 53 49 47 43 45 40 42 41 42 43 42 42 42
59 59 59 60 59 60 50 47 46 58 59 58 58 58 59 59 52 58 48 44 45 45 48 58 56 56 56 56 57 52 51 52 48 35 38 32 35 34 37 38 38 39 39
49 53 58 59 59 61 50 47 46 55 57 58 58 58 57 58 58 56 55 53 49 48 39 40 48 50 42 39 42 43 42 33 32 32 34 33 32 31 33 34 36 36 35
45 46 49 49 55 59 49 45 45 54 55 56 58 58 57 57 53 48 53 51 38 33 35 36 35 35 34 35 36 37 34 35 29 27 29 30 28 29 30 30 32 32 32
42 43 41 37 36 36 37 37 39 52 54 54 55 55 36 36 37 41 51 51 38 31 31 29 29 29 30 31 31 30 32 30 28 25 27 27 27 27 26 28 28 28 28

GFSMA_sfc_temp_072.txt.gz
Temp
64 63 63 63 63 61 60 59 60 61 60 60 62 62 61 60 60 61 61 66 67 70 70 71 70 70 69 68 67 67 66 66 66 65 65 64 64 64 64 64 63 63 63
64 65 64 62 60 63 61 59 61 61 60 60 60 61 61 59 60 60 61 63 65 67 69 70 70 69 69 68 67 66 66 66 65 65 64 64 63 63 63 63 63 63 63
65 65 64 61 60 60 57 57 57 58 59 60 59 61 61 59 59 59 59 60 64 64 66 68 69 69 68 68 67 66 66 65 65 65 64 64 63 63 62 62 62 62 62
66 64 63 61 59 59 59 59 58 58 58 58 57 58 60 59 58 58 58 59 59 62 63 65 67 67 68 68 67 67 66 65 65 65 64 64 63 63 62 62 62 62 62
65 64 62 61 61 59 59 59 56 59 58 56 57 58 58 57 57 59 58 58 58 59 59 63 64 64 66 67 67 67 67 66 66 65 65 64 63 63 63 62 62 62 62
63 62 61 60 62 61 60 60 58 57 59 58 60 56 56 57 56 56 57 59 58 59 59 59 61 61 62 65 67 67 68 67 67 66 65 65 64 63 63 62 62 62 62
61 61 60 60 61 61 61 60 60 59 55 58 54 52 53 56 56 56 56 57 58 58 58 58 58 59 61 63 65 67 68 69 68 67 66 66 65 64 63 63 63 62 62
60 60 60 61 61 59 58 60 60 56 56 59 54 53 49 53 56 57 56 57 56 58 58 59 58 59 59 60 61 65 67 68 69 69 68 66 65 65 64 63 63 63 63
61 60 60 61 61 61 58 59 56 57 54 54 59 54 49 50 53 54 55 55 56 56 59 59 59 59 59 59 60 61 61 62 66 68 68 67 66 65 65 64 64 63 63
62 61 60 60 61 61 59 60 59 58 57 56 54 58 58 54 51 49 53 54 56 57 57 58 59 59 60 60 60 58 57 57 60 64 66 67 67 66 66 65 65 64 64
61 62 60 60 61 61 59 59 58 58 58 57 56 55 55 55 55 52 50 52 53 57 59 58 58 59 60 61 60 59 55 55 56 60 63 65 66 67 67 66 65 65 64
59 60 61 59 60 60 59 59 58 59 58 58 58 56 56 55 53 53 51 51 51 54 58 58 58 59 60 60 60 58 55 53 54 57 60 62 64 65 66 66 66 65 65
57 57 59 58 59 60 59 59 58 57 57 57 57 58 57 57 57 56 55 53 52 54 52 56 58 59 60 59 59 56 56 52 53 55 57 58 60 62 63 64 65 66 65
59 59 59 58 59 59 59 59 58 57 57 56 56 57 58 59 58 58 57 55 50 50 51 54 55 57 58 58 58 54 59 52 52 52 53 55 57 58 59 60 62 63 64
60 59 58 58 58 58 58 58 58 58 58 58 56 55 56 59 58 57 57 56 56 52 52 54 53 55 56 56 56 57 58 56 52 51 51 52 54 55 56 57 58 59 60
59 58 58 59 58 58 58 58 58 58 57 57 57 56 56 58 58 57 59 56 55 57 54 58 56 56 55 55 56 56 56 54 52 50 49 50 51 52 53 54 55 56 57
58 58 58 58 58 58 58 57 58 58 57 58 58 57 57 58 58 59 57 57 57 57 55 59 55 55 53 55 56 56 56 56 57 50 49 49 49 49 50 51 52 52 53
55 56 59 58 58 59 59 59 58 59 57 57 58 58 58 60 58 59 57 57 57 58 56 56 60 59 53 56 58 56 56 56 57 54 49 49 48 47 47 47 48 49 49
55 54 55 57 58 59 58 59 59 59 58 58 58 58 58 59 58 58 58 57 57 58 57 55 57 60 60 53 53 54 56 56 54 54 49 48 47 47 47 46 47 47 47
56 57 58 57 58 58 58 59 59 58 59 60 60 60 60 60 59 59 58 58 58 58 58 55 56 57 58 59 51 54 54 50 54 55 52 51 49 47 46 46 46 46 46
59 59 57 56 58 58 59 58 59 58 57 57 58 59 59 58 54 56 60 59 58 56 56 56 56 56 55 55 52 56 52 54 57 55 56 52 51 49 48 45 47 45 44
59 59 58 58 58 58 50 47 52 58 58 58 57 58 59 52 52 47 47 49 58 58 55 55 56 55 56 57 58 56 54 53 51 50 52 50 43 41 41 42 43 43 43
49 50 54 57 58 59 47 46 45 56 58 58 58 58 58 59 52 58 51 44 45 44 49 59 57 56 56 58 58 57 55 54 54 45 41 35 36 33 37 38 38 38 38
46 46 47 47 46 44 36 36 37 50 56 58 58 58 58 58 58 57 56 55 52 51 50 50 53 54 40 38 44 48 49 44 33 31 34 32 32 31 33 33 35 35 34
43 42 39 38 36 37 35 36 37 42 51 54 57 57 56 56 52 48 52 52 52 38 34 36 35 33 33 33 35 38 36 35 32 27 28 30 28 28 29 28 31 33 32
39 38 35 34 33 33 34 36 36 40 41 46 50 35 34 34 36 39 43 50 50 35 30 29 29 29 29 29 30 29 32 32 30 25 26 27 27 28 24 28 27 28 28

GFSMA_sfc_temp_075.txt.gz
Temp
66 65 65 66 64 63 71 72 72 71 70 70 71 71 70 71 71 73 75 67 68 71 71 71 70 69 69 68 68 68 67 67 67 67 66 66 65 65 65 65 64 64 64
66 64 65 65 63 63 69 72 72 71 72 72 70 70 70 71 72 72 75 73 66 67 69 70 70 70 69 68 68 67 67 67 67 66 65 65 65 64 64 64 64 64 64
65 65 67 63 62 64 68 70 70 71 71 72 70 70 70 70 70 71 73 74 70 64 66 68 70 70 70 69 67 67 66 66 66 65 65 64 64 64 63 63 63 63 63
67 65 65 63 62 62 67 69 69 69 69 70 69 70 70 70 69 70 72 73 74 74 66 66 67 68 69 69 68 67 67 66 66 65 65 64 64 63 63 63 63 63 63
66 65 63 62 61 65 66 68 69 69 68 69 69 69 69 69 69 69 70 70 71 72 73 64 64 65 66 67 68 68 67 66 66 66 65 64 64 63 63 63 63 63 63
65 64 63 61 61 64 67 68 66 68 69 68 69 67 68 69 69 68 69 70 71 70 71 71 71 69 63 65 67 68 68 68 67 67 66 65 64 64 63 63 63 63 63
64 62 61 61 62 64 67 65 66 65 66 68 65 64 65 66 66 67 67 68 69 69 70 70 70 70 69 63 65 67 69 69 68 67 67 66 65 64 64 63 63 63 63
62 61 60 61 62 66 65 66 65 65 66 66 65 64 58 61 64 64 64 65 66 69 68 68 69 69 69 69 67 65 67 69 69 69 68 66 65 65 64 64 63 63 63
60 60 60 61 63 65 64 64 65 65 63 64 67 67 59 60 61 63 62 64 64 64 67 68 67 67 67 68 67 65 60 62 66 68 68 67 66 65 65 65 64 64 64
61 60 60 61 63 65 64 64 66 64 62 60 64 67 68 65 61 56 60 63 63 63 63 65 68 66 67 69 66 62 58 57 60 64 66 67 67 67 66 65 65 64 64
61 61 60 60 60 63 64 63 63 65 67 65 65 64 65 65 66 63 58 58 61 64 67 66 66 67 68 68 67 63 56 55 56 60 63 65 66 67 67 66 65 65 65
60 60 60 59 59 60 59 60 61 65 65 66 66 66 65 64 63 63 60 60 61 63 66 67 66 67 67 65 64 60 56 53 54 57 60 62 64 65 66 66 66 66 66
58 59 60 59 60 59 60 60 59 60 62 63 65 64 64 65 65 66 63 61 63 64 63 63 64 65 65 66 67 58 57 52 52 55 57 58 60 62 63 64 65 66 66
60 59 60 60 60 60 59 59 59 58 59 60 62 64 65 64 65 67 65 63 60 60 62 63 62 64 66 67 66 56 64 52 51 52 53 55 57 58 59 60 61 63 64
61 60 60 59 60 60 60 59 58 58 58 58 59 61 60 65 63 64 65 67 65 60 62 65 62 65 66 68 64 67 66 59 52 51 51 52 54 55 56 56 58 59 60
61 61 62 60 58 59 59 58 59 59 58 58 58 57 57 60 61 61 59 61 57 63 59 66 68 67 67 65 64 63 65 57 52 50 49 49 51 52 53 54 55 56 57
59 59 60 59 59 60 60 58 58 58 58 60 60 59 59 59 58 57 57 57 57 56 57 63 70 71 66 65 65 64 61 61 63 51 49 49 49 49 50 51 51 52 53
60 59 60 60 61 61 63 61 60 58 57 57 58 58 57 58 57 59 58 57 60 63 60 60 67 68 67 68 68 67 66 64 65 58 51 49 49 48 48 48 48 49 49
63 62 61 60 61 63 64 61 62 63 62 61 60 59 59 59 58 59 60 61 62 61 61 60 63 68 70 70 67 65 65 67 69 59 51 49 49 49 49 48 48 48 48
63 63 64 64 64 64 62 62 62 62 63 64 64 63 63 64 64 64 64 64 63 60 61 58 59 63 66 69 68 64 65 68 65 67 59 55 54 51 47 47 46 46 46
62 63 63 63 64 63 62 62 61 60 61 62 64 65 66 63 56 60 66 65 65 63 62 60 60 63 63 64 63 66 63 64 65 66 65 65 64 62 60 48 48 46 45
51 55 57 57 57 53 37 39 46 60 61 61 62 64 65 54 54 47 47 49 59 62 60 59 60 58 60 64 66 64 63 61 58 65 60 58 52 44 40 40 41 42 43
48 48 47 47 43 38 36 37 37 46 53 57 58 59 61 63 55 63 51 44 45 45 47 59 58 58 58 59 59 58 58 57 56 61 51 52 37 33 36 37 37 37 37
44 41 40 39 40 38 36 36 36 45 48 51 54 56 56 56 57 54 56 55 54 53 49 49 52 54 43 35 38 45 48 47 35 31 34 33 32 29 32 33 35 35 35
41 38 37 36 36 35 35 35 37 43 46 46 38 36 35 37 37 38 42 49 51 36 33 33 33 32 31 32 32 38 38 37 33 28 28 30 29 27 27 27 30 32 32
37 36 35 35 34 35 34 34 37 41 39 37 34 33 33 34 34 35 37 38 34 31 30 28 27 27 27 27 29 28 31 33 32 29 26 28 27 29 24 28 28 29 29

GFSMA_sfc_temp_078.txt.gz
Temp
74 70 69 68 66 66 67 71 75 73 76 79 79 78 78 79 78 81 77 67 68 70 72 72 72 70 70 69 68 68 68 68 68 67 67 67 67 66 66 66 65 65 65
69 68 67 67 66 65 66 73 75 73 77 79 78 78 77 77 77 79 80 74 66 68 70 71 71 70 70 69 68 68 68 67 67 67 67 66 66 65 65 65 65 65 65
68 67 67 65 65 65 65 71 74 75 77 79 77 77 77 76 78 77 80 78 71 65 67 69 70 70 69 69 68 67 67 67 67 67 66 65 65 65 64 64 64 64 64
69 68 66 64 64 62 64 69 74 74 76 77 76 77 77 77 76 77 77 79 76 73 67 66 68 69 69 69 68 68 67 67 66 66 65 65 65 64 64 64 64 64 64
70 68 66 66 64 61 62 70 74 75 74 76 76 77 77 77 76 77 77 77 77 78 77 66 65 66 67 68 69 68 68 67 66 66 66 65 64 64 64 63 63 63 63
65 66 66 63 65 61 61 69 72 73 76 76 75 75 75 76 76 76 76 77 77 76 78 76 74 72 64 66 67 68 69 68 67 67 66 65 65 64 64 63 63 63 63
63 64 63 62 63 61 61 65 73 72 72 74 72 69 71 72 72 73 74 74 76 76 76 77 78 78 72 64 65 68 69 70 69 68 67 66 65 65 64 64 64 63 63
65 63 62 61 61 61 61 67 70 71 72 73 70 69 59 63 67 71 74 74 74 76 76 75 76 76 76 75 71 65 67 69 69 69 68 67 66 65 65 64 64 64 64
64 63 62 61 61 62 61 67 71 71 68 72 74 72 63 63 65 70 69 72 71 70 73 74 73 74 74 75 71 67 61 62 66 68 68 67 66 66 65 65 65 64 64
61 61 62 61 61 63 63 67 72 71 71 68 71 75 76 75 66 62 70 70 71 69 69 72 73 73 73 73 69 64 59 58 60 64 66 67 67 67 66 65 65 65 64
61 60 60 60 61 63 66 69 69 69 71 71 69 70 71 72 73 71 65 65 69 69 71 72 71 73 73 73 72 67 58 55 56 61 63 65 66 67 67 66 66 65 65
60 60 60 60 61 62 67 67 68 69 70 70 69 67 70 69 69 70 68 69 67 69 70 71 70 72 74 74 70 62 57 55 55 57 60 62 64 65 66 66 66 66 66
59 59 59 60 59 60 64 67 65 66 67 68 69 71 70 71 74 72 70 70 68 72 71 72 72 72 72 71 70 60 59 53 53 55 57 59 61 62 63 64 65 66 66
63 64 60 59 60 59 60 61 61 61 64 64 67 68 70 69 71 72 70 68 65 68 71 70 73 72 70 69 67 58 68 53 52 52 53 55 57 58 59 60 61 63 64
65 62 60 60 60 60 59 59 58 59 59 61 61 63 65 70 71 71 71 72 67 59 66 70 70 74 72 74 70 71 70 60 52 51 51 52 54 55 56 56 58 59 60
65 64 61 59 59 60 61 60 59 60 58 58 60 59 60 62 68 69 70 67 68 64 61 66 72 73 74 73 70 71 71 60 55 51 49 50 51 52 53 54 55 55 57
64 62 64 63 61 59 59 59 59 59 58 59 59 58 59 60 58 59 60 61 62 61 57 63 65 71 70 73 74 74 72 72 74 53 50 49 49 49 50 51 51 52 53
63 64 64 63 61 59 59 59 58 58 57 57 59 59 59 60 58 59 58 57 57 59 56 55 62 62 64 68 73 72 74 77 75 65 52 49 49 49 49 48 49 49 50
63 63 64 62 62 61 61 61 63 63 63 62 61 60 60 60 59 60 59 59 60 60 59 56 59 68 71 73 72 74 73 74 76 64 55 51 50 49 49 48 48 48 48
66 64 64 64 64 65 64 65 66 66 64 63 65 64 64 65 65 66 66 65 65 63 65 63 66 67 69 72 72 70 69 73 73 76 67 61 58 53 49 49 48 48 47
64 68 67 67 66 57 45 47 63 64 62 64 65 65 66 64 56 59 67 67 65 65 66 65 62 66 67 67 67 70 68 70 72 73 72 74 73 71 51 44 45 44 45
50 50 48 47 45 43 37 38 41 56 59 61 61 62 63 55 55 47 48 48 56 62 61 61 61 59 61 65 68 66 65 62 60 69 65 62 43 36 37 38 39 40 40
45 43 43 42 38 37 36 36 36 44 49 51 53 51 54 57 50 54 49 44 45 43 44 56 57 58 57 58 53 57 58 58 58 53 46 51 34 31 34 35 36 37 37
41 39 39 39 38 36 35 35 35 46 49 40 37 37 39 40 39 38 43 47 51 38 36 41 37 33 31 32 34 39 40 40 37 35 36 32 30 28 31 32 34 34 35
41 39 39 38 39 36 35 35 43 49 40 37 36 35 35 35 34 35 41 42 37 31 32 32 31 31 30 30 30 35 35 36 37 33 29 32 29 27 28 29 31 32 32
41 41 40 40 36 39 33 34 40 40 35 34 32 33 32 33 33 33 36 38 29 27 28 27 27 27 27 27 27 26 25 30 32 31 26 28 29 29 25 29 29 31 31

GFSMA_sfc_temp_084.txt.gz
Temp
68 69 69 68 68 68 67 66 66 67 68 70 72 72 71 74 72 70 67 67 68 70 72 72 72 71 70 70 69 69 69 69 69 68 67 67 67 67 66 66 66 66 66
68 70 69 69 68 67 67 65 65 66 65 67 68 70 72 72 72 69 67 65 66 68 70 71 72 72 71 70 69 68 68 68 68 68 67 67 66 66 66 65 65 65 66
69 69 68 68 67 68 66 65 64 64 64 66 68 71 72 72 70 69 68 66 65 65 67 70 70 70 71 70 69 68 68 68 68 68 67 66 66 65 65 65 65 65 65
70 68 66 66 67 65 64 64 63 63 63 64 69 69 71 69 68 71 69 68 66 68 65 66 67 69 69 70 69 68 68 67 67 67 67 66 65 65 65 64 64 64 64
70 67 67 67 65 64 63 63 63 63 62 63 69 68 68 66 67 72 69 68 67 67 66 64 65 65 67 69 69 69 69 68 67 67 66 66 65 65 65 64 64 64 64
68 67 65 65 65 63 63 63 62 62 62 65 72 69 67 66 66 65 70 69 67 66 66 65 62 63 64 66 68 69 70 68 68 68 67 66 65 65 64 64 64 64 64
67 66 64 64 64 63 63 63 61 61 61 65 63 63 64 65 66 65 66 67 68 68 66 65 65 65 63 64 66 69 70 70 69 68 67 67 66 65 65 64 64 64 64
67 65 64 63 63 62 62 62 61 60 61 64 63 60 55 59 63 65 63 66 68 68 70 68 67 67 65 63 62 66 68 70 70 69 68 67 66 65 65 65 64 64 64
66 65 64 63 62 62 61 62 61 61 59 61 67 62 55 53 56 60 60 61 63 63 65 67 69 68 67 65 64 63 62 63 67 69 68 67 66 66 65 65 65 65 64
66 65 63 63 63 62 61 61 62 61 60 61 63 68 65 62 55 52 59 62 63 65 63 67 65 66 68 66 65 61 58 58 61 65 67 68 67 66 66 65 65 65 65
65 65 63 62 61 61 61 61 61 61 60 61 63 62 63 62 64 57 53 57 60 63 63 63 64 63 66 66 64 62 57 56 57 61 64 66 67 67 66 66 66 65 65
61 62 62 61 62 61 60 60 61 61 61 61 63 63 63 60 61 58 58 58 59 61 64 63 62 62 64 65 66 62 56 54 55 58 61 63 65 66 66 66 66 66 66
59 59 60 60 60 60 61 60 60 60 61 60 64 64 63 63 64 63 60 58 58 61 61 63 62 64 65 62 64 61 58 53 53 55 58 59 61 63 64 65 65 66 66
60 60 59 59 59 60 60 60 61 61 61 61 62 62 62 63 63 63 58 56 54 57 59 60 65 64 65 65 64 59 63 54 52 52 54 56 57 59 59 61 62 63 64
62 60 59 58 59 59 60 60 60 60 61 61 61 61 62 62 61 61 61 60 57 52 55 60 58 65 65 66 64 63 61 58 53 52 51 52 54 56 56 57 58 59 60
62 61 59 58 58 58 58 58 58 59 59 59 59 59 59 59 60 59 60 59 58 57 54 60 61 62 62 68 63 64 63 59 55 52 50 50 51 53 54 54 55 56 57
63 62 61 59 57 57 58 57 57 57 57 56 57 57 57 58 57 57 58 58 58 57 54 60 63 64 62 61 65 64 63 64 63 52 50 50 49 50 50 51 51 52 53
63 62 61 60 59 58 57 57 57 57 57 56 56 56 56 58 56 57 57 57 58 59 56 56 60 59 59 62 62 61 65 69 68 62 52 52 51 50 49 49 49 49 50
61 61 61 60 60 59 58 57 57 56 56 57 57 56 56 56 56 56 57 58 58 58 58 56 57 61 61 62 61 62 62 63 66 61 55 51 50 50 49 44 44 45 45
61 60 59 52 50 48 49 52 58 58 57 58 58 58 57 57 57 57 58 57 59 58 57 56 56 57 58 61 62 60 59 62 62 68 63 56 46 42 41 42 42 42 42
50 51 48 46 44 42 40 41 48 55 58 58 58 59 52 45 42 43 55 53 55 57 57 57 56 58 58 58 57 58 57 57 58 49 53 45 42 40 38 39 40 40 40
43 42 40 39 39 39 37 38 41 52 48 47 45 45 48 40 41 40 37 36 37 45 49 51 53 52 52 41 43 43 46 48 49 43 45 43 39 35 35 35 36 37 37
40 38 38 38 36 36 37 39 40 42 39 38 38 39 41 39 37 40 38 35 34 34 33 38 40 31 33 31 33 38 41 41 42 35 39 41 35 32 33 34 36 36 36
38 38 37 36 35 36 38 38 37 38 36 34 34 36 35 34 35 37 39 33 31 31 31 32 30 29 29 30 30 34 35 35 36 30 30 33 33 29 31 31 35 35 36
36 36 36 35 34 33 36 38 38 36 34 33 33 34 34 33 35 40 36 31 29 28 32 33 32 32 32 33 32 32 28 32 33 27 28 28 29 27 29 29 31 34 34
37 35 34 34 33 33 35 37 38 36 32 31 32 32 34 33 33 34 32 30 26 26 28 28 29 30 32 32 32 29 29 27 24 27 26 27 27 24 23 22 30 31 27

GFSMA_sfc_temp_087.txt.gz
Temp
65 64 62 63 65 66 66 65 65 65 66 67 68 67 66 68 67 68 67 66 68 71 72 72 72 72 71 71 70 70 70 69 69 68 68 67 68 67 66 66 66 66 66
65 65 64 64 64 65 66 66 65 64 65 66 66 66 67 67 67 66 65 66 66 68 70 72 72 72 71 70 69 69 69 69 68 67 67 67 67 66 66 65 65 65 66
66 64 64 65 65 65 65 64 63 63 64 65 64 65 69 67 66 65 64 64 65 65 66 69 70 70 71 70 69 68 68 68 68 67 67 66 66 65 65 65 65 65 65
68 66 64 64 64 64 64 63 63 62 63 63 62 63 69 68 67 64 64 64 62 63 64 66 68 68 69 70 70 68 68 68 68 67 66 66 65 65 64 64 64 64 65
65 64 64 63 64 64 63 62 61 63 62 62 62 62 66 66 66 67 64 63 61 61 61 64 65 65 67 69 69 69 69 68 68 67 66 66 65 65 64 64 64 64 64
66 63 62 62 63 62 61 61 62 62 62 62 64 64 66 65 65 64 63 65 63 63 62 62 62 62 64 66 68 69 69 69 68 68 67 66 66 65 64 64 64 64 64
64 62 62 64 63 62 62 62 62 61 61 61 59 60 62 63 62 63 64 64 63 64 62 62 62 60 62 64 66 69 70 69 69 68 67 66 66 65 64 64 64 64 64
63 62 63 63 62 62 62 62 61 60 60 61 59 62 55 59 61 60 64 65 62 64 63 63 62 61 61 61 60 67 69 69 69 69 68 66 66 65 65 64 64 64 64
63 63 63 63 63 63 62 61 62 61 59 60 61 62 55 53 57 58 59 62 63 63 64 64 63 63 62 61 61 62 62 63 67 69 68 67 66 66 65 65 65 64 64
63 63 63 63 63 63 62 62 62 61 60 59 60 66 63 60 56 52 56 59 59 63 61 63 63 64 64 62 61 60 58 58 61 65 68 67 67 66 66 65 65 65 65
62 62 62 62 62 62 62 62 61 60 61 60 60 61 60 60 59 54 51 54 56 59 60 61 63 63 65 64 61 60 57 56 57 61 64 66 67 67 66 66 66 65 65
61 61 62 62 62 62 61 62 62 61 60 60 60 61 61 58 58 56 52 53 58 55 59 59 59 60 61 62 63 60 56 54 55 58 61 63 65 66 66 66 66 66 66
58 59 60 60 61 61 61 62 61 61 60 60 60 60 61 61 61 60 57 56 55 55 56 57 59 59 62 60 61 59 56 54 53 56 58 60 61 62 64 64 65 66 66
60 59 59 60 60 61 60 61 60 60 61 59 59 60 60 61 60 60 58 56 53 53 55 57 61 63 63 62 60 56 60 52 52 53 54 56 57 58 59 61 62 63 64
60 59 59 59 60 59 59 60 60 60 60 59 58 59 60 60 59 59 59 57 53 49 54 57 59 62 62 62 59 60 60 56 52 51 51 52 55 56 56 57 58 59 61
61 59 58 58 58 59 59 59 59 59 60 59 58 58 58 58 58 58 57 56 55 53 52 58 59 61 61 63 61 62 64 58 53 51 50 50 51 53 54 54 55 56 57
60 59 59 58 57 57 58 59 59 59 58 58 57 57 57 58 56 56 56 55 56 55 51 56 59 60 60 60 62 60 61 62 63 52 50 50 50 50 51 51 52 53 53
60 59 59 58 58 57 57 57 57 58 58 57 56 56 56 57 56 56 56 55 55 55 54 53 58 58 59 58 59 60 62 66 63 58 53 51 50 49 46 45 45 46 47
59 59 59 59 58 57 57 57 57 57 57 57 56 56 55 55 55 55 55 55 56 56 56 55 55 57 59 58 59 58 60 62 64 58 52 43 43 44 43 43 43 43 44
55 52 50 49 49 49 51 55 57 56 56 56 57 56 56 56 56 56 56 56 56 56 56 55 55 56 54 57 58 57 57 58 58 56 44 43 42 42 42 41 42 42 42
48 48 46 44 43 43 42 45 52 55 56 54 53 47 43 43 40 41 54 52 53 55 55 54 54 55 55 55 51 49 51 51 48 46 50 45 41 39 38 38 39 39 39
41 41 39 40 40 41 38 39 46 45 45 45 44 43 41 41 38 37 37 35 36 42 48 49 50 47 43 39 39 41 43 46 45 37 42 41 38 33 35 36 38 38 38
38 37 37 38 38 39 38 38 39 39 38 37 37 39 38 38 39 37 35 34 33 33 32 38 35 32 33 31 32 37 40 40 40 32 35 36 33 30 33 35 37 37 37
36 35 35 36 36 37 37 36 36 36 34 34 34 34 35 36 37 37 34 32 31 31 31 32 30 29 30 31 31 33 33 34 31 30 29 31 31 29 30 31 36 36 36
34 33 34 34 35 35 37 36 36 34 33 32 33 33 34 34 36 37 33 30 28 28 33 34 34 34 34 33 32 29 27 27 30 26 27 28 26 21 19 21 24 35 34
32 32 31 32 34 33 35 35 35 33 30 30 31 32 34 33 34 33 31 30 28 27 29 30 30 31 32 31 31 24 23 24 18 18 24 27 29 28 26 19 23 24 22

GFSMA_sfc_temp_090.txt.gz
Temp
64 65 64 66 65 66 66 63 64 65 65 65 64 64 64 65 66 66 66 66 68 71 73 74 73 72 71 70 69 69 69 69 69 69 68 68 67 67 66 66 66 66 66
63 63 62 64 66 66 66 64 63 64 65 65 64 65 65 65 65 65 65 65 66 68 71 73 73 72 72 71 69 68 69 69 68 68 67 67 67 66 66 65 65 65 66
64 63 62 62 64 66 65 65 63 63 63 64 63 63 64 65 64 64 64 64 64 64 67 70 71 72 71 70 69 68 68 67 67 68 67 67 67 66 65 65 65 65 65
65 64 63 62 63 65 65 64 63 62 61 62 62 62 63 64 64 64 63 63 61 63 64 66 68 69 69 70 69 68 69 68 67 67 66 66 66 65 65 64 64 65 65
65 64 63 64 63 64 64 63 62 62 61 61 62 62 62 63 63 65 62 62 60 60 60 64 64 65 66 69 70 69 68 68 68 68 67 66 66 65 64 64 64 64 64
64 64 63 63 64 64 63 62 61 61 61 62 64 62 60 64 64 62 62 63 60 60 59 61 63 63 64 67 68 68 68 68 68 68 67 66 66 65 64 64 64 64 64
64 64 62 63 64 62 62 61 61 60 60 62 61 58 58 62 63 62 61 61 60 61 59 60 60 59 63 64 67 68 69 70 69 68 68 67 66 65 64 64 64 64 64
63 63 63 62 63 61 62 61 61 60 60 61 58 57 53 55 58 61 60 60 59 61 60 60 60 59 59 60 60 66 68 70 69 69 68 67 66 65 64 64 64 64 64
62 62 63 63 63 62 61 62 61 61 59 59 60 57 53 52 56 56 56 60 57 58 60 61 61 61 59 59 60 62 62 63 67 69 68 67 66 66 65 65 64 64 64
61 62 63 63 63 63 62 61 61 61 62 58 58 60 59 58 55 50 55 57 60 59 58 59 60 60 60 60 60 59 58 58 61 65 67 67 66 66 66 65 65 65 65
60 62 63 63 62 62 62 62 61 61 61 60 59 58 58 58 57 56 52 53 55 61 61 59 60 60 61 61 60 59 56 55 57 61 64 66 67 66 66 66 65 65 65
60 61 62 62 62 62 62 62 62 61 61 61 60 59 59 58 57 55 53 53 56 55 57 59 59 60 61 61 62 58 55 54 55 58 61 63 65 66 66 66 66 66 65
60 61 61 61 61 62 62 62 61 61 61 60 59 59 60 60 65 59 56 54 56 55 55 57 61 59 61 60 61 58 56 53 53 55 58 59 61 63 64 64 65 66 66
59 59 60 61 61 61 61 62 61 61 60 60 59 59 59 59 60 60 57 54 52 53 54 57 57 58 58 60 59 55 60 52 52 52 54 56 57 58 59 61 62 63 64
60 59 58 59 59 60 60 60 60 60 60 60 59 59 60 59 59 59 59 57 54 51 53 55 56 60 61 61 58 59 59 53 51 51 51 52 54 56 56 57 58 59 60
60 59 59 58 59 59 59 59 59 60 59 59 59 58 57 57 58 57 58 57 56 54 52 55 56 58 58 61 59 61 60 56 51 50 49 50 51 53 54 54 55 55 57
59 59 59 58 57 58 58 58 58 58 59 58 58 58 57 57 57 56 56 55 55 54 52 54 55 58 58 59 61 60 61 60 61 52 49 49 49 50 50 49 50 51 51
59 59 59 58 58 57 57 58 57 58 58 57 57 57 56 57 56 56 55 54 54 55 52 51 55 54 55 58 59 59 60 63 61 56 48 45 46 45 43 43 44 44 45
59 59 58 58 57 57 57 57 58 58 57 59 58 57 56 56 55 54 54 54 54 55 54 53 54 55 55 56 56 57 57 58 60 45 43 43 43 43 42 42 42 43 43
53 52 51 51 51 51 54 56 57 57 57 57 57 57 57 56 56 55 55 54 54 54 54 53 54 54 54 55 55 55 52 53 51 49 43 42 41 41 41 41 41 41 41
47 47 46 45 45 45 44 48 54 56 55 48 46 45 42 42 40 43 54 52 54 53 53 53 53 53 52 52 48 47 49 49 42 41 45 42 39 38 38 39 39 40 40
41 41 40 41 41 41 39 40 46 46 46 44 41 41 41 38 37 36 36 35 36 44 50 51 48 46 39 37 39 40 43 45 44 35 39 35 36 34 35 36 38 39 39
37 37 38 38 37 37 37 38 38 39 38 38 39 39 39 38 37 36 35 34 34 34 34 40 35 32 33 31 32 37 39 39 34 31 34 32 32 30 33 36 37 37 37
35 35 36 37 36 36 36 36 36 36 34 34 34 36 37 37 36 35 33 32 31 31 32 32 31 30 31 32 32 34 34 32 31 30 30 30 31 29 31 31 36 36 36
33 33 34 35 34 34 35 35 35 33 32 32 33 34 35 34 35 36 32 30 29 30 34 35 34 34 34 33 31 29 25 32 28 26 27 28 28 22 16 17 21 34 35
32 32 31 32 34 33 34 34 34 32 30 31 32 32 33 32 34 34 32 31 28 28 29 29 29 27 25 26 29 21 19 20 25 13 21 26 23 28 26 16 18 20 20

GFSMA_sfc_temp_093.txt.gz
Temp
66 66 66 65 64 65 63 62 64 64 64 65 65 64 63 63 63 63 65 66 67 71 73 73 73 72 71 70 69 69 69 69 69 69 68 68 67 67 67 67 66 66 66
65 66 64 64 66 66 64 62 63 63 63 65 63 63 63 63 63 63 63 64 65 67 70 73 73 73 72 70 69 68 68 68 69 69 68 67 67 67 66 66 66 66 66
64 64 64 64 65 66 65 61 61 62 63 64 64 62 62 62 62 62 64 62 63 65 66 69 71 72 72 71 69 68 68 68 68 68 68 67 67 66 65 65 65 65 65
63 62 63 63 64 64 64 63 62 62 63 64 62 61 62 62 61 62 62 62 61 62 63 66 68 69 70 70 69 69 68 68 68 67 67 66 66 66 65 64 64 65 65
63 62 62 63 64 63 63 63 63 63 61 61 61 61 61 61 62 63 62 61 60 60 60 63 65 65 67 68 69 69 69 68 68 68 67 66 66 66 65 64 64 64 64
64 64 64 63 63 63 63 63 62 62 61 61 62 60 59 60 61 61 62 62 59 59 59 60 61 64 64 66 68 69 69 69 68 68 67 66 66 65 64 64 64 64 64
64 64 64 63 64 63 63 63 62 61 59 61 60 58 57 59 60 60 62 61 59 60 58 59 58 58 62 64 67 68 69 69 68 69 67 67 66 65 64 64 64 64 64
63 64 63 62 64 63 63 61 61 60 60 61 59 56 52 54 57 59 59 60 59 60 59 58 58 58 58 62 64 66 68 68 68 68 68 67 66 66 65 64 64 64 64
62 63 62 63 63 62 61 61 61 61 60 60 58 57 52 51 54 56 57 58 57 57 59 59 58 59 58 58 59 62 62 63 67 69 68 67 66 66 65 65 65 64 64
61 62 61 63 63 62 61 61 62 61 60 59 59 59 58 57 53 51 54 56 57 58 57 58 58 59 58 58 59 58 58 58 61 66 68 67 67 66 66 65 65 65 65
61 62 63 62 62 62 62 61 61 61 60 60 60 57 56 57 55 54 51 52 54 58 58 58 59 59 59 59 58 58 56 55 57 61 64 66 67 66 66 66 65 65 65
61 62 62 62 62 61 61 61 61 61 61 61 60 59 58 56 54 53 52 53 54 54 58 58 57 59 59 59 60 58 55 54 55 58 60 63 65 66 66 66 66 65 65
60 60 62 61 61 62 62 62 61 61 61 60 60 59 60 59 59 57 55 53 52 53 54 56 59 59 60 59 59 57 56 52 53 55 57 59 61 62 64 65 65 66 66
61 61 61 62 61 61 61 61 61 61 61 60 59 58 58 58 59 59 57 54 51 52 53 55 56 58 59 59 58 55 58 52 51 52 54 55 57 58 59 60 62 63 64
60 60 60 60 60 60 60 60 60 60 60 60 60 58 59 59 59 59 60 58 55 50 53 54 54 56 59 57 56 56 57 53 51 50 50 52 54 55 56 57 58 59 60
58 58 58 58 58 59 59 59 59 60 60 60 59 58 58 58 57 59 58 59 57 54 52 55 55 57 57 59 56 59 59 55 51 50 49 49 50 52 53 53 53 54 55
58 58 58 58 58 58 59 58 58 59 59 59 59 59 58 58 56 55 56 56 55 55 52 53 56 56 56 58 59 59 60 59 59 49 48 47 47 47 48 48 48 49 50
57 57 58 58 58 57 58 57 57 57 58 57 58 58 58 58 56 55 55 54 54 54 53 52 54 54 55 56 58 58 59 61 57 45 44 44 43 43 43 43 44 44 44
58 58 58 57 57 57 57 57 57 57 58 58 58 57 57 58 56 55 55 54 54 54 54 53 53 54 55 55 55 56 57 53 48 44 42 42 43 42 42 42 42 43 43
53 52 52 51 51 52 55 57 57 57 57 57 58 58 57 57 56 55 55 54 54 53 53 52 52 53 53 54 54 53 52 51 46 45 42 41 41 42 41 41 41 41 41
47 47 46 45 44 45 44 45 55 56 51 48 47 45 44 44 45 51 55 54 54 53 52 52 51 52 52 51 50 47 49 45 39 41 41 39 38 38 38 39 40 40 40
41 42 40 39 39 40 38 40 47 48 46 44 41 40 39 39 37 37 37 35 38 51 51 51 51 50 41 40 40 41 44 45 41 35 40 33 36 34 35 36 38 38 38
39 38 37 37 35 36 37 37 38 40 39 39 39 39 38 37 36 35 35 34 34 34 34 43 39 34 34 33 35 38 39 39 34 31 34 32 32 31 33 35 37 37 37
35 36 35 35 34 35 35 36 36 36 35 34 35 37 36 35 35 35 34 32 31 31 32 32 31 30 31 32 33 35 35 31 30 30 30 29 31 29 31 30 35 36 36
33 33 34 34 33 33 35 35 35 34 32 32 34 35 35 34 35 36 33 31 30 30 33 34 33 33 33 33 33 33 31 32 28 26 26 30 28 26 14 16 18 34 35
31 32 31 32 33 32 34 34 34 33 31 31 32 32 33 33 34 34 32 31 28 27 28 27 26 26 25 26 28 20 21 29 25 18 18 21 18 27 26 18 16 18 19

GFSMA_sfc_temp_096.txt.gz
Temp
67 66 65 65 62 63 64 64 65 65 64 65 65 65 64 64 64 64 65 64 67 72 73 74 73 73 72 71 70 69 69 69 69 69 69 68 68 68 68 68 67 67 67
67 66 66 65 65 65 64 64 64 64 65 65 64 64 63 63 64 64 65 65 65 67 71 73 73 73 72 71 69 69 69 69 68 69 69 67 67 68 67 67 67 66 67
66 66 64 64 64 65 63 60 62 63 62 63 63 63 63 63 63 63 64 64 65 64 65 69 71 72 72 71 70 69 68 68 68 68 68 67 67 67 66 67 66 66 66
66 64 63 64 64 64 64 62 62 63 63 62 62 62 62 62 62 62 63 64 63 65 64 66 68 70 70 71 70 69 69 68 68 68 67 67 66 66 66 66 65 65 65
65 64 63 63 64 63 63 63 62 63 62 62 62 62 61 61 62 63 62 62 63 62 63 64 65 65 68 69 70 70 70 69 68 68 67 67 66 65 66 66 65 65 65
64 63 63 63 63 63 62 63 62 62 62 62 62 61 61 61 62 61 62 62 62 61 62 63 63 64 64 67 68 70 70 69 68 68 67 67 67 66 65 65 64 64 65
65 64 63 62 63 62 62 62 62 61 60 62 60 58 58 60 61 61 61 60 60 60 61 61 61 62 64 64 67 69 70 69 68 68 67 67 66 65 66 64 64 64 64
65 64 63 63 62 62 62 62 62 60 61 62 59 57 53 55 58 60 60 60 59 60 60 60 59 59 61 64 64 67 68 69 69 68 67 67 66 66 65 65 64 64 64
64 64 64 63 62 63 62 62 61 61 59 61 60 57 52 52 54 56 58 59 58 59 60 60 59 60 59 60 62 63 62 63 67 68 68 68 67 66 66 65 65 65 65
63 64 64 63 63 63 62 62 62 61 60 59 59 59 58 57 54 51 55 56 57 58 58 59 59 59 59 59 59 58 58 58 61 66 68 68 67 66 66 65 65 65 65
63 63 62 63 63 63 63 61 61 61 61 60 60 58 57 57 56 54 52 52 55 56 58 58 59 60 59 59 59 59 56 55 56 61 65 67 67 67 66 65 65 65 65
62 62 62 62 63 62 61 61 61 61 60 61 60 60 60 56 55 54 53 54 55 54 58 59 58 59 59 59 60 57 55 54 55 58 60 63 65 66 66 66 66 66 65
61 61 61 61 61 62 62 61 61 61 61 60 60 60 60 59 59 59 56 54 53 53 54 57 58 59 59 59 60 57 55 52 53 55 57 59 61 62 64 65 65 66 66
61 61 61 61 62 60 61 61 61 61 60 60 59 59 59 59 59 59 56 54 50 52 53 54 59 58 59 59 59 54 59 52 51 52 54 55 57 58 59 60 61 63 64
61 61 61 61 61 61 61 61 60 60 60 60 59 59 59 59 59 58 58 58 56 50 51 54 54 58 60 59 58 58 59 53 51 50 50 52 54 55 56 56 57 58 59
61 61 60 60 60 60 60 60 60 60 60 60 60 58 58 58 59 58 57 57 56 54 52 56 56 56 58 58 56 58 58 54 50 49 48 49 49 51 52 52 54 54 55
59 59 59 59 58 58 58 58 59 59 59 59 59 58 58 58 57 57 57 57 56 55 53 53 56 56 56 58 58 59 59 58 55 48 47 47 46 47 47 48 48 49 49
56 57 58 57 58 57 58 57 57 58 58 58 58 59 58 58 57 57 56 56 55 55 54 52 53 54 56 57 57 58 58 56 49 45 44 44 44 43 43 43 43 44 43
55 56 56 57 58 58 57 57 57 57 57 58 59 58 58 58 56 56 57 56 55 54 54 53 52 54 54 54 55 55 50 47 47 44 43 42 43 43 43 42 43 43 42
56 54 53 51 51 51 53 55 57 57 57 57 57 58 58 58 57 55 56 56 55 54 54 53 52 52 53 53 54 52 50 48 44 43 42 41 42 42 42 42 41 42 41
48 48 47 45 45 44 43 44 52 56 54 50 46 45 46 54 51 53 56 55 54 53 53 52 51 51 51 51 51 49 49 42 39 42 39 39 38 38 39 40 40 40 40
41 41 40 39 39 39 38 39 47 48 46 45 42 41 40 40 38 38 38 37 41 53 52 52 52 51 47 44 42 44 44 41 39 35 37 34 36 34 36 37 38 38 39
38 37 36 36 35 36 37 38 38 40 39 39 39 38 38 37 37 36 35 35 34 34 34 47 44 39 37 36 39 40 40 38 34 32 36 31 33 31 33 35 37 38 38
35 34 34 35 34 35 36 36 36 36 36 36 36 36 35 34 35 35 34 32 31 31 31 32 31 31 32 33 35 37 36 30 30 29 31 29 31 29 30 29 35 37 37
32 32 33 33 33 34 35 36 35 34 33 33 34 34 34 34 35 37 33 30 29 28 32 32 32 32 32 32 33 35 32 32 28 25 25 31 28 27 26 27 27 34 36
31 31 31 32 33 33 35 35 35 34 32 31 32 32 33 32 34 35 32 31 27 26 26 26 26 26 26 27 28 28 32 29 26 24 24 26 26 29 28 27 26 26 29

GFSMA_sfc_temp_099.txt.gz
Temp
71 71 71 72 75 75 72 71 71 73 73 74 74 73 73 70 66 67 69 66 67 72 74 75 74 73 72 71 70 69 69 69 69 70 69 69 68 68 68 68 67 67 67
70 70 68 69 70 71 70 69 68 70 72 72 70 70 70 69 65 65 66 68 64 68 71 73 73 73 73 71 69 69 69 69 69 69 69 68 67 67 67 67 66 67 67
70 69 69 68 69 69 68 66 66 66 68 71 71 67 69 66 63 64 65 66 67 64 66 68 71 73 73 71 70 69 69 68 69 69 69 67 67 67 66 66 66 66 67
69 68 68 68 70 67 66 64 64 64 66 65 64 64 69 65 64 63 64 65 73 76 66 66 67 70 70 71 71 70 69 68 68 68 68 67 67 66 66 66 66 66 66
68 67 68 68 69 67 66 64 64 65 64 64 65 65 65 65 64 63 63 64 71 75 76 65 64 66 68 69 70 71 70 69 69 68 67 67 66 66 66 65 66 65 65
67 66 66 66 68 67 65 64 63 64 65 64 65 64 65 65 64 63 62 63 64 71 74 74 73 72 64 67 69 71 71 70 70 69 68 67 66 66 65 66 65 65 65
66 65 65 66 66 65 65 64 63 64 62 64 61 60 60 62 62 63 63 62 61 62 67 74 75 75 71 65 67 70 71 71 70 69 68 67 66 66 66 66 65 65 65
66 65 65 65 65 64 64 64 63 61 62 63 59 58 55 56 59 62 62 62 62 62 62 69 73 73 74 73 71 67 70 70 70 69 68 67 66 66 66 65 65 65 65
66 65 66 65 64 65 63 64 64 62 60 62 62 59 53 53 55 58 60 62 61 60 62 65 70 71 72 74 69 66 63 64 68 69 68 67 66 66 66 65 65 65 65
64 64 65 66 65 64 64 64 65 63 62 60 61 65 63 63 57 53 57 59 60 60 60 64 69 70 72 73 67 64 58 58 62 67 68 67 67 66 66 66 65 65 65
64 62 62 64 64 64 65 66 63 62 62 61 60 59 59 60 62 59 54 55 57 60 60 62 66 69 70 71 71 65 57 56 57 62 66 67 67 67 66 66 65 65 65
63 64 64 64 64 64 65 66 64 63 62 62 62 60 60 59 60 62 58 57 56 56 58 58 60 64 68 69 67 60 55 54 55 58 61 64 66 66 66 66 66 66 66
64 64 64 64 63 65 65 67 63 64 62 62 61 61 61 62 67 66 62 58 56 54 55 57 59 62 66 67 67 58 55 53 53 55 57 59 61 63 64 65 66 66 66
66 65 64 64 64 66 64 64 63 63 63 61 62 62 61 61 62 64 65 62 54 53 54 55 59 62 67 66 64 54 64 51 51 52 54 56 57 58 59 60 62 63 64
64 62 64 63 63 62 63 64 62 62 62 62 62 61 60 61 62 62 63 62 60 51 52 54 55 62 67 66 63 63 64 55 51 50 51 52 54 55 56 57 58 59 60
61 62 62 62 62 62 65 63 62 62 61 61 62 60 60 61 62 62 60 61 59 57 53 56 57 62 63 64 62 65 65 55 50 49 48 49 50 52 53 53 54 55 56
60 61 62 62 63 62 62 61 61 61 60 60 60 60 59 60 58 59 59 59 56 56 54 54 60 64 64 65 65 65 66 66 59 47 47 47 47 48 48 49 49 50 50
60 61 62 61 61 60 60 59 59 59 60 59 59 59 58 59 58 59 57 57 57 56 55 52 55 60 61 62 64 64 65 61 54 44 44 44 44 44 44 44 44 44 45
59 60 60 60 60 59 59 58 59 61 60 59 60 60 59 58 57 57 57 56 56 55 56 55 53 58 61 63 61 56 50 48 46 44 43 42 43 43 43 43 43 42 42
60 60 59 57 56 54 56 58 58 58 58 60 58 58 59 58 58 57 57 56 56 55 56 58 55 55 60 58 61 53 49 47 44 45 42 42 42 42 42 42 42 42 42
52 51 49 47 46 46 45 47 54 57 58 53 48 46 43 52 52 55 57 56 55 55 55 54 53 53 53 53 54 53 48 42 40 42 40 40 39 40 40 40 40 40 40
43 42 40 40 40 41 38 40 48 50 48 46 43 42 40 40 39 39 39 41 51 55 54 54 53 52 52 49 48 50 42 40 38 39 36 34 37 36 37 38 39 39 39
37 37 37 37 36 38 37 38 39 42 41 40 39 39 39 38 38 37 36 35 34 35 38 52 52 48 43 42 43 43 44 42 35 33 36 31 33 32 33 36 37 37 38
34 34 35 36 36 36 36 37 37 38 36 35 35 36 36 35 36 36 35 33 32 32 33 34 34 32 33 35 37 39 36 31 31 30 33 30 32 29 30 31 36 37 37
32 32 34 34 34 35 36 36 36 36 34 33 34 35 34 34 35 36 33 31 29 28 32 33 33 33 33 34 36 37 33 34 29 26 26 31 29 27 29 29 32 36 36
31 32 31 32 33 33 35 35 36 35 32 32 33 33 34 33 34 34 32 31 27 26 27 26 26 27 28 29 30 31 34 32 28 26 26 29 30 31 29 32 33 35 35

GFSMA_sfc_temp_102.txt.gz
Temp
78 83 83 83 81 83 81 81 80 79 79 78 79 78 78 80 81 81 79 67 66 70 72 73 74 73 72 71 70 70 70 70 70 70 69 69 69 69 68 68 68 67 68
79 76 76 77 83 81 79 79 77 79 78 77 75 75 77 78 80 78 73 76 64 67 69 73 74 74 73 72 70 69 70 70 70 70 69 68 68 68 67 67 67 67 67
77 77 75 76 77 80 77 76 74 76 75 76 75 74 76 75 76 76 72 69 74 63 66 69 72 73 72 72 70 69 69 69 69 69 69 68 68 67 67 67 67 67 67
76 74 74 74 73 74 72 71 70 68 68 73 73 73 75 74 72 74 69 66 72 67 64 64 68 70 71 71 71 70 70 69 69 69 68 68 67 67 66 66 66 67 67
75 74 74 74 72 70 71 69 67 68 67 72 74 73 73 69 69 70 65 66 67 66 67 64 64 65 67 70 70 71 71 70 69 69 68 67 67 66 66 66 66 67 67
73 73 73 72 71 69 70 69 68 67 68 68 67 65 66 70 71 68 65 64 65 65 68 71 70 71 64 68 69 70 71 70 70 69 68 68 67 66 66 66 67 66 66
73 72 72 70 69 69 69 68 67 65 65 67 64 62 63 66 67 65 66 64 63 64 66 74 74 78 74 65 67 70 72 71 71 70 68 68 67 66 66 66 66 65 65
73 72 69 68 68 68 68 68 69 63 65 66 61 60 56 58 64 65 65 64 63 62 66 71 76 77 75 76 73 68 70 71 71 70 68 67 66 66 66 66 66 65 65
72 71 69 67 67 68 68 69 67 65 61 63 66 64 56 57 58 62 63 65 62 61 62 63 64 74 76 75 71 67 63 65 68 69 68 67 67 66 66 66 66 65 65
69 69 67 67 66 67 67 68 68 68 66 61 63 67 72 66 60 54 58 62 65 62 62 61 62 65 73 77 71 66 59 59 63 67 68 67 67 67 66 66 66 66 65
67 68 66 67 65 66 66 67 69 70 68 64 62 63 65 66 69 64 55 56 60 62 65 64 64 65 67 72 77 68 58 56 58 63 66 67 67 67 67 66 65 65 65
66 67 68 68 67 66 66 65 67 70 69 66 64 63 65 64 65 62 61 59 58 58 62 62 62 65 65 68 72 61 56 55 56 59 62 65 66 66 66 66 66 66 66
65 66 69 66 66 66 67 66 66 69 68 65 64 62 63 64 67 65 61 59 57 57 58 60 61 63 64 66 70 62 56 53 53 56 58 60 62 64 65 65 66 66 66
70 72 68 68 68 68 67 66 66 70 70 67 65 64 62 63 68 61 62 59 57 57 57 57 59 60 61 62 64 56 67 52 52 53 54 56 58 59 60 61 63 64 65
76 73 69 66 64 64 66 65 67 69 66 63 64 65 63 64 64 63 61 60 60 53 54 57 59 60 61 62 61 66 70 54 51 51 51 53 55 56 57 58 58 59 61
72 70 67 66 64 64 65 66 67 66 63 63 64 62 63 65 64 63 62 61 61 59 56 60 59 59 61 62 62 67 69 56 50 49 49 50 52 53 54 54 55 56 57
68 65 65 62 62 63 64 63 63 66 65 62 63 62 63 63 61 61 63 67 65 65 55 56 59 59 59 60 63 66 69 69 60 47 47 48 48 49 50 51 52 52 53
65 66 65 62 61 63 64 64 64 64 62 60 61 60 61 61 61 62 62 62 59 61 58 54 56 57 58 60 62 65 70 60 54 45 45 45 45 44 44 45 45 45 46
66 66 65 63 62 66 65 62 62 61 61 61 61 60 61 60 60 59 60 58 58 58 57 56 55 58 59 61 62 58 54 52 48 44 43 43 43 43 43 43 43 43 43
63 64 65 63 62 61 61 61 60 60 60 63 66 64 65 62 60 58 58 58 57 56 56 55 55 55 57 60 54 49 47 50 47 46 43 43 42 42 42 42 42 42 41
59 59 55 53 54 54 48 51 57 60 59 59 52 51 46 44 45 54 58 57 57 55 55 55 54 55 56 55 53 52 47 43 43 43 41 41 40 40 40 40 41 41 40
42 46 46 47 44 41 38 39 47 55 52 51 47 45 43 41 41 41 42 45 53 55 54 54 55 54 54 55 56 52 43 41 37 41 36 34 37 35 36 37 38 38 38
35 37 39 39 38 38 38 39 40 47 43 42 42 43 43 41 40 39 37 36 35 36 42 56 54 54 50 50 50 45 46 44 38 37 36 31 33 32 34 36 37 38 38
32 32 34 36 36 36 36 37 37 39 38 37 37 38 38 38 37 38 36 34 33 33 33 36 38 33 35 38 45 45 41 32 32 32 35 30 32 30 32 34 36 36 36
32 31 32 34 35 35 36 36 37 35 34 34 35 36 35 35 36 37 35 32 31 29 33 34 34 34 34 35 37 38 35 35 30 29 30 31 29 28 30 31 32 35 34
30 30 29 31 33 33 35 35 36 34 32 32 33 33 33 33 34 34 32 31 27 27 28 28 29 28 29 29 31 32 36 34 30 28 28 29 28 29 26 30 30 30 31

GFSMA_sfc_temp_105.txt.gz
Temp
85 87 87 88 85 82 83 84 78 79 80 79 79 80 80 78 81 76 77 67 66 67 74 74 73 74 73 71 71 71 70 70 70 70 69 69 69 69 68 68 67 68 68
81 85 86 87 86 85 81 83 83 78 78 79 77 78 78 78 78 78 82 77 65 65 71 73 72 73 73 72 70 70 70 70 70 70 69 69 68 68 67 67 67 67 68
80 83 80 79 84 86 80 77 79 80 78 78 76 77 79 77 76 77 76 80 74 63 65 70 69 69 73 72 71 70 69 69 69 69 69 68 68 67 67 67 67 67 67
81 81 82 76 79 83 80 77 78 76 76 75 75 75 75 75 75 76 74 75 75 75 65 65 64 66 71 72 72 71 70 69 69 69 69 68 68 67 67 67 67 67 67
81 80 81 76 79 80 76 74 76 75 74 76 75 75 74 74 74 76 74 74 71 72 71 65 63 64 65 70 71 71 71 70 70 69 69 68 68 67 67 67 68 67 67
80 78 78 75 75 73 73 71 69 72 71 73 75 70 72 74 74 70 71 71 70 71 69 69 65 64 63 67 69 71 71 71 71 70 69 68 67 67 67 67 67 67 67
79 76 76 75 75 71 74 69 69 69 67 70 66 65 67 71 69 71 70 70 67 64 66 65 65 65 66 65 68 70 72 71 71 70 69 68 67 66 66 66 67 67 66
76 73 74 75 74 71 73 69 69 66 67 67 63 62 57 59 64 70 70 68 65 63 63 65 65 66 70 70 70 68 70 71 71 70 68 67 67 67 66 67 67 66 66
78 73 74 74 71 71 69 68 70 67 65 65 67 65 57 57 59 65 67 67 65 64 64 62 63 66 71 73 69 67 64 65 69 69 68 67 67 67 66 66 67 66 65
75 73 74 72 70 71 69 69 70 69 70 63 65 69 73 72 64 56 62 65 65 64 63 62 62 63 64 71 68 65 60 60 63 67 67 67 67 67 67 66 66 66 65
74 74 73 71 68 69 68 68 69 70 72 67 65 63 69 69 70 67 57 59 62 64 65 63 62 62 63 65 69 67 58 57 59 64 66 67 67 67 67 66 66 66 66
71 70 69 69 69 70 67 66 68 71 72 71 69 67 67 65 65 66 64 62 60 61 63 63 64 64 63 63 64 60 57 56 56 60 63 65 66 66 66 66 66 66 66
67 66 67 66 69 68 66 66 66 68 70 70 69 68 67 70 70 70 66 64 58 59 59 63 63 66 68 67 65 58 56 54 55 57 60 61 62 64 65 65 66 66 66
71 67 66 66 67 69 70 68 69 69 69 68 68 69 68 69 70 69 66 64 58 55 57 57 61 63 64 65 66 56 63 53 53 54 56 57 59 60 61 62 63 64 64
73 67 66 66 66 67 67 67 66 67 68 69 70 68 66 66 67 66 65 62 59 54 54 57 58 61 64 64 61 60 63 53 51 51 52 54 56 57 58 59 60 60 61
73 72 68 66 66 67 69 68 64 67 67 69 70 69 68 66 66 65 65 61 59 57 55 62 63 61 62 63 59 62 62 54 51 50 50 51 52 54 55 55 56 57 58
73 72 70 67 66 67 64 64 67 64 65 67 67 66 64 66 65 64 62 64 61 60 56 59 64 65 61 60 60 61 62 62 55 49 49 49 49 50 51 51 52 53 55
70 72 68 69 69 66 66 60 59 62 64 66 66 63 62 65 65 65 63 60 60 61 59 56 61 59 60 60 60 59 61 63 55 46 47 47 47 46 46 47 47 47 48
65 64 68 68 68 67 65 63 61 60 64 67 67 64 62 63 61 61 62 60 61 60 60 57 55 59 59 59 58 56 50 47 46 45 43 43 44 44 44 44 44 44 44
62 62 65 66 66 66 67 67 64 62 64 65 64 63 63 62 61 61 60 60 60 59 58 57 56 55 56 58 57 47 46 47 44 45 43 43 43 43 42 42 42 42 42
43 52 59 56 58 57 58 62 62 60 60 61 58 57 50 45 42 44 55 59 58 57 56 55 54 55 55 53 50 50 46 42 42 42 41 41 41 41 41 42 42 41 41
37 39 41 45 44 44 39 41 54 56 54 53 48 47 46 43 43 38 40 42 50 56 55 55 54 54 54 53 51 47 42 39 36 42 37 35 38 36 36 38 38 38 38
36 34 35 37 37 38 38 41 42 46 42 42 43 43 44 43 42 42 38 37 36 36 42 56 54 54 54 54 52 45 44 43 39 37 36 31 34 32 35 37 38 37 37
33 32 32 33 35 36 37 38 38 39 38 37 37 38 38 40 39 40 38 34 33 33 34 37 40 34 37 44 51 49 45 33 34 33 35 29 32 31 32 33 36 36 35
30 30 31 31 32 33 35 36 37 35 34 33 34 35 36 36 35 38 35 32 32 31 33 34 34 34 35 36 40 41 36 36 32 31 32 30 29 29 31 32 33 35 34
29 29 29 29 31 31 33 34 35 34 31 31 32 32 33 33 34 35 34 32 28 27 30 30 29 29 31 32 33 35 39 38 31 29 30 29 28 28 25 30 30 30 31

GFSMA_sfc_temp_108.txt.gz
Temp
76 78 78 78 76 77 75 75 75 75 74 74 73 74 72 72 73 69 66 67 67 68 74 76 75 73 71 72 71 71 71 70 70 70 69 69 68 68 68 67 67 67 68
77 78 77 77 77 77 76 77 76 72 72 72 71 72 72 71 72 71 66 66 65 66 69 74 74 72 72 71 71 70 70 70 70 70 69 68 68 68 67 67 67 67 68
74 75 75 76 78 77 75 75 73 71 71 72 71 70 70 71 70 70 69 66 66 63 65 70 71 70 70 71 71 70 70 69 69 69 69 68 68 67 67 66 67 67 67
75 74 75 74 73 74 74 74 73 70 69 69 69 69 69 69 69 69 69 68 70 69 63 63 69 69 69 69 70 71 70 69 69 69 68 68 67 67 66 66 67 67 67
74 74 75 75 74 73 71 73 71 71 68 67 70 70 70 67 67 70 68 67 67 68 66 63 63 65 66 67 68 71 71 70 70 69 68 68 68 67 66 66 67 68 66
74 74 75 74 74 73 73 71 70 70 68 68 70 68 67 66 67 67 68 67 67 66 66 65 63 63 63 65 63 70 72 71 71 70 69 68 68 67 67 67 67 67 66
75 75 74 74 72 72 72 70 67 68 65 66 64 64 63 65 66 64 64 65 64 64 64 65 64 65 63 64 64 65 72 72 71 70 69 68 67 67 67 68 67 67 67
74 74 73 72 72 71 70 69 67 65 66 67 63 60 56 59 61 64 66 65 63 63 61 63 64 64 65 64 64 66 70 71 71 70 69 68 67 67 67 67 66 66 66
75 73 73 71 69 68 66 68 67 65 64 65 66 59 55 54 56 61 63 62 62 61 61 61 63 64 64 64 64 63 62 63 69 70 68 67 67 67 66 66 67 66 65
75 73 72 71 69 68 66 66 67 66 66 62 64 66 63 61 55 54 59 63 62 62 61 61 62 63 64 64 63 62 59 59 63 67 68 67 67 68 67 67 67 65 65
74 73 71 70 68 67 67 68 66 67 65 64 63 62 63 63 62 57 52 57 60 61 62 61 61 61 62 63 64 63 58 57 59 64 66 66 67 67 67 67 66 66 66
70 72 70 70 70 67 66 67 65 66 65 65 65 64 62 62 61 58 56 55 57 58 61 61 61 61 61 62 62 58 56 55 57 60 63 65 65 66 67 67 67 66 66
65 68 69 67 67 67 66 67 66 65 65 64 64 64 65 65 64 63 59 56 56 57 58 61 61 62 62 62 62 57 56 53 55 57 60 61 63 64 65 66 66 66 66
65 67 67 67 66 66 67 66 66 63 62 61 63 64 64 65 65 62 60 57 55 55 56 57 61 62 62 63 62 55 59 51 53 54 56 58 59 60 61 63 63 64 65
65 68 67 66 66 66 66 63 61 62 63 63 61 63 63 64 65 62 61 60 57 53 53 56 57 62 63 63 61 60 64 53 52 52 53 55 57 58 58 59 60 61 62
68 68 66 66 65 66 65 64 65 66 65 65 65 64 64 64 63 63 61 59 59 56 53 57 58 59 62 62 60 61 64 53 51 50 50 52 54 55 56 56 57 58 59
68 68 67 66 65 64 64 64 65 65 63 62 63 64 63 63 62 63 61 59 58 58 56 57 58 59 59 60 60 61 59 59 56 50 49 50 50 51 52 53 53 54 55
54 67 67 66 65 64 64 63 62 62 62 59 61 61 61 61 62 62 61 61 60 60 58 56 58 58 58 60 60 59 60 61 55 48 48 48 48 48 48 48 49 49 50
48 56 65 64 63 63 62 62 62 62 61 61 59 60 60 60 59 60 60 60 60 59 59 57 56 59 58 59 58 58 50 47 47 46 44 45 46 46 46 46 46 47 47
43 45 54 60 62 63 63 63 61 60 59 59 62 63 62 60 59 61 59 60 59 59 58 57 56 56 57 58 58 49 45 46 43 45 43 43 43 44 44 43 43 44 44
40 40 42 44 46 49 49 55 61 59 59 57 56 53 48 45 42 43 54 58 59 58 57 56 55 55 55 55 49 50 44 41 41 41 40 41 41 41 41 42 43 42 42
36 37 36 38 39 41 38 42 54 59 57 55 48 47 44 44 41 38 39 39 42 54 56 56 56 54 54 55 50 47 41 39 36 41 37 34 37 36 37 39 40 40 40
33 33 34 34 34 35 37 39 42 45 42 41 42 44 43 42 41 42 38 37 36 35 37 53 55 55 55 54 50 45 45 43 37 37 36 31 34 33 36 37 38 38 38
29 29 30 32 33 33 35 35 36 38 36 35 35 36 37 37 37 39 36 34 32 32 34 36 39 36 37 53 50 49 46 35 35 34 35 29 32 31 33 35 38 37 36
29 29 29 29 30 31 34 34 34 34 32 32 33 34 34 34 36 39 35 32 31 31 34 35 35 35 35 39 43 41 37 36 32 32 32 30 30 30 31 31 33 35 34
32 31 29 29 30 29 32 33 32 32 30 30 31 31 33 33 34 34 33 32 28 27 29 30 30 31 32 34 34 38 40 39 32 30 31 29 29 29 25 29 31 31 31

GFSMA_sfc_temp_111.txt.gz
Temp
72 71 73 72 72 71 70 70 70 70 70 70 70 69 69 68 69 67 66 66 66 72 75 77 76 75 73 70 69 69 71 71 70 70 69 69 68 68 68 67 67 67 67
73 72 71 72 72 73 72 72 71 70 70 70 69 69 69 68 69 67 65 64 65 67 70 74 76 75 73 71 70 68 70 70 70 70 69 68 68 67 67 67 67 67 67
71 74 72 71 73 74 72 72 69 69 69 69 69 68 68 68 68 67 65 64 64 64 65 69 72 73 73 72 70 68 70 70 70 70 69 68 68 67 66 66 66 67 67
70 69 68 68 70 73 72 71 71 67 68 67 65 66 66 67 67 67 65 64 64 66 63 64 68 70 70 71 71 70 69 69 69 69 69 68 67 67 66 66 66 66 67
73 71 69 68 69 67 70 71 68 70 67 66 66 65 65 65 66 66 65 65 65 65 64 62 63 65 67 69 70 70 68 70 70 69 68 68 67 67 66 66 66 66 66
71 70 71 71 68 68 66 66 69 67 69 67 68 65 64 66 66 64 64 65 66 65 64 63 62 63 64 67 68 70 67 70 71 70 69 68 68 67 66 66 66 67 67
70 71 71 70 71 70 71 68 67 67 63 65 62 61 60 64 64 64 66 64 64 64 63 63 62 62 63 64 65 68 70 70 72 70 69 68 67 66 66 66 67 67 66
65 70 70 70 70 68 68 67 67 63 63 65 61 60 57 58 61 64 64 63 63 62 61 62 63 64 64 63 63 65 67 66 71 70 69 68 67 66 66 67 66 66 66
64 66 70 70 69 68 68 65 64 64 61 62 62 58 54 53 54 57 61 63 62 61 59 60 61 63 65 63 63 62 62 61 66 69 68 67 67 66 66 67 66 65 66
60 63 67 70 69 67 65 64 60 61 59 61 61 64 59 57 53 54 56 59 62 61 61 60 61 61 64 64 63 61 58 58 62 67 68 67 67 67 67 66 66 66 65
58 61 63 67 69 66 65 61 60 62 65 63 61 63 62 59 57 54 53 56 60 62 61 61 61 62 61 62 63 61 56 56 57 62 66 67 67 67 66 66 66 66 65
53 57 61 64 68 68 65 64 63 64 63 64 65 65 64 61 60 57 53 52 56 59 60 61 61 61 61 63 62 59 55 54 55 59 62 64 65 66 66 66 66 66 65
51 54 58 61 64 67 67 65 64 64 64 63 63 62 63 64 61 62 56 54 54 57 59 60 60 60 61 62 62 57 55 53 54 56 59 61 63 64 65 66 66 66 66
53 55 56 61 61 63 65 65 64 63 61 63 62 63 63 63 63 61 61 55 53 54 56 57 61 60 61 61 61 54 59 52 52 54 56 58 59 60 61 62 63 64 64
53 56 55 59 59 60 62 65 66 61 60 58 59 62 62 63 62 62 60 58 56 53 54 56 57 62 61 61 60 60 61 52 52 51 52 54 56 58 58 59 60 61 62
50 52 58 59 61 60 63 65 64 62 61 61 61 60 60 62 62 62 60 58 58 54 53 57 57 59 62 62 59 61 61 54 50 50 50 51 53 55 56 56 57 58 59
48 50 53 62 64 65 65 63 62 61 61 60 61 61 61 63 61 61 61 60 57 57 56 53 55 56 60 61 61 61 61 61 57 50 49 50 50 51 52 53 54 55 55
45 47 51 57 64 65 66 62 61 62 62 61 62 62 62 61 60 60 60 59 59 58 58 55 56 57 58 61 61 59 59 60 59 50 49 49 49 49 49 50 50 51 51
42 43 46 48 53 63 64 63 63 63 63 62 61 60 59 59 59 60 59 59 59 59 59 56 55 58 58 59 59 58 53 49 49 48 46 47 47 48 48 47 49 49 49
38 40 41 43 45 45 47 51 61 60 58 58 58 58 58 59 60 60 59 59 59 58 58 57 57 56 58 58 58 50 46 46 44 45 44 45 45 46 46 46 46 47 47
35 37 38 39 39 39 39 41 47 58 56 55 54 51 50 48 47 51 58 58 58 58 57 57 56 55 55 55 54 52 46 41 40 42 41 41 43 43 43 44 45 45 45
32 33 34 35 35 37 37 37 41 57 55 52 47 45 45 42 40 41 41 39 43 57 56 56 56 54 55 56 52 49 41 40 38 41 37 34 38 37 38 40 41 42 43
31 30 31 32 32 34 36 35 36 41 44 43 42 43 42 42 42 39 37 36 35 35 36 44 54 56 55 56 52 48 45 46 39 38 38 32 34 33 37 38 40 40 41
30 29 29 30 31 32 34 34 33 33 33 33 34 35 36 36 38 40 37 34 32 33 33 34 35 34 37 52 53 51 48 37 36 34 35 30 32 32 34 35 38 38 38
30 29 30 30 30 30 33 34 34 31 31 30 32 33 33 33 36 39 35 32 31 30 34 35 35 34 35 39 45 42 37 37 32 33 32 31 30 30 31 32 34 36 35
29 29 28 28 31 30 33 32 31 30 28 29 30 31 33 32 34 34 32 31 28 27 28 30 30 31 31 32 34 36 40 40 32 32 32 30 29 29 26 30 31 32 32

GFSMA_sfc_temp_117.txt.gz
Temp
70 72 72 72 70 69 68 68 69 69 68 67 67 66 66 66 66 66 65 66 66 70 74 76 77 76 74 73 73 72 72 71 70 70 71 69 68 68 68 68 67 67 67
69 69 71 71 71 68 69 68 69 69 69 68 67 67 67 66 66 66 65 65 65 67 70 74 76 76 76 74 72 71 72 71 70 69 70 68 68 67 67 67 67 67 67
68 68 68 69 69 69 68 68 67 67 67 68 67 67 67 67 66 66 65 65 65 64 66 69 72 74 75 74 73 72 71 70 69 69 69 68 67 67 67 66 66 66 66
67 68 68 68 70 68 68 68 67 67 68 67 67 66 66 66 66 66 65 65 64 66 64 66 69 70 72 73 73 73 72 71 69 69 69 68 68 67 66 66 66 66 66
63 62 65 68 68 68 67 68 67 67 67 67 67 67 65 65 66 66 65 65 64 65 64 64 65 65 68 70 72 73 73 71 70 70 69 68 68 66 66 66 66 66 66
59 58 60 63 66 65 66 67 67 67 67 66 66 66 64 65 66 66 65 65 64 64 63 62 62 62 64 67 70 71 72 72 71 70 68 68 68 66 66 66 66 66 66
55 55 56 57 60 65 65 64 65 66 66 65 62 61 60 62 63 64 64 64 63 63 63 63 62 61 62 63 67 70 73 73 72 70 69 67 68 66 66 66 66 66 66
51 53 52 54 56 57 61 65 65 63 63 64 64 61 58 60 61 63 63 63 63 63 63 64 64 62 61 61 63 67 70 71 71 70 69 68 67 67 66 66 66 66 66
51 51 51 52 53 54 55 59 64 64 63 61 62 60 54 56 58 59 62 63 62 62 63 62 62 62 61 62 63 63 62 64 69 70 69 68 67 67 66 66 66 66 66
50 51 51 51 51 53 54 56 61 64 64 59 57 58 57 57 55 51 58 60 61 61 62 62 62 62 62 62 62 60 58 58 61 67 68 68 68 67 67 66 66 66 66
51 52 52 53 52 52 53 54 56 62 64 63 57 55 56 55 56 53 52 55 60 63 63 61 60 61 63 63 63 62 57 55 56 61 66 68 68 67 67 66 66 66 66
48 50 51 51 52 52 53 54 56 59 63 61 60 60 57 56 55 54 54 57 58 62 63 62 60 60 60 61 62 59 55 55 55 58 61 64 67 67 67 66 66 66 66
45 47 48 48 49 51 53 54 54 56 62 61 59 59 61 61 60 60 58 58 56 57 59 61 62 60 60 60 60 58 56 53 53 55 58 60 62 64 64 65 65 66 66
43 45 46 46 47 49 51 52 54 55 59 61 60 58 60 61 62 62 60 58 53 53 55 56 61 61 60 60 59 56 61 51 51 52 54 56 58 59 61 62 63 64 65
43 44 44 45 46 47 49 52 54 55 58 61 61 59 59 60 61 62 62 62 59 53 54 56 57 61 61 60 58 60 61 55 51 50 51 53 55 58 58 58 60 61 62
40 41 42 43 44 46 49 50 52 56 56 60 61 61 60 60 60 61 61 62 61 59 55 59 57 58 60 60 59 60 60 55 50 49 49 50 52 55 55 56 57 58 59
38 38 40 41 42 42 45 45 46 56 55 58 60 59 59 61 61 61 60 61 60 59 56 54 56 56 58 59 59 59 60 59 56 49 48 49 50 51 52 53 53 54 55
37 37 38 39 39 40 41 42 42 45 56 57 60 59 59 60 60 61 60 59 59 60 58 55 54 55 58 59 58 58 59 60 60 50 48 48 48 49 49 49 50 50 51
36 36 37 36 37 38 39 39 40 43 47 58 59 59 60 59 59 60 60 60 59 58 59 58 54 56 57 59 58 58 58 58 58 52 47 46 47 48 48 48 49 49 50
34 34 35 36 36 37 37 37 38 43 48 53 58 59 60 59 58 59 59 59 58 57 57 57 56 55 56 57 58 55 50 50 49 48 47 47 47 47 47 48 48 49 49
33 33 33 34 35 35 35 35 37 39 40 41 42 46 52 51 53 56 59 57 56 55 56 56 56 56 55 55 55 55 54 45 43 45 45 42 45 47 49 46 49 49 48
30 31 31 32 33 35 35 35 35 35 36 36 36 37 40 40 43 44 45 46 53 56 54 55 56 55 56 56 56 53 45 44 45 42 42 38 39 39 39 43 47 46 46
28 27 28 29 30 32 34 34 34 33 32 33 33 35 35 36 36 40 38 37 37 38 43 58 57 57 56 57 55 50 47 46 47 40 40 34 34 34 36 39 41 43 45
25 25 26 27 28 31 34 33 32 31 31 31 31 32 32 33 33 37 37 34 33 33 34 37 49 37 38 42 53 53 51 41 35 34 37 34 32 31 33 34 39 42 43
24 24 26 27 27 28 33 33 32 30 29 29 30 31 31 32 33 35 34 33 33 31 33 35 35 35 35 36 40 45 39 40 33 33 33 33 31 30 30 31 33 38 40
23 25 25 27 29 27 32 34 32 29 28 28 29 29 31 31 32 32 30 29 29 28 29 29 32 31 31 33 34 34 41 43 33 32 33 32 30 31 28 30 31 32 33

GFSMA_sfc_temp_120.txt.gz
Temp
68 69 70 70 71 71 70 70 70 70 70 69 68 67 66 66 67 66 66 66 67 69 73 76 76 75 74 73 73 72 72 71 71 71 70 69 70 69 69 69 68 68 67
68 68 69 70 69 69 70 70 70 70 70 70 69 68 67 67 66 66 66 66 65 66 69 74 76 76 76 74 72 72 72 72 71 71 70 69 69 68 67 68 67 67 67
64 66 68 69 70 70 67 69 68 68 69 69 69 69 68 67 66 66 66 66 66 64 65 69 71 73 74 75 73 72 71 71 71 71 70 69 69 68 67 67 67 67 67
62 63 62 65 68 69 68 68 68 67 67 67 67 68 68 68 66 66 66 66 65 66 65 65 67 70 72 73 74 73 72 71 71 71 69 68 68 68 66 66 66 66 66
58 57 60 62 64 66 67 67 67 67 66 66 66 67 67 66 66 66 66 66 64 65 65 64 64 65 68 71 73 74 74 72 71 71 70 68 68 67 66 66 66 66 66
54 53 55 56 57 61 65 65 65 65 65 66 66 65 66 66 66 65 65 65 64 64 64 64 64 64 63 67 69 72 74 73 73 72 71 69 69 67 66 66 66 66 66
51 50 51 52 54 55 57 62 64 62 62 66 62 61 63 64 64 64 64 64 63 62 63 63 63 63 64 63 66 71 73 74 73 72 71 70 69 67 66 66 66 66 66
49 50 48 49 51 52 53 55 61 63 63 65 62 60 57 61 62 63 64 63 63 63 63 64 64 64 64 65 65 66 70 72 73 72 70 69 68 67 66 66 66 66 66
49 49 49 49 50 51 51 53 55 58 62 62 64 60 55 56 58 60 63 64 64 63 63 63 64 65 65 64 63 63 62 64 69 71 70 69 68 68 66 66 66 66 66
48 49 51 52 52 52 52 52 54 55 58 61 60 63 59 58 56 54 58 63 63 62 63 63 64 64 64 64 63 61 58 58 61 67 69 69 67 67 66 66 66 66 66
48 49 50 50 50 51 52 53 53 54 54 57 60 57 57 57 55 56 53 55 60 62 64 64 64 64 64 64 64 62 56 55 57 61 66 68 68 68 67 66 66 66 66
46 47 48 47 48 49 50 52 54 54 54 56 59 60 59 58 56 56 54 55 58 60 63 64 65 63 64 64 64 59 56 55 55 58 61 64 66 67 67 67 67 66 66
42 43 45 45 45 47 48 49 50 51 53 54 56 59 62 62 60 61 60 55 53 56 58 64 64 64 62 63 64 58 56 53 54 55 57 59 61 63 66 66 66 66 66
40 42 43 44 45 46 47 48 49 51 53 54 55 57 62 62 62 61 60 58 53 53 55 58 63 64 62 62 61 55 61 52 52 53 55 56 57 59 60 62 64 65 65
40 40 41 41 43 44 45 46 47 49 51 54 55 56 60 62 61 61 61 61 59 55 54 58 57 62 63 62 60 60 61 54 51 51 51 52 54 56 57 58 60 62 62
38 38 39 40 41 42 43 43 44 46 47 50 56 56 60 61 61 61 61 61 60 59 56 59 58 59 62 62 60 60 61 55 50 49 49 50 51 53 55 56 57 59 59
37 37 38 39 39 39 40 40 41 43 43 46 55 56 59 61 60 60 60 60 60 59 57 58 58 59 59 59 59 59 60 60 58 49 48 48 48 49 51 53 53 55 56
37 37 37 38 38 38 38 38 38 39 41 43 47 55 57 60 59 60 59 59 59 60 59 57 55 55 58 58 60 58 60 60 60 50 48 47 48 48 48 49 51 51 52
35 35 36 36 37 37 37 37 38 39 40 43 45 49 57 59 58 59 59 59 59 59 59 59 56 56 57 58 58 58 58 58 58 52 47 47 47 48 48 48 49 49 50
32 33 34 35 36 36 36 36 37 37 37 39 40 41 43 41 43 53 58 59 60 58 58 57 58 56 55 57 58 56 54 54 53 51 49 48 47 47 47 47 47 48 49
30 31 31 33 34 35 35 34 35 35 35 35 36 38 40 40 39 39 47 58 59 58 58 57 56 56 55 55 55 56 55 49 46 47 47 46 48 49 49 46 48 48 48
28 29 29 30 31 34 34 35 34 33 33 33 32 33 36 37 36 38 38 40 43 58 57 56 57 55 56 57 56 56 48 46 47 44 46 40 41 43 41 44 43 46 45
25 27 28 28 29 31 34 34 34 32 31 30 30 31 33 34 34 36 38 36 35 35 35 45 55 57 57 58 57 55 51 53 52 43 44 38 36 36 36 39 41 41 43
22 24 26 27 27 29 34 33 32 30 30 29 29 30 30 31 32 33 35 35 33 33 33 34 34 34 38 57 59 57 54 46 36 36 40 38 33 33 33 34 38 40 41
22 23 26 25 25 26 33 33 29 28 27 28 29 29 30 30 32 33 31 31 32 31 33 35 34 35 34 35 40 50 43 44 33 34 33 34 32 32 32 32 33 37 39
21 23 23 25 28 25 31 32 29 26 24 26 27 28 31 30 31 32 28 28 27 26 29 32 33 33 33 33 34 34 46 47 34 33 33 34 31 32 33 31 31 33 34

GFSMA_sfc_temp_123.txt.gz
Temp
72 72 72 72 74 77 74 74 76 76 74 74 75 77 77 78 79 79 78 66 67 69 73 76 76 74 74 73 72 72 72 72 72 71 70 69 69 69 70 69 68 68 68
70 70 71 71 71 71 72 74 74 74 74 73 71 72 76 78 78 77 79 77 65 67 69 72 74 75 75 74 72 71 72 72 71 71 71 70 69 69 69 68 68 68 68
65 68 70 69 71 72 70 72 70 71 73 74 72 71 71 73 76 76 77 77 76 63 65 68 70 73 74 74 73 72 71 71 71 72 71 70 69 68 68 67 68 67 67
64 64 64 65 66 67 71 72 69 68 68 70 71 72 71 70 70 73 75 74 78 79 69 65 67 69 71 74 74 73 72 71 71 71 70 70 69 69 67 67 67 67 67
62 64 64 64 62 63 65 67 69 69 69 69 69 69 70 69 69 69 69 70 74 76 78 68 64 65 67 70 72 74 74 72 72 71 71 70 69 69 67 67 67 67 67
60 61 64 63 63 64 65 65 65 67 68 69 68 67 68 67 70 68 69 70 70 70 72 72 73 73 63 66 69 72 74 74 73 72 71 70 69 69 67 67 67 67 67
57 59 60 60 61 62 63 64 64 63 65 67 64 64 64 66 66 66 68 69 69 69 71 70 70 75 76 64 67 70 73 74 73 73 72 70 69 68 67 66 67 67 67
56 57 57 57 57 57 60 61 63 63 65 65 62 63 58 62 66 66 68 67 69 70 68 69 70 75 75 78 72 67 70 72 73 73 71 70 69 68 67 66 66 66 66
54 54 54 54 54 54 53 54 58 61 62 64 67 62 56 56 66 68 68 69 69 69 66 73 73 74 74 76 70 68 63 65 69 72 70 70 69 69 67 66 66 66 66
52 52 52 52 52 53 53 54 56 55 58 60 63 66 70 64 60 58 65 68 70 67 69 72 73 74 74 74 71 66 60 59 63 68 70 69 69 69 68 67 67 66 66
50 49 49 49 49 50 51 51 53 54 56 56 61 61 63 65 65 58 59 61 66 69 73 73 74 74 74 74 74 69 57 56 58 63 66 68 69 68 68 68 66 66 66
47 47 47 47 47 48 48 49 50 51 53 55 56 60 60 64 63 61 58 63 63 67 69 73 74 75 75 74 70 62 56 54 54 59 62 65 67 67 67 68 67 67 66
42 43 44 44 45 46 47 48 49 50 51 52 54 56 59 61 67 64 65 65 67 71 70 72 74 76 75 73 71 60 56 53 54 56 58 60 62 64 65 66 67 66 66
41 43 42 43 43 44 45 46 47 48 50 51 52 54 56 61 63 66 62 60 61 66 69 70 74 74 74 71 66 56 67 52 52 53 55 56 58 59 60 63 64 65 65
41 41 41 41 42 43 43 44 44 46 47 47 49 51 55 58 63 63 67 63 59 58 64 69 69 73 74 73 66 68 68 58 52 51 52 53 55 56 57 58 60 61 62
39 39 40 40 41 41 41 41 42 43 44 45 47 48 52 57 60 61 63 65 61 60 60 71 72 73 72 71 65 66 66 58 51 50 51 51 52 54 54 55 56 57 59
38 38 38 39 39 39 40 39 40 42 42 44 46 47 49 55 58 60 61 61 60 60 57 64 71 72 70 69 67 63 63 63 63 49 49 49 49 50 51 51 52 54 56
36 36 37 37 38 38 39 38 39 40 39 40 42 43 45 46 52 60 61 60 59 60 58 57 64 67 67 66 67 63 62 61 62 53 49 48 48 48 48 48 49 49 51
35 35 35 35 36 36 37 38 38 37 38 38 38 39 40 40 39 41 43 58 61 60 60 59 60 65 63 63 61 61 60 59 60 55 48 47 47 48 47 47 47 48 49
34 34 34 34 35 36 36 37 38 37 37 37 37 37 37 36 36 36 40 44 50 58 59 60 58 56 57 59 59 58 57 59 58 56 52 51 48 47 47 47 47 47 48
34 34 33 33 34 34 34 35 36 36 36 35 36 36 36 36 36 36 39 39 40 43 58 58 56 57 57 56 56 59 57 57 55 52 54 52 53 53 51 46 49 47 47
33 33 32 32 32 34 34 34 34 34 35 34 34 34 36 35 35 35 36 37 36 34 35 55 57 56 57 58 59 57 56 51 50 49 54 51 47 52 51 52 47 45 45
29 29 30 30 31 33 34 33 33 33 32 32 31 32 32 34 33 34 34 35 35 34 34 34 38 49 50 58 62 57 56 56 54 49 53 49 41 42 41 41 41 42 43
27 27 27 28 29 31 33 32 31 31 31 31 30 31 31 32 32 32 31 31 31 31 31 33 33 33 33 35 37 57 59 51 40 37 46 43 35 36 35 37 39 41 42
26 26 26 26 27 28 32 31 29 30 29 29 30 30 30 30 32 32 30 28 28 29 32 33 33 34 34 35 35 42 49 47 35 37 35 36 33 33 33 33 34 37 39
26 27 25 25 26 27 30 30 29 28 25 27 28 28 29 29 31 31 28 27 27 27 28 29 30 31 32 32 33 32 33 40 38 34 34 36 33 34 33 33 34 34 37

GFSMA_sfc_temp_126.txt.gz
Temp
77 78 75 74 75 79 80 80 80 80 81 82 83 83 84 85 86 89 89 68 67 70 74 76 76 76 75 74 73 72 72 72 72 71 70 70 69 69 69 70 68 69 68
74 75 76 75 74 74 76 77 77 77 76 75 78 81 81 84 86 86 89 85 66 67 70 73 75 76 76 74 73 72 72 72 72 71 70 69 69 69 68 68 68 68 68
68 73 77 77 77 78 74 74 75 75 73 73 74 76 78 80 81 83 85 87 83 64 66 69 71 73 74 75 74 72 72 72 72 71 71 70 69 69 68 67 68 68 68
66 66 68 68 69 70 68 73 73 74 72 70 70 71 73 77 79 81 81 82 86 88 68 65 67 70 71 73 74 74 73 72 71 71 71 70 69 69 68 67 67 67 68
67 68 71 71 69 68 68 66 68 71 71 71 71 70 71 72 76 74 77 78 79 82 83 68 65 65 68 71 73 74 74 73 72 72 71 70 69 69 68 67 67 67 67
66 68 72 71 71 73 74 70 66 67 67 68 68 68 69 70 72 70 71 75 77 79 79 78 77 77 63 67 70 73 75 74 74 73 72 70 69 69 68 68 67 67 67
63 65 68 69 70 70 71 71 72 72 72 72 65 65 66 69 66 65 65 65 70 77 77 78 80 82 81 65 67 71 74 75 74 73 72 71 70 68 68 67 67 67 67
61 61 58 59 58 60 63 65 68 69 72 71 65 63 59 61 66 65 66 66 67 73 74 77 78 78 81 85 77 67 71 73 74 73 72 70 69 68 68 67 67 67 67
57 54 54 54 54 55 56 56 57 59 65 72 69 69 61 60 70 70 66 68 70 74 76 75 74 77 79 81 79 71 63 65 70 72 71 70 69 68 68 67 67 67 67
53 52 51 52 53 53 53 53 56 55 56 58 68 66 72 75 68 67 74 73 74 75 76 79 79 78 81 82 77 70 60 59 63 69 70 70 69 68 68 67 67 67 67
53 51 50 50 50 51 51 50 50 51 53 54 58 64 65 69 69 68 68 72 75 78 79 79 80 81 82 82 82 76 59 57 59 64 67 69 69 69 68 67 67 67 67
49 49 49 49 49 49 48 49 50 50 51 52 54 57 59 60 69 68 68 71 73 77 79 80 79 79 82 83 78 67 59 56 56 60 64 66 67 68 68 68 67 67 67
44 46 46 46 47 47 48 48 48 50 51 50 52 54 56 58 61 64 64 70 73 76 77 80 81 82 82 82 81 65 59 54 54 56 59 62 63 65 66 66 67 67 67
43 44 44 45 45 46 46 47 47 49 51 50 50 49 52 56 58 62 65 64 65 70 75 74 81 82 83 83 78 59 76 53 52 53 56 58 59 61 62 63 64 65 66
43 43 43 43 43 44 44 45 45 46 47 48 49 49 49 52 54 57 59 67 64 62 67 74 70 78 82 83 78 79 77 61 52 51 52 54 57 58 59 59 60 62 63
41 40 40 41 41 42 42 43 43 44 44 45 46 47 48 50 50 54 57 61 67 65 64 73 74 71 79 82 78 77 76 62 51 50 50 51 53 55 56 57 57 58 60
40 39 39 40 40 40 41 41 41 41 40 41 42 42 45 44 44 46 52 59 64 61 60 68 73 75 74 75 78 76 73 74 74 50 49 49 49 51 52 53 54 55 56
41 40 40 39 40 40 40 39 39 39 38 37 38 39 38 41 39 41 42 45 49 61 61 58 64 69 69 72 73 71 71 70 73 57 49 49 49 49 49 50 50 50 51
40 39 39 38 39 39 39 39 39 38 38 38 37 37 36 37 36 37 39 43 45 48 51 58 59 62 63 66 68 70 67 69 66 58 48 47 47 48 48 48 49 49 50
40 39 39 39 39 39 38 38 40 39 38 38 37 37 36 35 35 35 38 39 40 41 45 48 59 63 62 64 68 66 60 61 61 62 55 52 49 48 48 48 48 48 48
41 41 41 41 41 39 37 36 39 39 38 36 37 37 37 36 36 36 36 36 35 35 38 40 45 52 60 57 58 60 58 61 59 61 58 57 55 55 53 47 51 48 47
38 38 38 39 39 39 33 33 36 37 36 35 34 35 36 35 35 35 35 35 34 32 32 34 36 36 39 38 53 58 57 56 53 54 57 55 55 56 56 56 50 47 46
36 33 34 35 35 35 33 32 34 35 34 33 32 32 34 35 34 36 35 33 33 33 32 32 32 32 32 34 34 37 52 58 57 61 56 53 47 53 52 46 45 45 45
30 30 30 31 32 32 31 31 33 34 32 32 31 31 31 31 32 33 35 33 32 31 31 32 31 31 32 34 34 35 37 41 52 46 54 48 36 41 40 41 41 43 43
30 29 29 29 29 29 30 30 31 33 31 31 31 31 30 29 30 31 30 30 30 31 33 34 33 33 33 33 34 34 33 36 41 38 37 41 34 34 34 34 36 39 40
29 31 29 29 28 28 29 29 29 30 30 31 30 30 28 28 29 29 28 27 25 28 30 31 32 32 32 31 32 31 31 31 34 35 35 37 35 35 34 33 34 35 38